Date StartTime U_cm/s V_cm/s W_cm/s Ustd_cm/s Vstd_cm/s Wstd_cm/s Uvar_(cm/s)^2 Vvar_(cm/s)^2 Wvar_(cm/s)^2 KE_(m/s)^2 TurbulentKE_(m/s)^2 HorizWindSpeed_cm/s FrictionSpeec_cm/s DragCoef SpeedOfSound_m/s SonicTemperature_C Pressure_mb 
11/07/2013  00:00:00      -49.023      -22.572       -2.289       12.360       10.121        5.368      152.779      102.425       28.818        0.160        0.014       53.970        3.897        0.005      336.466        7.786      868.048
11/07/2013  00:01:00      -29.296      -20.601        1.073       15.726        8.280        6.784      247.298       68.558       46.027        0.082        0.018       35.814        7.468        0.043      336.459        7.773      868.026
11/07/2013  00:02:00      -37.169      -17.779       -0.089       16.508       16.141        9.688      272.502      260.544       93.865        0.116        0.031       41.202       10.807        0.069      336.425        7.717      868.004
11/07/2013  00:03:00      -58.568      -44.134       -0.662       24.442       18.653       14.146      597.421      347.931      200.097        0.326        0.057       73.335       13.783        0.035      336.355        7.601      867.975
11/07/2013  00:04:00      -54.012      -37.956        1.762       28.820       21.409       15.514      830.601      458.355      240.699        0.295        0.076       66.015       15.640        0.056      336.320        7.543      867.950
11/07/2013  00:05:00      -22.299      -19.387        1.724       18.643       15.572       14.665      347.543      242.473      215.076        0.084        0.040       29.548       13.931        0.222      336.363        7.614      867.925
11/07/2013  00:06:00      -40.697      -33.741       -2.417       28.364       14.964       11.400      804.543      223.929      129.959        0.198        0.058       52.865        6.787        0.016      336.364        7.615      867.910
11/07/2013  00:07:00      -63.024      -48.156       -2.574       28.725       14.977       12.851      825.154      224.303      165.151        0.376        0.061       79.316       14.014        0.031      336.386        7.653      867.906
11/07/2013  00:08:00      -72.922      -45.358       -3.489       28.126       12.487       14.558      791.050      155.929      211.928        0.427        0.058       85.877       12.162        0.020      336.343        7.580      867.905
11/07/2013  00:09:00      -87.406      -46.156       -7.388       24.251       15.960       13.199      588.114      254.718      174.205        0.542        0.051       98.845       11.176        0.013      336.282        7.479      867.906
11/07/2013  00:10:00      -83.896      -47.846       -2.432       20.374       16.648       15.928      415.096      277.169      253.711        0.514        0.047       96.580       13.056        0.018      336.252        7.429      867.915
11/07/2013  00:11:00      -65.197      -33.523        1.201       30.048       21.754       14.944      902.894      473.253      223.311        0.349        0.080       73.311       12.169        0.028      336.218        7.374      867.928
11/07/2013  00:12:00      -29.615      -21.632        7.595       35.509       20.776       15.941     1260.891      431.650      254.116        0.167        0.097       36.674       19.865        0.293      336.241        7.410      867.944
11/07/2013  00:13:00      -39.136      -36.602        5.156       34.262       28.943       19.249     1173.908      837.722      370.525        0.264        0.119       53.585       19.230        0.129      336.220        7.374      867.948
11/07/2013  00:14:00      -98.581      -71.930       -4.889       42.449       31.693       22.118     1801.881     1004.424      489.200        0.911        0.165      122.033       20.544        0.028      336.252        7.429      867.939
11/07/2013  00:15:00     -117.888      -60.094       -5.115       26.907       21.560       19.449      723.972      464.854      378.255        0.955        0.078      132.321       18.955        0.021      336.239        7.407      867.935
11/07/2013  00:16:00      -90.855      -22.419      -12.209       21.426       20.962       12.010      459.052      439.420      144.250        0.497        0.052       93.580        9.301        0.010      336.189        7.322      867.930
11/07/2013  00:17:00     -107.066       -8.994       -8.631       24.056       14.993       14.075      578.698      224.780      198.111        0.631        0.050      107.443       11.393        0.011      336.115        7.200      867.922
11/07/2013  00:18:00      -98.764      -11.004       -1.314       34.222       28.445       20.984     1171.125      809.140      440.342        0.615        0.121       99.375       19.757        0.040      336.066        7.117      867.915
11/07/2013  00:19:00      -95.672      -35.533       -3.826       24.206       22.147       16.796      585.950      490.501      282.110        0.589        0.068      102.057       13.077        0.016      336.047        7.087      867.902
11/07/2013  00:20:00      -83.221      -15.299        2.625       25.335       24.613       15.919      641.838      605.816      253.417        0.433        0.075       84.616       14.059        0.028      336.043        7.080      867.872
11/07/2013  00:21:00      -47.609       -7.386       -2.238       26.631       17.539       13.886      709.209      307.616      192.811        0.177        0.060       48.179       15.957        0.110      336.055        7.101      867.838
11/07/2013  00:22:00      -65.880       -7.341       -0.287       20.660       13.956       13.891      426.836      194.774      192.949        0.260        0.041       66.288       13.542        0.042      336.061        7.111      867.793
11/07/2013  00:23:00      -80.406      -19.941       -6.832        6.294        8.158        6.280       39.616       66.551       39.443        0.353        0.007       82.842        2.660        0.001      336.149        7.255      867.755
11/07/2013  00:24:00      -76.852      -29.355       -1.178       21.427       17.114       10.831      459.117      292.905      117.317        0.382        0.043       82.268        6.837        0.007      336.144        7.248      867.719
11/07/2013  00:25:00      -74.792      -25.093       -5.294       25.583       18.283       11.860      654.505      334.260      140.663        0.369        0.056       78.889       12.169        0.024      336.168        7.288      867.697
11/07/2013  00:26:00     -126.248      -19.913      -19.650        9.843        9.213        8.137       96.880       84.875       66.208        0.848        0.012      127.808        5.647        0.002      336.131        7.226      867.687
11/07/2013  00:27:00     -118.788      -29.333      -15.917       17.302       12.952       13.246      299.344      167.765      175.467        0.793        0.032      122.356        9.491        0.006      336.122        7.210      867.700
11/07/2013  00:28:00     -134.031      -19.906      -11.479       21.244       14.690       15.283      451.311      215.800      233.568        0.970        0.045      135.501       12.751        0.009      336.048        7.087      867.732
11/07/2013  00:29:00     -133.745       -9.406      -16.946       36.226       23.878       16.498     1312.339      570.156      272.200        1.021        0.108      134.076       17.346        0.017      336.020        7.041      867.763
11/07/2013  00:30:00      -95.080       -7.391       -2.218       40.160       28.145       18.952     1612.839      792.135      359.196        0.593        0.138       95.366       19.648        0.042      336.017        7.036      867.811
11/07/2013  00:31:00     -126.612      -10.615       -8.458       34.256       26.422       21.756     1173.486      698.105      473.338        0.928        0.117      127.056       21.387        0.028      336.181        7.309      867.842
11/07/2013  00:32:00     -121.676      -13.954       -9.643       35.685       31.629       19.031     1273.390     1000.381      362.161        0.886        0.132      122.473       16.503        0.018      336.193        7.331      867.865
11/07/2013  00:33:00     -139.162       -4.019      -15.687       30.184       25.229       18.577      911.084      636.510      345.110        1.076        0.095      139.220       13.660        0.010      336.171        7.294      867.875
11/07/2013  00:34:00     -110.224        3.954       -7.678       35.683       24.474       19.274     1273.296      598.964      371.470        0.723        0.112      110.295       15.198        0.019      336.181        7.309      867.868
11/07/2013  00:35:00     -114.298       37.515      -14.221       32.618       23.419       19.405     1063.907      548.455      376.543        0.833        0.099      120.297       13.357        0.012      336.216        7.369      867.847
11/07/2013  00:36:00     -114.236       38.354       -6.819       23.383       23.256       14.901      546.758      540.861      222.033        0.794        0.065      120.502       12.303        0.010      336.427        7.721      867.824
11/07/2013  00:37:00      -78.913       27.014       -2.059       27.264       15.769       10.937      743.343      248.670      119.624        0.404        0.056       83.408        4.665        0.003      336.514        7.867      867.804
11/07/2013  00:38:00      -87.935       11.627      -14.293       14.180       23.449       12.657      201.060      549.848      160.191        0.449        0.046       88.700       10.788        0.015      336.526        7.888      867.782
11/07/2013  00:39:00     -104.777       -0.568      -10.037       33.419       24.296       12.756     1116.857      590.288      162.704        0.647        0.093      104.778        9.991        0.009      336.331        7.561      867.767
11/07/2013  00:40:00     -116.411       -7.144      -13.042       27.547       24.167       16.826      758.827      584.060      283.106        0.770        0.081      116.630       14.048        0.015      336.289        7.490      867.774
11/07/2013  00:41:00     -143.183       20.335      -11.583       34.498       34.739       23.683     1190.130     1206.817      560.896        1.200        0.148      144.620       16.616        0.013      336.257        7.437      867.796
11/07/2013  00:42:00     -122.749       16.356      -11.097       35.126       31.291       17.745     1233.813      979.116      314.888        0.899        0.126      123.834       15.898        0.016      336.211        7.360      867.825
11/07/2013  00:43:00     -149.410      -11.484      -14.622       31.419       20.111       16.276      987.181      404.452      264.924        1.216        0.083      149.851       14.448        0.009      336.071        7.126      867.867
11/07/2013  00:44:00     -130.654      -19.836      -16.145       31.324       23.697       17.242      981.197      561.533      297.270        0.978        0.092      132.151       16.847        0.016      336.078        7.138      867.905
11/07/2013  00:45:00     -119.559      -19.012       -2.925       31.819       30.693       20.921     1012.435      942.061      437.687        0.853        0.120      121.061       19.781        0.027      336.168        7.288      867.937
11/07/2013  00:46:00     -102.922      -19.161       -6.167       33.341       19.687       14.177     1111.637      387.562      201.000        0.635        0.085      104.691       15.662        0.022      336.223        7.379      867.943
11/07/2013  00:47:00     -108.196        1.276       -7.299       18.087       14.108       10.294      327.155      199.040      105.964        0.620        0.032      108.204        9.903        0.008      336.247        7.420      867.927
11/07/2013  00:48:00     -118.982        2.159      -10.398       18.377       17.994       12.596      337.708      323.780      158.654        0.754        0.041      119.002        8.611        0.005      336.224        7.382      867.912
11/07/2013  00:49:00     -124.397      -11.271      -15.335       25.413       22.154       15.922      645.808      490.778      253.509        0.861        0.070      124.906       15.825        0.016      336.253        7.430      867.910
11/07/2013  00:50:00     -117.202       -5.195       -7.692       25.797       23.575       15.035      665.506      555.777      226.055        0.763        0.072      117.317       11.305        0.009      336.250        7.426      867.903
11/07/2013  00:51:00     -119.726        4.069      -10.037       33.633       25.991       17.654     1131.172      675.551      311.674        0.828        0.106      119.795       14.910        0.015      336.286        7.487      867.902
11/07/2013  00:52:00      -93.509      -38.469       -1.640       34.829       33.197       17.362     1213.037     1102.048      301.453        0.642        0.131      101.113       15.014        0.022      336.246        7.419      867.916
11/07/2013  00:53:00      -86.257      -51.796       -2.161       39.657       19.514       17.250     1572.683      380.794      297.551        0.619        0.113      100.614       20.592        0.042      336.204        7.351      867.936
11/07/2013  00:54:00      -81.303      -46.294        0.624       42.782       20.116       16.020     1830.307      404.643      256.642        0.562        0.125       93.559       13.742        0.022      336.233        7.395      867.953
11/07/2013  00:55:00      -42.930      -38.410        3.956       27.602       22.657       14.249      761.856      513.320      203.038        0.241        0.074       57.605       13.740        0.057      336.316        7.536      867.947
11/07/2013  00:56:00      -47.212      -37.383        5.779       33.069       26.858       16.237     1093.538      721.370      263.647        0.287        0.104       60.220       17.409        0.084      336.363        7.615      867.938
11/07/2013  00:57:00      -44.277      -54.772       11.009       49.286       28.314       26.225     2429.071      801.674      687.763        0.450        0.196       70.430       26.600        0.143      336.345        7.584      867.937
11/07/2013  00:58:00      -66.175      -65.101        5.238       40.422       35.386       26.012     1633.957     1252.154      676.650        0.610        0.178       92.829       26.424        0.081      336.317        7.538      867.928
11/07/2013  00:59:00      -79.018      -55.889        2.133       30.499       22.614       17.144      930.172      511.403      293.932        0.555        0.087       96.785       15.160        0.025      336.337        7.569      867.917
11/07/2013  01:00:00      -65.601      -24.056        7.823       31.330       23.009       15.264      981.539      529.436      232.994        0.334        0.087       69.873       16.561        0.056      336.351        7.595      867.921
11/07/2013  01:01:00      -74.114      -30.340        6.273       26.910       15.343       15.387      724.141      235.403      236.750        0.382        0.060       80.084       15.122        0.036      336.317        7.538      867.941
11/07/2013  01:02:00      -49.468      -25.795        0.565       17.515       15.048        9.601      306.762      226.440       92.188        0.187        0.031       55.790        7.829        0.020      336.330        7.560      867.949
11/07/2013  01:03:00      -37.978      -12.974       -5.271       12.412       13.421       13.108      154.065      180.124      171.830        0.107        0.025       40.133        9.397        0.055      336.366        7.619      867.938
11/07/2013  01:04:00      -81.410       -3.258       -5.736       11.711       10.519        6.394      137.140      110.652       40.887        0.348        0.014       81.476        3.672        0.002      336.328        7.556      867.933
11/07/2013  01:05:00      -71.074      -15.691       -7.626       17.673       10.999        8.829      312.332      120.968       77.958        0.293        0.026       72.785        8.590        0.014      336.335        7.568      867.933
11/07/2013  01:06:00      -45.861      -20.795       -4.486       15.152       11.496        7.881      229.572      132.148       62.115        0.149        0.021       50.355        8.563        0.029      336.327        7.555      867.920
11/07/2013  01:07:00      -26.371       -3.298       -0.405       11.837       12.093        7.810      140.106      146.246       60.993        0.053        0.017       26.576        6.122        0.053      336.559        7.943      867.904
11/07/2013  01:08:00       14.436       17.839        7.542       14.203        6.263       13.990      201.723       39.224      195.710        0.051        0.022       22.949       12.583        0.301      336.628        8.058      867.887
11/07/2013  01:09:00       14.432        9.750        6.257        9.192       11.321       10.882       84.500      128.175      118.424        0.034        0.017       17.417        5.057        0.084      336.456        7.770      867.863
11/07/2013  01:10:00        6.293       12.772        8.821       11.185       14.921        6.688      125.114      222.645       44.726        0.034        0.020       14.238        4.734        0.111      336.473        7.799      867.853
11/07/2013  01:11:00       -5.861        5.115        2.524        6.194        6.335        5.511       38.364       40.130       30.367        0.009        0.005        7.779        2.896        0.139      336.419        7.708      867.853
11/07/2013  01:12:00      -18.031        1.280        2.181       13.628        8.010        6.801      185.719       64.157       46.249        0.031        0.015       18.076        4.188        0.054      336.385        7.651      867.856
11/07/2013  01:13:00        6.697        2.334        8.847        7.228        4.823        5.236       52.243       23.258       27.416        0.012        0.005        7.092        4.420        0.388      336.328        7.557      867.846
11/07/2013  01:14:00       10.931        9.106       12.059        6.934        5.303        6.095       48.075       28.118       37.149        0.023        0.006       14.228        3.986        0.078      336.326        7.552      867.822
11/07/2013  01:15:00        7.198       16.180        3.773        6.490       15.313        7.965       42.117      234.503       63.445        0.033        0.017       17.709        7.896        0.199      336.446        7.753      867.805
11/07/2013  01:16:00       -1.743       31.345       -3.409        5.484        5.850        3.593       30.079       34.221       12.908        0.054        0.004       31.393        2.827        0.008      336.574        7.970      867.796
11/07/2013  01:17:00      -16.116       13.618       -4.432        6.180       12.348        3.676       38.190      152.462       13.513        0.033        0.010       21.099        1.843        0.008      336.555        7.937      867.801
11/07/2013  01:18:00      -32.965       -9.403      -11.805       12.795        8.822        6.802      163.714       77.829       46.273        0.080        0.014       34.280        3.748        0.012      336.465        7.785      867.811
11/07/2013  01:19:00      -26.360      -10.952       -3.333        8.051        8.688        5.849       64.811       75.474       34.207        0.050        0.009       28.545        3.479        0.015      336.340        7.576      867.810
11/07/2013  01:20:00      -16.682       -9.990       -4.767        6.509        5.736        4.263       42.362       32.904       18.173        0.025        0.005       19.444        2.187        0.013      336.405        7.684      867.807
11/07/2013  01:21:00      -20.484      -11.835       -3.735       12.422        9.328        5.345      154.306       87.020       28.572        0.042        0.013       23.658        5.037        0.045      336.402        7.677      867.813
11/07/2013  01:22:00        7.033        4.831        7.760        8.663        4.911        6.649       75.042       24.114       44.204        0.014        0.007        8.533        3.698        0.188      336.408        7.692      867.815
11/07/2013  01:23:00       20.532        8.571        5.423        5.213        4.099        7.570       27.180       16.804       57.303        0.031        0.005       22.249        3.910        0.031      336.471        7.795      867.814
11/07/2013  01:24:00       21.900       15.041       17.396        7.406        6.343        8.610       54.853       40.238       74.135        0.059        0.008       26.568        4.145        0.024      336.318        7.540      867.814
11/07/2013  01:25:00       13.610       11.481        5.908        5.843        5.181        7.977       34.139       26.839       63.629        0.024        0.006       17.806        4.289        0.058      336.295        7.500      867.825
11/07/2013  01:26:00       25.852       19.394        2.018        5.666        4.514        3.808       32.099       20.373       14.501        0.056        0.003       32.318        2.668        0.007      336.323        7.549      867.827
11/07/2013  01:27:00       77.630       39.962        6.265       18.910       10.853        9.613      357.582      117.791       92.418        0.412        0.028       87.312        4.157        0.002      336.290        7.491      867.822
11/07/2013  01:28:00       85.571       36.801       14.095       24.895       19.716       18.400      619.779      388.704      338.558        0.511        0.067       93.149       13.176        0.020      336.237        7.405      867.826
11/07/2013  01:29:00       48.375       41.387       23.220       20.197       13.651       15.073      407.935      186.350      227.201        0.271        0.041       63.663       10.648        0.028      336.175        7.299      867.853
11/07/2013  01:30:00       70.124       35.048       17.451       31.124       15.210       15.984      968.721      231.357      255.487        0.395        0.073       78.395       13.214        0.028      336.241        7.410      867.873
11/07/2013  01:31:00       67.421       54.295       25.366       28.161       23.643       27.661      793.062      558.993      765.126        0.513        0.106       86.565       19.967        0.053      336.251        7.428      867.893
11/07/2013  01:32:00        3.249       24.216       47.889       25.767       24.654       15.580      663.941      607.806      242.745        0.220        0.076       24.433       14.667        0.360      336.313        7.530      867.917
11/07/2013  01:33:00       26.016       45.175       51.138       24.901       20.881       17.672      620.083      436.002      312.302        0.335        0.068       52.131        8.783        0.028      336.302        7.511      867.931
11/07/2013  01:34:00       47.326       49.189       44.789       22.707       22.520       14.887      515.599      507.166      221.615        0.395        0.062       68.259       14.426        0.045      336.199        7.340      867.931
11/07/2013  01:35:00       62.010       50.208       27.107       34.607       21.890       23.789     1197.677      479.194      565.893        0.467        0.112       79.788       19.322        0.059      336.175        7.300      867.906
11/07/2013  01:36:00       89.823       54.895       36.520       45.677       24.366       30.906     2086.355      593.724      955.153        0.802        0.182      105.269       27.162        0.067      336.118        7.205      867.863
11/07/2013  01:37:00       89.572       53.809       46.454       37.173       37.500       32.693     1381.860     1406.218     1068.839        0.847        0.193      104.492       24.517        0.055      336.069        7.123      867.804
11/07/2013  01:38:00       91.036       42.943       20.338       38.329       34.852       37.523     1469.091     1214.639     1407.996        0.732        0.205      100.656       17.164        0.029      335.997        7.002      867.739
11/07/2013  01:39:00      142.866       60.311       21.160       41.995       36.907       32.421     1763.538     1362.156     1051.125        1.434        0.209      155.075       19.845        0.016      335.969        6.955      867.717
11/07/2013  01:40:00       98.662       51.828        8.413       37.999       30.106       23.019     1443.895      906.370      529.894        0.769        0.144      111.446       10.904        0.010      335.939        6.907      867.726
11/07/2013  01:41:00      105.938       70.371       15.575       22.261       18.289       17.937      495.543      334.490      321.723        0.878        0.058      127.181       10.960        0.007      335.933        6.896      867.743
11/07/2013  01:42:00       86.034       50.885       17.553       24.636       24.698       20.414      606.913      609.976      416.719        0.597        0.082       99.956       13.056        0.017      335.946        6.917      867.758
11/07/2013  01:43:00       84.665       39.705       16.978       28.752       24.149       23.143      826.652      583.167      535.598        0.549        0.097       93.512       18.031        0.037      335.953        6.929      867.759
11/07/2013  01:44:00      103.562       27.051       13.573       49.974       32.804       29.587     2497.358     1076.096      875.420        0.804        0.222      107.036       18.293        0.029      335.952        6.928      867.747
11/07/2013  01:45:00       72.136       32.898       38.730       43.453       42.379       36.562     1888.204     1796.013     1336.764        0.640        0.251       79.283       32.013        0.163      335.921        6.876      867.716
11/07/2013  01:46:00      104.737       41.884       47.602       54.438       45.315       34.911     2963.531     2053.492     1218.794        1.061        0.312      112.801       28.797        0.065      335.912        6.862      867.683
11/07/2013  01:47:00       69.593       59.796       46.157       49.545       26.067       30.349     2454.682      679.486      921.054        0.730        0.203       91.754       27.873        0.092      335.873        6.796      867.664
11/07/2013  01:48:00       92.483       60.902       62.632       54.556       50.301       31.206     2976.384     2530.186      973.806        1.133        0.324      110.734       26.343        0.057      335.866        6.784      867.666
11/07/2013  01:49:00       72.969       27.851       40.428       38.155       30.249       30.205     1455.819      915.026      912.323        0.551        0.164       78.103       18.582        0.057      335.816        6.701      867.677
11/07/2013  01:50:00       84.812       54.122       35.387       41.137       35.832       30.892     1692.289     1283.949      954.298        0.765        0.197      100.610       18.912        0.035      335.817        6.705      867.666
11/07/2013  01:51:00      108.968       58.836       27.421       54.119       40.216       42.242     2928.837     1617.288     1784.362        1.121        0.317      123.838       25.929        0.044      335.787        6.653      867.642
11/07/2013  01:52:00      120.268       81.546       26.140       48.319       32.602       37.117     2334.679     1062.878     1377.698        1.329        0.239      145.307       21.817        0.023      335.734        6.565      867.612
11/07/2013  01:53:00      135.856       79.183       37.951       47.949       33.082       35.570     2299.078     1094.408     1265.225        1.541        0.233      157.247       23.235        0.022      335.706        6.517      867.607
11/07/2013  01:54:00       98.998       50.239       28.309       46.483       35.978       36.896     2160.704     1294.397     1361.338        0.897        0.241      111.016       25.502        0.053      335.682        6.480      867.614
11/07/2013  01:55:00      113.271       57.017        9.140       35.574       35.727       30.747     1265.536     1276.436      945.380        0.983        0.174      126.812       20.815        0.027      335.669        6.456      867.612
11/07/2013  01:56:00       98.480       63.979       24.818       37.024       27.960       19.292     1370.811      781.758      372.191        0.847        0.126      117.438        7.521        0.004      335.609        6.361      867.619
11/07/2013  01:57:00       74.734       44.768       15.648       21.318       19.336       18.862      454.465      373.895      355.758        0.451        0.059       87.117       10.941        0.016      335.580        6.312      867.629
11/07/2013  01:58:00       21.211        5.151        7.207       21.545       12.344       22.540      464.173      152.386      508.071        0.083        0.056       21.828        4.523        0.043      335.623        6.380      867.663
11/07/2013  01:59:00       17.873        0.707       -3.930       16.837       14.548       16.958      283.468      211.657      287.585        0.056        0.039       17.887       10.950        0.375      335.626        6.385      867.716
11/07/2013  02:00:00       46.342       41.999       32.170       15.533       10.120       15.882      241.276      102.412      252.240        0.277        0.030       62.542        5.169        0.007      335.661        6.446      867.754
11/07/2013  02:01:00       59.601       41.718       30.664       11.049        9.359       12.251      122.078       87.584      150.093        0.330        0.018       72.751        5.135        0.005      335.679        6.474      867.743
11/07/2013  02:02:00       38.236       40.820        6.740       25.755       15.125       19.024      663.332      228.762      361.918        0.221        0.063       55.931       16.123        0.083      335.675        6.467      867.715
11/07/2013  02:03:00       11.309       19.016        3.244       19.248       21.872       18.634      370.481      478.379      347.233        0.085        0.060       22.125       11.967        0.293      335.669        6.456      867.703
11/07/2013  02:04:00       15.823        8.896       10.230       16.697       12.597       12.959      278.806      158.677      167.949        0.052        0.030       18.152        8.722        0.231      335.691        6.495      867.700
11/07/2013  02:05:00       36.870       19.997        6.918       20.074        8.633       11.516      402.980       74.526      132.619        0.121        0.031       41.944        6.818        0.026      335.652        6.428      867.674
11/07/2013  02:06:00       41.469       30.262       -0.486       11.680        8.907       10.672      136.427       79.326      113.888        0.148        0.016       51.337        6.681        0.017      335.671        6.460      867.641
11/07/2013  02:07:00        7.282       25.517       -7.081       16.264       12.509        5.600      264.508      156.487       31.364        0.060        0.023       26.536        5.855        0.049      335.685        6.484      867.626
11/07/2013  02:08:00      -10.124       42.865       -7.282        8.150        8.828        5.398       66.430       77.942       29.143        0.108        0.009       44.045        3.211        0.005      335.701        6.511      867.634
11/07/2013  02:09:00      -18.013       38.820       -1.518       20.036       21.749       15.449      401.442      473.002      238.682        0.147        0.056       42.795        9.541        0.050      335.673        6.463      867.640
11/07/2013  02:10:00        6.681       71.394       -6.823       18.320       43.041       15.713      335.621     1852.500      246.896        0.381        0.122       71.705       22.447        0.098      335.797        6.671      867.624
11/07/2013  02:11:00      -21.165       91.749      -11.129       24.309       52.766       16.512      590.937     2784.297      272.635        0.632        0.182       94.159       22.099        0.055      335.853        6.763      867.613
11/07/2013  02:12:00      -84.538       -7.325      -18.706       26.516       42.284       18.543      703.082     1787.903      343.851        0.519        0.142       84.855       14.977        0.031      335.683        6.480      867.629
11/07/2013  02:13:00     -105.061      -20.926        2.906       37.859       31.141       22.229     1433.282      969.773      494.131        0.719        0.145      107.125       21.203        0.039      335.687        6.488      867.662
11/07/2013  02:14:00     -119.753        1.304      -13.944       43.552       27.998       21.760     1896.791      783.879      473.496        0.885        0.158      119.760       20.328        0.029      335.743        6.580      867.657
11/07/2013  02:15:00      -91.254       26.335       -5.510       40.432       22.277       19.603     1634.709      496.272      384.281        0.578        0.126       94.978       21.512        0.051      335.725        6.552      867.642
11/07/2013  02:16:00      -51.064        6.438       -2.810       35.322       18.005       14.251     1247.621      324.163      203.103        0.222        0.089       51.468       15.493        0.091      335.781        6.645      867.633
11/07/2013  02:17:00      -32.195      -10.973       -7.863       21.561       14.603       10.213      464.885      213.255      104.297        0.100        0.039       34.014        9.824        0.083      335.855        6.767      867.630
11/07/2013  02:18:00      -81.247      -21.369       -4.095       20.504       29.281       10.612      420.417      857.399      112.623        0.423        0.070       84.010        7.540        0.008      335.809        6.689      867.611
11/07/2013  02:19:00      -27.356       23.433        1.325       16.575       17.212       12.383      274.746      296.236      153.332        0.101        0.036       36.021       10.730        0.089      335.811        6.692      867.559
11/07/2013  02:20:00       29.077       47.487        0.570       18.536       17.335       12.024      343.587      300.515      144.567        0.194        0.039       55.682       10.073        0.033      335.770        6.627      867.512
11/07/2013  02:21:00       14.425       48.602      -10.527       14.135       15.268        9.232      199.790      233.113       85.229        0.160        0.026       50.697        8.376        0.027      335.803        6.681      867.497
11/07/2013  02:22:00      -31.326        1.521      -11.380       37.116       50.207       11.419     1377.604     2520.711      130.385        0.257        0.201       31.363       14.395        0.211      335.959        6.941      867.533
11/07/2013  02:23:00      -69.205      -57.489        4.156       41.392       39.467       21.806     1713.285     1557.675      475.495        0.593        0.187       89.969       20.564        0.052      335.850        6.758      867.567
11/07/2013  02:24:00      -75.054      -35.068       -3.446       35.786       32.541       16.477     1280.660     1058.925      271.501        0.474        0.131       82.843       11.412        0.019      335.885        6.816      867.535
11/07/2013  02:25:00      -41.342       17.097        1.243       17.300       23.597       15.404      299.292      556.828      237.292        0.155        0.055       44.738       12.373        0.076      335.826        6.718      867.457
11/07/2013  02:26:00      -38.007       16.109       -4.505       23.851       19.651       14.494      568.846      386.158      210.087        0.144        0.058       41.280       11.378        0.076      335.903        6.847      867.409
11/07/2013  02:27:00      -33.815       -2.041        2.212       21.599       18.991       12.220      466.504      360.646      149.322        0.106        0.049       33.876        5.537        0.027      335.990        6.990      867.425
11/07/2013  02:28:00      -66.474      -51.966       -5.076       39.692       32.710       18.412     1575.449     1069.920      339.008        0.506        0.149       84.375       11.511        0.019      335.967        6.953      867.452
11/07/2013  02:29:00     -100.252      -51.843        1.155       48.530       27.812       20.164     2355.194      773.480      406.593        0.814        0.177      112.864       19.641        0.030      335.857        6.768      867.440
11/07/2013  02:30:00      -93.064        4.962       -9.692       26.170       23.969       10.031      684.883      574.528      100.623        0.507        0.068       93.196        8.601        0.009      335.821        6.711      867.377
11/07/2013  02:31:00      -74.634       59.707      -18.773       27.672       31.744       19.213      765.765     1007.681      369.149        0.581        0.107       95.578       19.657        0.042      335.771        6.627      867.295
11/07/2013  02:32:00     -102.052       64.529      -24.014       27.318       35.161       16.655      746.293     1236.310      277.404        0.871        0.113      120.742       16.767        0.019      335.804        6.680      867.254
11/07/2013  02:33:00     -140.044       26.408      -20.298       43.692       35.605       20.461     1908.970     1267.749      418.638        1.216        0.180      142.512       18.608        0.017      335.766        6.619      867.277
11/07/2013  02:34:00     -168.522      -20.747      -28.979       36.808       39.089       25.282     1354.855     1527.914      639.159        1.660        0.176      169.794       21.170        0.016      335.652        6.428      867.318
11/07/2013  02:35:00     -170.112      -44.884      -13.194       49.163       46.768       32.838     2416.984     2187.231     1078.348        1.840        0.284      175.934       25.973        0.022      335.659        6.440      867.331
11/07/2013  02:36:00     -145.927      -31.614      -13.338       38.897       51.453       28.123     1513.007     2647.398      790.928        1.371        0.248      149.312       19.668        0.017      335.576        6.302      867.315
11/07/2013  02:37:00     -102.649       14.202      -16.883       45.018       40.081       24.400     2026.579     1606.455      595.337        0.763        0.211      103.627       22.428        0.047      335.627        6.389      867.275
11/07/2013  02:38:00      -81.486       64.181      -16.601       42.498       47.504       26.083     1806.070     2256.676      680.320        0.789        0.237      103.727       27.063        0.068      335.761        6.611      867.236
11/07/2013  02:39:00     -104.695       27.263      -14.914       32.129       26.423       19.923     1032.241      698.160      396.927        0.703        0.106      108.187       12.651        0.014      335.817        6.703      867.232
11/07/2013  02:40:00     -124.557      -53.035      -19.011       42.710       40.838       19.695     1824.142     1667.707      387.910        1.128        0.194      135.378       18.858        0.019      335.771        6.625      867.251
11/07/2013  02:41:00     -103.067      -67.604       -8.091       49.053       31.700       23.755     2406.151     1004.919      564.320        0.962        0.199      123.260       15.906        0.017      335.746        6.586      867.265
11/07/2013  02:42:00     -100.573      -13.264       -8.874       35.759       28.635       16.970     1278.694      819.972      287.981        0.638        0.119      101.443       18.583        0.034      335.689        6.490      867.241
11/07/2013  02:43:00      -68.754       30.212       -4.399       24.654       20.957       16.638      607.807      439.186      276.809        0.349        0.066       75.099       10.885        0.021      335.699        6.507      867.173
11/07/2013  02:44:00      -66.872       80.751      -16.828       25.928       28.535       17.511      672.253      814.239      306.649        0.653        0.090      104.845       14.968        0.020      335.991        6.992      867.114
11/07/2013  02:45:00      -54.935       35.192      -14.516       18.866       20.597       10.726      355.935      424.216      115.039        0.268        0.045       65.240        5.343        0.007      336.019        7.040      867.094
11/07/2013  02:46:00      -29.772      -18.271       -9.049       21.740       17.973       11.618      472.623      323.013      134.979        0.112        0.047       34.931        7.392        0.045      335.989        6.989      867.099
11/07/2013  02:47:00      -29.862      -17.888        3.524       35.161       16.704       13.313     1236.277      279.032      177.243        0.146        0.085       34.810       10.956        0.099      335.974        6.965      867.103
11/07/2013  02:48:00      -47.972      -22.840       -6.684       22.083       11.748       10.248      487.660      138.007      105.022        0.180        0.037       53.131        9.013        0.029      335.843        6.747      867.078
11/07/2013  02:49:00      -40.910      -15.455       -6.695       14.901       18.420       10.620      222.026      339.294      112.778        0.132        0.034       43.732        8.750        0.040      335.847        6.753      867.048
11/07/2013  02:50:00      -43.097      -16.487       -5.890       10.668       12.044        7.847      113.807      145.067       61.575        0.124        0.016       46.143        6.878        0.022      335.786        6.653      867.045
11/07/2013  02:51:00      -73.045      -13.586       -8.725       28.983       17.832       12.767      840.018      317.986      162.988        0.346        0.066       74.298       13.564        0.033      335.860        6.776      867.046
11/07/2013  02:52:00     -122.858      -35.159      -10.528       27.670       29.032       18.536      765.655      842.837      343.590        0.920        0.098      127.790       18.106        0.020      335.833        6.730      867.043
11/07/2013  02:53:00     -113.446      -56.460      -11.569       28.820       18.848       14.902      830.587      355.255      222.072        0.880        0.070      126.719        5.898        0.002      335.790        6.659      867.042
11/07/2013  02:54:00      -86.662      -34.549       -5.403       15.242       12.743       13.453      232.307      162.373      180.986        0.465        0.029       93.295        8.719        0.009      335.805        6.684      867.028
11/07/2013  02:55:00      -63.668      -23.492      -10.946       11.581       10.463        8.911      134.123      109.467       79.406        0.252        0.016       67.864        6.094        0.008      335.878        6.805      866.996
11/07/2013  02:56:00      -74.845      -23.874       -7.065       16.861       14.588       10.989      284.290      212.804      120.757        0.342        0.031       78.560        6.395        0.007      335.904        6.849      866.952
11/07/2013  02:57:00     -120.596      -53.699      -11.807       16.885       17.639        9.140      285.089      311.129       83.535        0.912        0.034      132.011        6.177        0.002      335.866        6.784      866.945
11/07/2013  02:58:00     -100.590      -55.443       -1.578       27.060       25.891       17.889      732.247      670.324      320.002        0.746        0.086      114.857       15.853        0.019      335.846        6.750      866.972
11/07/2013  02:59:00      -75.902      -56.018        5.615       42.729       28.362       20.431     1825.767      804.378      417.442        0.599        0.152       94.336       22.143        0.055      335.925        6.883      866.991
11/07/2013  03:00:00      -74.889      -59.102       -0.938       34.938       31.645       20.099     1220.634     1001.426      403.952        0.586        0.131       95.401       13.540        0.020      336.032        7.060      866.983
11/07/2013  03:01:00     -132.913      -48.404      -10.290       16.516       19.322       11.366      272.772      373.330      129.177        1.044        0.039      141.453        8.469        0.004      336.008        7.022      866.948
11/07/2013  03:02:00     -106.625      -37.911       -6.773       20.285       18.642       17.637      411.462      347.516      311.050        0.696        0.054      113.165       13.757        0.015      335.990        6.991      866.928
11/07/2013  03:03:00     -129.038      -43.383        1.915       29.978       19.643       14.726      898.704      385.847      216.857        1.002        0.075      136.136       15.501        0.013      335.930        6.891      866.928
11/07/2013  03:04:00     -126.298      -59.205        1.124       27.288       22.063       17.032      744.643      486.755      290.087        1.049        0.076      139.486       15.984        0.013      335.935        6.899      866.928
11/07/2013  03:05:00     -117.254      -40.084       -3.987       21.733       19.666       13.133      472.320      386.739      172.482        0.820        0.052      123.916       10.303        0.007      335.855        6.766      866.912
11/07/2013  03:06:00     -127.638      -49.384        0.623       33.931       25.855       17.988     1151.279      668.504      323.561        1.044        0.107      136.859       16.992        0.015      335.813        6.695      866.892
11/07/2013  03:07:00     -147.701      -57.418       -0.247       37.853       28.900       16.843     1432.814      835.202      283.681        1.383        0.128      158.469       19.842        0.016      335.801        6.677      866.899
11/07/2013  03:08:00     -118.838      -65.554       -1.887       76.767       42.086       27.916     5893.169     1771.254      779.302        1.343        0.422      135.719       12.478        0.008      335.847        6.752      866.919
11/07/2013  03:09:00     -134.374      -96.336       -7.913       71.275       50.072       33.252     5080.161     2507.218     1105.686        1.804        0.435      165.339       35.781        0.047      335.861        6.775      866.933
11/07/2013  03:10:00      -81.593      -74.379        3.355       68.775       52.795       42.530     4729.995     2787.278     1808.843        1.076        0.466      110.407       45.376        0.169      335.871        6.794      866.931
11/07/2013  03:11:00      -58.600      -21.926       -3.140       33.822       30.945       19.308     1143.925      957.618      372.803        0.320        0.124       62.567       20.432        0.107      335.859        6.772      866.921
11/07/2013  03:12:00      -87.084      -11.789       -3.179       32.731       25.076       18.834     1071.324      628.781      354.732        0.489        0.103       87.879       16.426        0.035      335.848        6.756      866.913
11/07/2013  03:13:00     -108.718      -19.638       -9.713       28.927       17.658       12.777      836.748      311.801      163.245        0.681        0.066      110.477       13.360        0.015      335.884        6.814      866.903
11/07/2013  03:14:00     -149.434       -2.767      -13.182       34.740       22.122       16.638     1206.895      489.404      276.839        1.224        0.099      149.459       16.309        0.012      335.970        6.958      866.899
11/07/2013  03:15:00     -146.180      -21.736      -14.755       33.947       24.510       18.843     1152.397      600.731      355.052        1.208        0.105      147.788       18.242        0.015      335.896        6.835      866.897
11/07/2013  03:16:00     -105.867      -39.913       -6.018       34.101       25.457       17.126     1162.858      648.073      293.300        0.747        0.105      113.141       14.970        0.018      335.879        6.806      866.911
11/07/2013  03:17:00      -69.651      -58.038        6.900       54.663       42.073       27.298     2988.096     1770.104      745.194        0.688        0.275       90.662       31.619        0.122      335.928        6.887      866.930
11/07/2013  03:18:00     -115.257      -75.674       -0.749       49.973       33.742       28.595     2497.330     1138.535      817.693        1.173        0.223      137.880       24.291        0.031      336.059        7.106      866.926
11/07/2013  03:19:00      -98.084      -26.027       -4.026       30.050       32.622       21.929      903.010     1064.213      480.873        0.638        0.122      101.478       16.264        0.026      336.118        7.204      866.906
11/07/2013  03:20:00     -120.157      -29.025       -8.853       28.446       22.447       17.368      809.165      503.868      301.649        0.849        0.081      123.613       16.410        0.018      336.067        7.119      866.884
11/07/2013  03:21:00      -93.750      -55.157        2.893       39.462       29.765       17.245     1557.236      885.933      297.396        0.729        0.137      108.772       18.606        0.029      336.073        7.128      866.876
11/07/2013  03:22:00     -119.164      -63.419        1.724       52.754       46.442       25.141     2782.978     2156.875      632.058        1.190        0.279      134.989       25.322        0.035      336.057        7.103      866.896
11/07/2013  03:23:00     -149.237      -86.786       -0.328       43.172       41.565       22.635     1863.827     1727.648      512.349        1.695        0.205      172.637       21.867        0.016      336.072        7.128      866.913
11/07/2013  03:24:00     -134.099      -67.364       -5.320       38.970       49.063       22.066     1518.629     2407.131      486.896        1.348        0.221      150.068       21.326        0.020      336.128        7.221      866.920
11/07/2013  03:25:00      -82.328      -11.959       -6.583       34.084       24.561       14.296     1161.687      603.261      204.365        0.447        0.098       83.192       15.765        0.036      336.168        7.288      866.896
11/07/2013  03:26:00      -65.030       28.731       -6.847       32.888       16.530       15.573     1081.614      273.242      242.515        0.335        0.080       71.094       11.283        0.025      336.149        7.255      866.843
11/07/2013  03:27:00     -117.400       47.925       -8.327       44.576       29.016       20.431     1987.009      841.911      417.440        0.970        0.162      126.805        7.817        0.004      336.173        7.296      866.808
11/07/2013  03:28:00     -140.391       12.336       -8.585       51.127       42.550       29.349     2613.989     1810.540      861.392        1.261        0.264      140.932       26.746        0.036      336.076        7.136      866.812
11/07/2013  03:29:00     -144.577      -63.513      -13.908       49.473       46.032       30.403     2447.536     2118.988      924.332        1.531        0.275      157.913       27.233        0.030      336.049        7.089      866.843
11/07/2013  03:30:00     -174.955      -94.616       -5.449       52.282       52.309       36.187     2733.359     2736.200     1309.466        2.318        0.339      198.901       25.238        0.016      336.056        7.099      866.877
11/07/2013  03:31:00     -141.855     -107.895       -4.318       75.096       56.151       35.493     5639.367     3152.938     1259.726        2.092        0.503      178.225       35.936        0.041      336.152        7.259      866.879
11/07/2013  03:32:00      -74.030      -24.485       -4.415       25.015       29.352       21.267      625.746      861.553      452.295        0.402        0.097       77.974       18.205        0.055      336.189        7.323      866.837
11/07/2013  03:33:00      -30.296       -5.455       -1.857       15.375       15.157        5.473      236.403      229.740       29.948        0.072        0.025       30.783        6.102        0.039      336.240        7.409      866.789
11/07/2013  03:34:00      -40.748      -17.994       -5.017       14.405       12.385        7.017      207.492      153.394       49.236        0.121        0.021       44.545        5.839        0.017      336.315        7.533      866.776
11/07/2013  03:35:00      -67.523      -42.454      -11.217       19.591       14.901       11.261      383.816      222.046      126.815        0.361        0.037       79.761        7.659        0.009      336.341        7.577      866.795
11/07/2013  03:36:00      -89.495      -22.676      -10.244       15.446       13.774       10.248      238.594      189.714      105.029        0.458        0.027       92.323        8.423        0.008      336.229        7.390      866.827
11/07/2013  03:37:00      -88.112      -27.344       -8.401       13.781       13.978       13.065      189.926      195.390      170.706        0.457        0.028       92.257        9.960        0.012      336.190        7.325      866.854
11/07/2013  03:38:00      -54.502      -24.519       -2.009       22.926       18.662       11.927      525.579      348.283      142.245        0.230        0.051       59.763       10.974        0.034      336.116        7.201      866.855
11/07/2013  03:39:00      -39.643      -10.767      -10.779       16.320       15.253       11.467      266.351      232.643      131.502        0.122        0.032       41.079        5.005        0.015      336.097        7.171      866.845
11/07/2013  03:40:00      -26.968      -20.747       -1.574        9.063        7.340        6.594       82.143       53.879       43.482        0.067        0.009       34.025        3.884        0.013      336.204        7.348      866.829
11/07/2013  03:41:00      -50.237      -30.737       -1.538       12.068       16.465        5.612      145.647      271.101       31.499        0.196        0.022       58.895        6.430        0.012      336.247        7.422      866.830
11/07/2013  03:42:00      -50.150      -32.683        4.951       40.298       21.698       20.414     1623.942      470.800      416.745        0.306        0.126       59.860       21.080        0.124      336.163        7.280      866.856
11/07/2013  03:43:00      -59.131      -61.684        9.335       43.664       33.059       22.157     1906.574     1092.903      490.944        0.544        0.175       85.448       16.049        0.035      336.162        7.279      866.887
11/07/2013  03:44:00      -98.738      -77.728       -2.890       27.335       32.179       19.236      747.203     1035.492      370.017        0.898        0.108      125.662       17.195        0.019      336.293        7.498      866.894
11/07/2013  03:45:00      -39.225      -44.414       -6.326       25.801       24.867        6.618      665.685      618.385       43.795        0.244        0.066       59.255        4.756        0.006      336.464        7.784      866.851
11/07/2013  03:46:00        6.868        4.822       12.954       10.009        6.459       11.108      100.177       41.721      123.395        0.025        0.013        8.392        9.039        1.160      336.337        7.571      866.805
11/07/2013  03:47:00      -45.311      -32.039       -2.196       36.894       20.536       15.130     1361.179      421.730      228.929        0.255        0.101       55.494       15.085        0.074      336.374        7.633      866.790
11/07/2013  03:48:00      -55.308      -67.808        0.835       43.063       34.071       25.059     1854.433     1160.819      627.954        0.565        0.182       87.504       23.708        0.073      336.322        7.545      866.810
11/07/2013  03:49:00      -71.036      -68.643        1.405       30.835       26.623       18.016      950.782      708.782      324.581        0.587        0.099       98.783       18.019        0.033      336.271        7.461      866.831
11/07/2013  03:50:00      -75.430      -70.959       -2.720       15.950       24.488       15.785      254.412      599.681      249.168        0.592        0.055      103.561        9.226        0.008      336.234        7.400      866.831
11/07/2013  03:51:00      -83.239      -45.413       -9.571       26.021       19.618       16.534      677.077      384.851      273.382        0.521        0.067       94.821       11.376        0.014      336.230        7.393      866.824
11/07/2013  03:52:00      -38.315      -55.398       -6.726       15.291       18.071       11.182      233.801      326.564      125.045        0.263        0.034       67.357        5.860        0.008      336.239        7.407      866.810
11/07/2013  03:53:00      -34.811      -39.673       -5.628       17.468       10.950        9.384      305.127      119.902       88.061        0.167        0.026       52.781        5.240        0.010      336.316        7.537      866.815
11/07/2013  03:54:00      -31.324      -43.127        1.741       21.618       24.394       16.377      467.335      595.048      268.220        0.209        0.067       53.302        7.051        0.017      336.311        7.527      866.832
11/07/2013  03:55:00      -81.385      -49.285       -1.556       30.124       33.986       17.216      907.464     1155.037      296.380        0.571        0.118       95.145       17.199        0.033      336.261        7.446      866.840
11/07/2013  03:56:00      -87.963       -2.314       -2.690       24.095       14.971       12.257      580.571      224.134      150.238        0.435        0.048       87.994        7.122        0.007      336.181        7.310      866.840
11/07/2013  03:57:00      -99.256      -28.120       -8.859       21.949       28.392       13.121      481.766      806.077      172.154        0.609        0.073      103.162        6.777        0.004      336.100        7.174      866.845
11/07/2013  03:58:00       -8.853      -31.874       11.177       35.937       18.905       18.730     1291.441      357.386      350.827        0.161        0.100       33.080       11.734        0.126      336.181        7.309      866.848
11/07/2013  03:59:00       13.517       16.443       32.836       20.599       21.148       12.117      424.326      447.222      146.829        0.127        0.051       21.286       14.273        0.450      336.211        7.360      866.824
11/07/2013  04:00:00       25.476       54.623       54.137       31.881       28.009       31.342     1016.389      784.477      982.297        0.467        0.139       60.272       22.433        0.139      336.232        7.396      866.797
11/07/2013  04:01:00      -11.571        8.136       29.170       22.167       35.461       21.237      491.366     1257.459      450.992        0.163        0.110       14.145       25.474        3.243      336.317        7.537      866.796
11/07/2013  04:02:00      -88.064       -5.772       -6.241       46.348       22.833       15.243     2148.124      521.344      232.362        0.536        0.145       88.253       21.569        0.060      336.295        7.500      866.828
11/07/2013  04:03:00     -135.787      -64.483       -3.191       31.596       33.753       17.841      998.304     1139.278      318.310        1.253        0.123      150.320       10.277        0.005      336.182        7.311      866.852
11/07/2013  04:04:00      -50.693      -29.474        3.531       33.522       15.963       16.098     1123.753      254.826      259.145        0.254        0.082       58.639       18.080        0.095      336.159        7.272      866.846
11/07/2013  04:05:00       21.693        7.340       17.539       14.793       23.140       13.694      218.821      535.475      187.530        0.089        0.047       22.901        9.622        0.177      336.266        7.453      866.824
11/07/2013  04:06:00       25.601       62.830       30.660       16.963       27.769       26.337      287.757      771.125      693.651        0.365        0.088       67.846       10.933        0.026      336.223        7.381      866.792
11/07/2013  04:07:00       17.075       30.155       27.356       19.544       16.987       19.087      381.954      288.549      364.309        0.149        0.052       34.654       12.263        0.125      336.230        7.392      866.775
11/07/2013  04:08:00        7.818       21.378       13.239        9.491       10.833       15.198       90.085      117.353      230.977        0.057        0.022       22.762        7.259        0.102      336.230        7.393      866.760
11/07/2013  04:09:00       17.729       38.056       -2.727        6.605        8.830        5.925       43.628       77.965       35.101        0.096        0.008       41.983        4.731        0.013      336.238        7.406      866.736
11/07/2013  04:10:00       31.928       47.219       -3.316       12.917       12.900        6.790      166.837      166.398       46.107        0.182        0.019       57.000        6.078        0.011      336.228        7.389      866.701
11/07/2013  04:11:00       59.979       41.860       -0.527       25.306       12.724       12.298      640.413      161.904      151.245        0.315        0.048       73.142        9.387        0.016      336.179        7.305      866.685
11/07/2013  04:12:00       49.427       23.299       20.203       36.546       22.326       17.635     1335.605      498.431      310.991        0.277        0.107       54.643       19.366        0.126      336.231        7.396      866.707
11/07/2013  04:13:00        3.585      -28.658        6.099       13.761       28.456       19.744      189.375      809.754      389.825        0.113        0.069       28.882       11.580        0.161      336.311        7.526      866.752
11/07/2013  04:14:00       11.564      -20.593      -12.504       34.535       24.202       17.903     1192.647      585.726      320.525        0.141        0.105       23.618       14.193        0.361      336.359        7.609      866.793
11/07/2013  04:15:00      -21.495       -8.106       14.555       24.140       19.322       18.829      582.716      373.356      354.514        0.102        0.066       22.973       15.475        0.454      336.359        7.608      866.802
11/07/2013  04:16:00      -17.809       -9.438       15.947       24.180       20.387       13.580      584.688      415.634      184.414        0.092        0.059       20.156        8.496        0.178      336.350        7.592      866.791
11/07/2013  04:17:00        1.495        0.346       17.001       16.027       12.097        6.240      256.863      146.344       38.934        0.037        0.022        1.535        1.675        1.191      336.334        7.566      866.764
11/07/2013  04:18:00       23.555       31.256        7.234       11.467       15.327        9.685      131.502      234.929       93.803        0.102        0.023       39.138        5.520        0.020      336.316        7.536      866.729
11/07/2013  04:19:00       26.182       54.864       -6.559       15.592       23.015       13.710      243.121      529.675      187.953        0.235        0.048       60.791       11.261        0.034      336.293        7.498      866.709
11/07/2013  04:20:00       21.518        4.515        1.483       23.546       22.808       11.729      554.402      520.219      137.573        0.085        0.061       21.986        9.394        0.183      336.309        7.524      866.708
11/07/2013  04:21:00       14.954      -33.388      -15.223       13.900       11.276       12.644      193.210      127.137      159.877        0.103        0.024       36.583        9.894        0.073      336.305        7.518      866.740
11/07/2013  04:22:00      -10.064      -15.479        4.523       35.007       25.673       22.174     1225.517      659.107      491.685        0.137        0.119       18.463       15.311        0.688      336.345        7.586      866.758
11/07/2013  04:23:00      -54.328      -25.111        2.262       33.477       26.141       14.530     1120.734      683.371      211.135        0.280        0.101       59.851        8.192        0.019      336.325        7.551      866.757
11/07/2013  04:24:00      -20.550       21.348        8.723       20.454       17.746       10.903      418.381      314.910      118.881        0.090        0.043       29.632       11.440        0.149      336.221        7.377      866.732
11/07/2013  04:25:00       30.473       73.561       -4.453       27.843       30.800       15.902      775.216      948.636      252.885        0.417        0.099       79.623       20.514        0.066      336.179        7.306      866.681
11/07/2013  04:26:00       48.402       89.319      -14.158       20.076       28.589       22.126      403.059      817.319      489.551        0.612        0.085      101.591       19.133        0.035      336.193        7.331      866.640
11/07/2013  04:27:00       22.411      101.578      -13.682       23.506       28.394       17.211      552.529      806.194      296.206        0.633        0.083      104.021       14.592        0.020      336.217        7.371      866.622
11/07/2013  04:28:00       -1.978      129.694      -19.302       17.554       29.814       12.803      308.146      888.857      163.928        0.928        0.068      129.709        4.849        0.001      336.116        7.203      866.632
11/07/2013  04:29:00       -9.443      101.760      -11.788       22.734       21.030       16.863      516.848      442.269      284.349        0.591        0.062      102.197        8.574        0.007      336.100        7.174      866.660
11/07/2013  04:30:00       16.897       38.718        9.198       21.265       21.137       15.816      452.200      446.793      250.154        0.151        0.057       42.244       14.201        0.113      336.069        7.124      866.673
11/07/2013  04:31:00       62.989       41.254        6.893       16.432       17.050       16.063      270.013      290.697      258.018        0.327        0.041       75.296       12.311        0.027      336.043        7.080      866.679
11/07/2013  04:32:00       50.691       41.584        0.553       27.533       20.006       16.388      758.068      400.220      268.554        0.286        0.071       65.565       13.319        0.041      336.017        7.035      866.676
11/07/2013  04:33:00       26.649       22.602       -4.497       12.144       14.702       11.412      147.484      216.161      130.223        0.087        0.025       34.943        9.700        0.077      336.011        7.022      866.680
11/07/2013  04:34:00        9.957       23.695       -2.552        8.355       11.850        8.884       69.800      140.417       78.929        0.048        0.014       25.702        4.067        0.025      336.018        7.037      866.703
11/07/2013  04:35:00       19.725       12.729        1.555        8.819        6.047        6.577       77.773       36.565       43.254        0.036        0.008       23.476        4.643        0.039      336.009        7.018      866.716
11/07/2013  04:36:00       38.953       40.746       -0.852        7.640       10.436        7.509       58.371      108.902       56.387        0.170        0.011       56.370        4.181        0.006      336.014        7.028      866.706
11/07/2013  04:37:00       41.653       47.258       -5.472       18.242       16.096       14.128      332.759      259.067      199.599        0.239        0.040       62.995       10.875        0.030      336.003        7.011      866.705
11/07/2013  04:38:00       55.571       25.706        4.224       12.841       14.871       10.865      164.895      221.139      118.053        0.214        0.025       61.229        5.086        0.007      336.005        7.015      866.694
11/07/2013  04:39:00       34.990        6.530        6.523       25.657       17.653       12.839      658.270      311.629      164.839        0.122        0.057       35.594       15.636        0.193      336.042        7.077      866.702
11/07/2013  04:40:00       35.182       -8.274        6.692       17.717        6.346        8.644      313.901       40.274       74.714        0.089        0.021       36.142        6.694        0.034      336.060        7.108      866.722
11/07/2013  04:41:00       47.723       -2.983       14.026       24.225       13.367       15.769      586.867      178.687      248.672        0.175        0.051       47.816       10.673        0.050      336.100        7.175      866.732
11/07/2013  04:42:00       53.857       23.805       35.814       19.999       14.999       20.079      399.976      224.961      403.156        0.289        0.051       58.884       13.118        0.050      336.082        7.145      866.725
11/07/2013  04:43:00       56.001       20.816       24.378       26.508       24.227       23.372      702.684      586.930      546.229        0.300        0.092       59.744       20.753        0.121      336.088        7.154      866.720
11/07/2013  04:44:00       38.673       24.651       22.639       25.311       28.486       18.739      640.627      811.433      351.140        0.221        0.090       45.862       13.587        0.088      336.093        7.163      866.742
11/07/2013  04:45:00       30.104       27.712       35.084       24.354       27.768       23.694      593.129      771.075      561.419        0.242        0.096       40.917       21.673        0.281      336.064        7.114      866.772
11/07/2013  04:46:00       19.800       39.193       48.560       23.362       25.499       16.484      545.793      650.191      271.708        0.288        0.073       43.911       16.863        0.147      336.078        7.137      866.782
11/07/2013  04:47:00        8.241       42.141       49.921       18.827       37.173       16.728      354.462     1381.852      279.818        0.318        0.101       42.939       17.962        0.175      336.086        7.151      866.754
11/07/2013  04:48:00       75.716       50.357       11.501       20.132       16.942       18.534      405.304      287.037      343.519        0.472        0.052       90.933        8.961        0.010      336.018        7.038      866.717
11/07/2013  04:49:00       33.148       25.978        4.688       21.581       17.858       16.479      465.731      318.892      271.549        0.143        0.053       42.115       12.941        0.094      336.007        7.019      866.708
11/07/2013  04:50:00       39.027       49.330        1.791       19.563       14.986       13.369      382.698      224.570      178.721        0.237        0.039       62.901       10.472        0.028      335.950        6.922      866.711
11/07/2013  04:51:00       63.711       47.192        7.075       16.528       12.678       14.984      273.173      160.743      224.526        0.350        0.033       79.285       11.936        0.023      335.965        6.951      866.720
11/07/2013  04:52:00       96.315       54.487        4.912       30.455       19.547       15.556      927.486      382.077      241.992        0.691        0.078      110.659        8.570        0.006      335.950        6.921      866.701
11/07/2013  04:53:00       99.272       54.615       14.101       26.118       21.286       21.112      682.165      453.076      445.707        0.731        0.079      113.303       13.228        0.014      335.949        6.923      866.679
11/07/2013  04:54:00       81.985       38.441        7.341       30.788       25.953       21.469      947.884      673.570      460.938        0.517        0.104       90.550       15.566        0.030      335.907        6.853      866.660
11/07/2013  04:55:00        3.582       13.354       -1.040       28.678       18.498       12.140      822.425      342.194      147.388        0.075        0.066       13.826        7.420        0.288      335.887        6.818      866.656
11/07/2013  04:56:00        1.287       26.034       -8.212       11.487       17.502        5.356      131.942      306.328       28.690        0.061        0.023       26.066        5.357        0.042      335.904        6.850      866.665
11/07/2013  04:57:00       16.225        0.191       -0.384       14.415        8.573        8.008      207.788       73.498       64.136        0.030        0.017       16.226        4.827        0.088      335.944        6.915      866.674
11/07/2013  04:58:00       32.857       -1.742       14.874       16.496       15.339       12.905      272.122      235.282      166.532        0.099        0.034       32.903        7.920        0.058      335.985        6.985      866.656
11/07/2013  04:59:00       30.892       19.686       24.888       29.773       16.596       13.577      886.447      275.432      184.328        0.165        0.067       36.631        5.793        0.025      336.023        7.045      866.632
11/07/2013  05:00:00       14.369      -28.249       13.288       25.730       34.418       16.716      662.042     1184.597      279.436        0.165        0.106       31.693       20.090        0.402      336.040        7.075      866.617
11/07/2013  05:01:00       -3.224       27.696       17.477       14.004       23.400       13.961      196.108      547.571      194.917        0.101        0.047       27.883       10.596        0.144      336.014        7.031      866.608
11/07/2013  05:02:00       18.104       28.817       23.558       23.569       18.283       21.007      555.477      334.258      441.303        0.152        0.067       34.032       18.237        0.287      336.013        7.029      866.588
11/07/2013  05:03:00       32.535       40.844        0.673       20.782       28.201       15.991      431.880      795.279      255.723        0.210        0.074       52.218       16.076        0.095      335.964        6.948      866.565
11/07/2013  05:04:00       29.670       58.760      -10.511       18.779       22.673       17.475      352.654      514.049      305.385        0.281        0.059       65.826       14.439        0.048      335.924        6.881      866.542
11/07/2013  05:05:00       35.678       23.434        2.903       16.804       14.987       12.494      282.380      224.606      156.111        0.125        0.033       42.686        6.916        0.026      335.940        6.905      866.556
11/07/2013  05:06:00       15.299        8.167       -4.403        9.486        6.547        5.668       89.981       42.868       32.125        0.024        0.008       17.343        3.569        0.042      335.951        6.925      866.587
11/07/2013  05:07:00      -19.897       14.925       -0.817       20.252        8.410        4.469      410.159       70.726       19.973        0.056        0.025       24.873        4.470        0.032      335.951        6.928      866.614
11/07/2013  05:08:00      -28.330       22.758       -0.013       11.991        9.565        7.112      143.792       91.485       50.580        0.080        0.014       36.339        6.291        0.030      335.894        6.832      866.612
11/07/2013  05:09:00      -58.813       15.076       -3.934       21.997       11.255        9.152      483.847      126.683       83.759        0.220        0.035       60.715        6.585        0.012      335.953        6.930      866.603
11/07/2013  05:10:00      -66.493      -17.067       -8.515       12.864       18.424        7.658      165.477      339.440       58.647        0.267        0.028       68.648        5.334        0.006      335.985        6.983      866.625
11/07/2013  05:11:00      -30.096        0.241        1.340       12.454       10.790        6.846      155.107      116.429       46.862        0.061        0.016       30.097        2.796        0.009      336.028        7.054      866.639
11/07/2013  05:12:00       25.058       40.412       13.275       14.120       13.411       12.574      199.368      179.861      158.104        0.149        0.027       47.550        6.942        0.021      336.001        7.008      866.615
11/07/2013  05:13:00       56.069       42.595       -3.599       26.789       19.362       16.066      717.657      374.884      258.114        0.316        0.068       70.413       13.833        0.039      335.990        6.990      866.584
11/07/2013  05:14:00        3.716       69.052      -12.159       15.074       35.879       14.984      227.235     1287.316      224.529        0.333        0.087       69.152       18.177        0.069      335.994        6.999      866.590
11/07/2013  05:15:00      -84.461       21.754       -5.169       48.491       38.972       17.370     2351.353     1518.785      301.720        0.590        0.209       87.217       17.188        0.039      336.014        7.030      866.624
11/07/2013  05:16:00     -187.270      -26.412      -16.904       58.484       48.312       27.576     3420.341     2334.044      760.462        2.128        0.326      189.124       20.725        0.012      335.879        6.805      866.688
11/07/2013  05:17:00     -111.217      -23.161      -16.270       59.419       33.230       25.089     3530.587     1104.200      629.437        0.922        0.263      113.603       16.506        0.021      335.904        6.848      866.731
11/07/2013  05:18:00      -48.959       27.199       -7.362       26.903       36.014       12.979      723.762     1296.974      168.466        0.269        0.109       56.007       13.565        0.059      335.859        6.774      866.719
11/07/2013  05:19:00       25.364       88.740       -4.295       33.463       28.137       24.606     1119.748      791.705      605.467        0.553        0.126       92.293       21.534        0.054      335.939        6.906      866.654
11/07/2013  05:20:00       28.888       88.580      -13.076       25.177       26.732       22.091      633.897      714.608      487.991        0.534        0.092       93.172       16.776        0.032      335.898        6.839      866.622
11/07/2013  05:21:00      -39.779        5.597      -11.023       55.861       46.034       12.508     3120.490     2119.141      156.438        0.356        0.270       40.171       13.628        0.115      335.938        6.907      866.663
11/07/2013  05:22:00     -143.988      -80.671       -8.784       47.207       41.451       28.566     2228.517     1718.215      815.999        1.604        0.238      165.047       14.743        0.008      335.970        6.957      866.700
11/07/2013  05:23:00     -157.121      -27.657      -13.084       45.549       32.705       16.758     2074.709     1069.644      280.820        1.452        0.171      159.536       12.480        0.006      335.887        6.820      866.712
11/07/2013  05:24:00      -60.036       17.486      -10.249       25.563       28.088       14.630      653.456      788.945      214.023        0.284        0.083       62.530       10.012        0.026      335.872        6.795      866.671
11/07/2013  05:25:00      -15.793       20.471       -3.100       15.479       12.812        8.378      239.595      164.156       70.189        0.058        0.024       25.855        8.099        0.098      335.973        6.962      866.623
11/07/2013  05:26:00      -31.477       -9.524        2.245       26.333       16.057       14.922      693.452      257.827      222.655        0.113        0.059       32.886       15.582        0.225      336.015        7.032      866.624
11/07/2013  05:27:00      -87.625      -29.101      -13.234       24.498       22.705       13.281      600.136      515.507      176.384        0.500        0.065       92.331        9.539        0.011      335.951        6.926      866.663
11/07/2013  05:28:00      -27.408      -46.105        9.365       35.610       29.412       19.417     1268.095      865.089      377.035        0.274        0.126       53.637       20.664        0.148      335.995        6.999      866.698
11/07/2013  05:29:00        2.378      -46.764       -4.280       15.623       10.719       13.033      244.063      114.903      169.852        0.137        0.026       46.825       10.356        0.049      336.039        7.073      866.682
11/07/2013  05:30:00       57.052       37.529       34.924       63.762       41.614       29.604     4065.603     1731.730      876.383        0.628        0.334       68.289       22.670        0.110      336.102        7.179      866.598
11/07/2013  05:31:00       87.880       55.317       60.919       69.486       54.331       46.697     4828.320     2951.851     2180.637        1.223        0.498      103.840       47.511        0.209      336.084        7.148      866.478
11/07/2013  05:32:00       31.425       15.139       22.712       38.576       32.375       34.141     1488.129     1048.149     1165.612        0.272        0.185       34.881       18.736        0.289      336.028        7.054      866.451
11/07/2013  05:33:00      -68.063        1.922      -12.319       43.435       28.407       21.992     1886.602      806.979      483.656        0.398        0.159       68.091       17.958        0.070      335.972        6.961      866.503
11/07/2013  05:34:00     -132.559      -27.340      -13.410       42.795       27.231       16.730     1831.375      741.514      279.883        1.068        0.143      135.349       11.838        0.008      336.032        7.061      866.561
11/07/2013  05:35:00        7.262      -27.447       -3.620       31.980       26.357       13.959     1022.744      694.692      194.846        0.137        0.096       28.392       11.799        0.173      336.188        7.322      866.562
11/07/2013  05:36:00       29.674       52.062       15.580       23.149       13.873       13.338      535.867      192.467      177.897        0.237        0.045       59.925        8.937        0.022      336.111        7.193      866.509
11/07/2013  05:37:00       20.133       24.329        2.683       22.092       16.713       12.170      488.076      279.311      148.100        0.096        0.046       31.579        8.440        0.071      336.199        7.340      866.444
11/07/2013  05:38:00      -86.621       23.099      -15.171       40.530       20.263        8.549     1642.680      410.588       73.083        0.520        0.106       89.648        5.369        0.004      336.035        7.065      866.452
11/07/2013  05:39:00     -146.840      -69.536       -4.199       66.157       40.769       24.752     4376.775     1662.109      612.666        1.653        0.333      162.472       22.290        0.019      336.029        7.055      866.530
11/07/2013  05:40:00     -155.886      -74.433       -0.951       79.918       40.408       30.057     6386.866     1632.808      903.396        1.938        0.446      172.745       41.792        0.059      336.004        7.012      866.600
11/07/2013  05:41:00     -144.895      -20.875       -6.484       57.417       32.211       24.437     3296.708     1037.524      597.171        1.320        0.247      146.391       29.395        0.040      336.005        7.015      866.577
11/07/2013  05:42:00      -51.105       32.082        0.518       30.696       24.085       17.499      942.248      580.103      306.207        0.273        0.091       60.341       19.251        0.102      336.002        7.011      866.490
11/07/2013  05:43:00      -73.918       76.870      -16.712       24.141       31.222       15.972      582.811      974.815      255.109        0.673        0.091      106.643       14.215        0.018      336.023        7.047      866.437
11/07/2013  05:44:00     -100.633        8.798      -20.910       28.193       34.006       13.611      794.822     1156.389      185.251        0.639        0.107      101.017       11.256        0.012      336.067        7.119      866.474
11/07/2013  05:45:00      -71.526      -42.335      -11.902       55.286       18.966       18.721     3056.498      359.695      350.457        0.541        0.188       83.116       20.637        0.062      336.034        7.063      866.553
11/07/2013  05:46:00      -54.850     -123.808        2.880       48.093       70.793       28.941     2312.952     5011.651      837.566        1.325        0.408      135.414       29.453        0.047      336.039        7.073      866.613
11/07/2013  05:47:00      -26.219     -143.964       -8.142       64.142       83.166       32.550     4114.151     6916.548     1059.521        1.678        0.605      146.332       29.296        0.040      336.194        7.329      866.583
11/07/2013  05:48:00      -15.603       38.009       66.083       32.471       40.678       32.604     1054.374     1654.682     1063.018        0.491        0.189       41.087       24.123        0.345      336.116        7.203      866.476
11/07/2013  05:49:00        1.498       72.774       82.437       30.589       34.086       29.739      935.681     1161.825      884.420        0.754        0.149       72.789       28.247        0.151      336.167        7.287      866.395
11/07/2013  05:50:00        1.527       27.116       20.585       24.679       28.106       25.047      609.047      789.929      627.360        0.159        0.101       27.159       15.066        0.308      336.206        7.353      866.384
11/07/2013  05:51:00      -90.822       -0.996      -10.485       37.899       24.386       12.232     1436.320      594.675      149.620        0.527        0.109       90.828       11.551        0.016      336.261        7.443      866.427
11/07/2013  05:52:00     -103.331      -55.028        3.928       63.455       34.826       23.279     4026.563     1212.821      541.909        0.975        0.289      117.070       26.699        0.052      336.247        7.422      866.487
11/07/2013  05:53:00      -19.346      -63.185        7.310       38.079       63.729       16.872     1450.025     4061.388      284.665        0.511        0.290       66.081       21.651        0.107      336.363        7.614      866.502
11/07/2013  05:54:00      -29.530      -68.798       -0.212       29.073       51.411       24.519      845.239     2643.142      601.165        0.485        0.204       74.868       27.101        0.131      336.388        7.657      866.461
11/07/2013  05:55:00      -42.263       -8.692        1.170       29.114       19.523       16.100      847.605      381.148      259.224        0.168        0.074       43.148       16.405        0.145      336.415        7.700      866.397
11/07/2013  05:56:00      -47.471        6.112        1.142       19.089       15.773        9.916      364.402      248.793       98.325        0.150        0.036       47.863       12.110        0.064      336.465        7.785      866.351
11/07/2013  05:57:00      -11.705       15.742        6.319       15.281       16.758       11.520      233.495      280.834      132.708        0.054        0.032       19.617       10.721        0.299      336.301        7.511      866.330
11/07/2013  05:58:00       18.088       17.429        6.873       26.881        9.604        8.920      722.607       92.242       79.571        0.079        0.045       25.118        7.388        0.087      336.311        7.528      866.319
11/07/2013  05:59:00       55.861       32.545        3.345       13.556        8.758       11.284      183.761       76.710      127.321        0.229        0.019       64.650        7.488        0.013      336.371        7.633      866.297
11/07/2013  06:00:00       25.506       16.164       21.654       32.371       17.629       23.372     1047.890      310.769      546.252        0.164        0.095       30.196       25.068        0.689      336.314        7.530      866.291
11/07/2013  06:01:00        1.702       15.628       38.600       12.856       30.836       21.871      165.271      950.883      478.355        0.167        0.080       15.720       23.854        2.302      336.224        7.382      866.306
11/07/2013  06:02:00       21.974      -70.383        9.222       33.762       48.441       31.580     1139.844     2346.526      997.290        0.500        0.224       73.733       33.309        0.204      336.319        7.541      866.317
11/07/2013  06:03:00       15.383        3.830       41.361       34.502       34.501       18.848     1190.411     1190.335      355.248        0.235        0.137       15.853       12.162        0.589      336.276        7.469      866.300
11/07/2013  06:04:00       19.995       37.659       76.306       38.332       47.156       32.773     1469.368     2223.691     1074.051        0.620        0.238       42.638       24.887        0.341      336.272        7.461      866.278
11/07/2013  06:05:00       35.724      -42.856       21.967       37.938       67.764       47.110     1439.299     4591.920     2219.340        0.592        0.413       55.793       48.688        0.762      336.291        7.493      866.257
11/07/2013  06:06:00      -40.228      -28.323       -5.714       35.673       29.554       15.608     1272.587      873.434      243.619        0.242        0.119       49.198        9.660        0.039      336.325        7.551      866.270
11/07/2013  06:07:00      -87.507      -14.404        1.276       53.649       44.980       31.880     2878.260     2023.171     1016.330        0.689        0.296       88.684       31.073        0.123      336.285        7.484      866.312
11/07/2013  06:08:00      -80.918      -38.921        2.721       46.448       33.059       18.061     2157.422     1092.900      326.211        0.582        0.179       89.792       19.696        0.048      336.303        7.514      866.357
11/07/2013  06:09:00       -3.118      -21.269       28.521       46.886       26.831       27.455     2198.326      719.909      753.765        0.247        0.184       21.497       23.884        1.234      336.291        7.493      866.370
11/07/2013  06:10:00       10.514       24.052       23.342       25.965       33.995       19.982      674.164     1155.661      399.279        0.173        0.111       26.249       16.998        0.419      336.198        7.338      866.335
11/07/2013  06:11:00      -20.460       41.170        3.514       23.244       36.129       24.451      540.294     1305.269      597.836        0.228        0.122       45.974       27.262        0.352      336.124        7.214      866.269
11/07/2013  06:12:00      -47.309       85.659      -13.394       32.746       30.248       19.138     1072.329      914.924      366.250        0.605        0.118       97.855       13.973        0.020      336.137        7.236      866.231
11/07/2013  06:13:00     -104.280       26.051      -16.038       26.179       20.358       17.501      685.364      414.430      306.296        0.661        0.070      107.485       11.027        0.011      335.984        6.981      866.259
11/07/2013  06:14:00     -111.258      -15.708       -7.407       38.731       41.689       21.951     1500.060     1737.952      481.845        0.820        0.186      112.362       20.398        0.033      335.926        6.884      866.313
11/07/2013  06:15:00     -108.208      -16.622      -13.375       39.642       22.367       14.181     1571.513      500.297      201.095        0.722        0.114      109.477       16.128        0.022      335.928        6.889      866.351
11/07/2013  06:16:00      -28.186       -3.102       -1.709       22.722       20.892       14.329      516.303      436.463      205.316        0.098        0.058       28.356       10.966        0.150      335.971        6.960      866.351
11/07/2013  06:17:00       -4.364       18.578        6.771       22.483       24.092       10.932      505.500      580.413      119.516        0.081        0.060       19.083       12.921        0.458      336.063        7.113      866.329
11/07/2013  06:18:00       14.539       39.417      -10.453        9.333       15.239        6.858       87.111      232.235       47.026        0.112        0.018       42.013        7.165        0.029      336.041        7.075      866.328
11/07/2013  06:19:00        2.726       -0.760        0.342        6.595        5.921        5.323       43.497       35.062       28.333        0.006        0.005        2.830        3.021        1.140      336.056        7.099      866.328
11/07/2013  06:20:00       16.943       16.939        4.716       11.461       14.738        9.311      131.355      217.196       86.701        0.052        0.022       23.958       10.850        0.205      336.054        7.096      866.304
11/07/2013  06:21:00      101.921       41.167       15.197       29.360       15.390       17.947      861.980      236.840      322.103        0.687        0.071      109.921        8.525        0.006      336.029        7.055      866.241
11/07/2013  06:22:00       74.962       82.518       58.259       43.971       46.775       39.663     1933.407     2187.860     1573.160        1.076        0.285      111.483       30.454        0.075      335.931        6.891      866.203
11/07/2013  06:23:00       13.313       73.040       75.477       42.853       35.888       33.793     1836.356     1287.953     1141.943        0.774        0.213       74.243       29.441        0.157      335.876        6.801      866.250
11/07/2013  06:24:00       -1.739       31.177       40.297       16.327       19.433       12.521      266.568      377.652      156.779        0.170        0.040       31.225       12.435        0.159      335.909        6.857      866.332
11/07/2013  06:25:00      -10.757       40.932        8.822       11.656       23.586       13.088      135.865      556.302      171.303        0.137        0.043       42.322       14.633        0.120      335.953        6.929      866.380
11/07/2013  06:26:00      -35.454       68.796       -5.356       32.989       30.707       17.594     1088.283      942.927      309.564        0.418        0.117       77.395       18.265        0.056      336.072        7.128      866.383
11/07/2013  06:27:00      -32.496       79.208       -1.055       30.104       34.442       20.045      906.249     1186.244      401.788        0.491        0.125       85.615       21.949        0.066      336.145        7.249      866.371
11/07/2013  06:28:00      -12.064       66.735       -6.438       26.860       35.879       19.038      721.477     1287.319      362.450        0.351        0.119       67.817       20.023        0.087      336.228        7.388      866.380
11/07/2013  06:29:00       22.009       74.074       -2.033       22.558       20.885       17.479      508.859      436.182      305.508        0.361        0.063       77.274       11.931        0.024      335.998        7.006      866.372
11/07/2013  06:30:00       34.559       66.311       -2.753       20.041       28.835       14.505      401.637      831.484      210.382        0.352        0.072       74.776       15.675        0.044      335.895        6.833      866.335
11/07/2013  06:31:00       29.092       40.584       -1.956       19.640       20.603       11.686      385.728      424.480      136.555        0.172        0.047       49.933       10.384        0.043      335.861        6.777      866.322
11/07/2013  06:32:00       42.267       26.459       -6.735       19.867       26.552       15.763      394.682      705.006      248.461        0.194        0.067       49.866       13.625        0.075      335.796        6.669      866.333
11/07/2013  06:33:00       34.335        9.022        5.490       14.637       13.680       15.459      214.252      187.132      238.975        0.097        0.032       35.501        7.049        0.039      335.827        6.719      866.341
11/07/2013  06:34:00       13.502       20.254       -1.196       12.002        9.923       15.017      144.060       98.460      225.522        0.053        0.023       24.342        9.561        0.154      335.823        6.713      866.315
11/07/2013  06:35:00       15.279       29.886       -3.999       13.211       24.966        8.883      174.517      623.300       78.909        0.101        0.044       33.565        7.313        0.047      335.852        6.764      866.263
11/07/2013  06:36:00       18.816       49.009       -1.360       15.026       15.208       11.955      225.775      231.285      142.933        0.168        0.030       52.497       12.984        0.061      335.902        6.845      866.229
11/07/2013  06:37:00       29.006       24.559        4.255       14.898       19.744       11.465      221.950      389.839      131.436        0.110        0.037       38.006        6.600        0.030      335.904        6.849      866.219
11/07/2013  06:38:00       50.767       23.912        2.642       13.114        9.060       13.775      171.981       82.092      189.747        0.180        0.022       56.116        2.983        0.003      335.953        6.929      866.214
11/07/2013  06:39:00       19.742       43.605       -3.251       15.465       18.384       11.769      239.164      337.987      138.510        0.151        0.036       47.866        8.201        0.029      335.939        6.906      866.192
11/07/2013  06:40:00        6.208       89.185      -17.755       12.968       11.883        5.414      168.178      141.196       29.309        0.432        0.017       89.400        2.861        0.001      335.973        6.963      866.179
11/07/2013  06:41:00      -42.911       21.284      -10.466       36.689       55.918       10.646     1346.100     3126.791      113.341        0.349        0.229       47.899       17.121        0.128      335.980        6.975      866.221
11/07/2013  06:42:00      -88.393      -36.215       -8.267       59.721       27.364       16.755     3566.641      748.802      280.730        0.689        0.230       95.524       17.811        0.035      335.935        6.899      866.290
11/07/2013  06:43:00      -76.846      -43.458       -6.720       38.702       35.062       15.872     1497.882     1229.322      251.924        0.541        0.149       88.283       19.327        0.048      335.989        6.988      866.356
11/07/2013  06:44:00      -17.674      -51.663        1.078       36.020       30.090       20.026     1297.454      905.398      401.042        0.279        0.130       54.602       15.053        0.076      336.065        7.117      866.387
11/07/2013  06:45:00      -45.191      -30.273       -3.097       26.403       24.187       13.793      697.138      585.024      190.236        0.222        0.074       54.394       14.689        0.073      336.038        7.073      866.369
11/07/2013  06:46:00      -53.841      -56.009       -2.645       17.961       17.330       11.385      322.602      300.321      129.625        0.340        0.038       77.691        8.933        0.013      336.041        7.076      866.345
11/07/2013  06:47:00      -50.842      -39.779       -8.058       20.035       12.651        8.939      401.403      160.037       79.897        0.244        0.032       64.554        7.063        0.012      336.093        7.163      866.350
11/07/2013  06:48:00      -41.514      -24.782        6.463       25.701       17.676       16.271      660.540      312.445      264.754        0.181        0.062       48.348       15.918        0.108      336.078        7.139      866.374
11/07/2013  06:49:00      -57.329        3.089        3.925       19.003       23.275       12.171      361.106      541.738      148.125        0.218        0.053       57.412       13.723        0.057      336.035        7.064      866.377
11/07/2013  06:50:00      -86.583       37.372      -12.187       21.930       18.917       14.191      480.938      357.861      201.385        0.504        0.052       94.304       10.727        0.013      336.002        7.012      866.359
11/07/2013  06:51:00      -58.368       31.486       -1.637       22.221       15.806       19.266      493.766      249.817      371.160        0.276        0.056       66.319       15.096        0.052      335.976        6.968      866.323
11/07/2013  06:52:00      -47.420        2.570       -7.545       14.074       24.125       12.361      198.085      582.036      152.785        0.162        0.047       47.490        9.963        0.044      335.986        6.984      866.298
11/07/2013  06:53:00      -48.821      -22.245       -3.935       21.785       10.279       11.730      474.588      105.655      137.592        0.181        0.036       53.650        9.068        0.029      336.026        7.050      866.288
11/07/2013  06:54:00      -59.267      -27.495      -12.959       14.691       12.685       13.002      215.813      160.921      169.060        0.249        0.027       65.334        9.991        0.023      336.022        7.045      866.316
11/07/2013  06:55:00      -92.591       -4.898      -12.384       27.536       11.016       11.765      758.213      121.349      138.411        0.488        0.051       92.721        7.562        0.007      335.980        6.975      866.332
11/07/2013  06:56:00     -121.651        4.186      -15.820       28.914       23.149       18.220      835.996      535.856      331.981        0.839        0.085      121.723       16.291        0.018      335.898        6.838      866.312
11/07/2013  06:57:00     -111.996       12.944      -14.839       31.377       19.748       15.080      984.503      389.986      227.414        0.727        0.080      112.741       13.491        0.014      335.817        6.704      866.279
11/07/2013  06:58:00      -51.892       -2.136       -5.738       22.315       21.536       13.543      497.938      463.794      183.417        0.194        0.057       51.936       13.763        0.070      335.845        6.750      866.279
11/07/2013  06:59:00      -78.156      -36.689       -5.706       16.208       13.034        7.426      262.706      169.895       55.146        0.399        0.024       86.339        5.014        0.003      335.962        6.945      866.302
11/07/2013  07:00:00     -109.014      -36.721       -4.475       20.712       33.889       14.805      429.006     1148.454      219.183        0.752        0.090      115.032       12.510        0.012      335.930        6.893      866.308
11/07/2013  07:01:00      -46.339      -41.963        7.279       42.598       23.446       21.553     1814.602      549.719      464.516        0.339        0.141       62.515       22.978        0.135      335.954        6.929      866.302
11/07/2013  07:02:00      -30.684      -10.772       -1.709       14.509       12.121       11.785      210.502      146.922      138.888        0.078        0.025       32.520        6.329        0.038      335.918        6.870      866.315
11/07/2013  07:03:00      -51.610      -24.026       -6.847       25.550       18.277        8.779      652.805      334.048       77.070        0.218        0.053       56.928       10.708        0.035      335.974        6.964      866.321
11/07/2013  07:04:00     -106.555      -53.604       -4.341       21.893       19.197       11.899      479.312      368.512      141.582        0.762        0.049      119.279        5.078        0.002      336.012        7.029      866.289
11/07/2013  07:05:00      -94.057      -43.580       -2.357       23.813       29.101       11.196      567.073      846.896      125.360        0.615        0.077      103.663        5.591        0.003      336.022        7.044      866.248
11/07/2013  07:06:00      -78.897       -4.048       -8.655       32.072       20.462       15.173     1028.639      418.692      230.213        0.400        0.084       79.000       16.287        0.043      335.892        6.828      866.226
11/07/2013  07:07:00      -70.050       -4.037       -6.609       30.366       20.690       13.791      922.065      428.081      190.195        0.325        0.077       70.166       14.682        0.044      335.946        6.918      866.233
11/07/2013  07:08:00     -132.621      -34.809      -12.969       31.858       34.563       19.526     1014.940     1194.628      381.249        1.078        0.130      137.113       12.186        0.008      335.944        6.914      866.244
11/07/2013  07:09:00     -108.935      -49.756       -7.314       34.166       23.701       22.195     1167.319      561.729      492.624        0.831        0.111      119.760       16.456        0.019      335.943        6.913      866.258
11/07/2013  07:10:00      -31.917       12.984       13.483       50.944       26.180       17.932     2595.339      685.418      321.568        0.249        0.180       34.457       26.437        0.589      335.992        6.994      866.240
11/07/2013  07:11:00       46.232       54.364        8.284       19.920       20.285       20.679      396.811      411.474      427.625        0.320        0.062       71.364       18.725        0.069      335.974        6.964      866.189
11/07/2013  07:12:00       28.718       96.850      -19.242       23.057       33.711       14.960      531.647     1136.423      223.805        0.623        0.095      101.019       17.270        0.029      336.035        7.067      866.168
11/07/2013  07:13:00      -85.305       18.377      -11.357       61.653       60.349       20.566     3801.114     3641.982      422.948        0.780        0.393       87.262       15.330        0.031      336.087        7.153      866.249
11/07/2013  07:14:00     -162.400      -82.003       -6.298       97.231       53.761       34.562     9453.930     2890.249     1194.548        2.334        0.677      181.930       36.506        0.040      335.914        6.862      866.352
11/07/2013  07:15:00      -85.705      -68.377       -6.492       55.786       39.551       29.559     3112.063     1564.293      873.754        0.881        0.278      109.639       26.285        0.057      335.984        6.980      866.354
11/07/2013  07:16:00       35.660       15.025        8.318       39.086       35.289       23.276     1527.681     1245.281      541.763        0.244        0.166       38.696       15.337        0.157      336.065        7.117      866.255
11/07/2013  07:17:00      137.211       72.628       -1.429       41.949       44.634       35.901     1759.726     1992.162     1288.879        1.457        0.252      155.247       19.798        0.016      336.085        7.150      866.136
11/07/2013  07:18:00        9.712       13.505       -5.084       33.610       26.494       23.804     1129.610      701.947      566.625        0.135        0.120       16.634       16.041        0.930      336.149        7.256      866.166
11/07/2013  07:19:00      -96.439      -31.584       -5.595       60.586       33.457       28.555     3670.631     1119.348      815.365        0.797        0.280      101.479       26.709        0.069      336.134        7.232      866.318
11/07/2013  07:20:00      -65.126      -62.042        7.972       73.676       60.207       43.827     5428.191     3624.849     1920.806        0.956        0.549       89.948       38.462        0.183      336.190        7.324      866.430
11/07/2013  07:21:00     -148.612      -86.583        4.208       55.115       54.305       33.045     3037.672     2949.058     1091.983        1.834        0.354      171.994       31.792        0.034      336.169        7.289      866.418
11/07/2013  07:22:00      -20.664        3.387       13.419       51.998       40.077       35.470     2703.815     1606.130     1258.123        0.309        0.278       20.940       24.461        1.365      336.076        7.135      866.307
11/07/2013  07:23:00      -52.197        6.124        0.400       29.720       16.943       17.661      883.261      287.082      311.915        0.212        0.074       52.555       11.591        0.049      336.052        7.093      866.256
11/07/2013  07:24:00     -125.892      -79.803      -12.670       61.773       38.147       34.006     3815.915     1455.200     1156.440        1.440        0.321      149.055       15.769        0.011      336.055        7.098      866.331
11/07/2013  07:25:00     -135.126     -103.887        7.551       82.034       61.416       44.187     6729.658     3771.886     1952.465        2.078        0.623      170.445       42.884        0.063      336.007        7.019      866.412
11/07/2013  07:26:00      -49.729      -51.293       12.635       44.216       47.936       28.144     1955.047     2297.860      792.061        0.515        0.252       71.441       25.118        0.124      336.078        7.139      866.426
11/07/2013  07:27:00      -34.085       -1.603        1.781       13.006       11.510        9.091      169.144      132.484       82.651        0.078        0.019       34.123        7.179        0.044      336.100        7.174      866.366
11/07/2013  07:28:00      -68.166      -21.980       -8.119       13.197       19.726        9.324      174.153      389.102       86.935        0.292        0.033       71.622        5.764        0.006      336.122        7.210      866.329
11/07/2013  07:29:00       -0.276      -41.589       12.933       39.510       24.330       27.272     1561.042      591.950      743.761        0.240        0.145       41.590       24.343        0.343      336.222        7.378      866.349
11/07/2013  07:30:00      -56.063      -40.057        5.662       34.281       21.097       19.098     1175.188      445.069      364.723        0.338        0.099       68.903       18.594        0.073      336.261        7.445      866.350
11/07/2013  07:31:00      -48.143      -16.006        9.006       39.971       16.609       12.337     1597.642      275.859      152.192        0.234        0.101       50.734       17.316        0.116      336.319        7.540      866.315
11/07/2013  07:32:00       17.343       -5.121       10.431       10.574       10.590       12.333      111.803      112.138      152.103        0.041        0.019       18.084        9.447        0.273      336.291        7.493      866.291
11/07/2013  07:33:00       -0.600       -5.096        4.565       11.055        5.686        7.956      122.215       32.330       63.302        0.013        0.011        5.131        5.626        1.202      336.372        7.631      866.332
11/07/2013  07:34:00       -5.632      -17.180        7.267       24.148       16.002       17.882      583.143      256.050      319.782        0.077        0.058       18.080       13.810        0.583      336.462        7.779      866.384
11/07/2013  07:35:00      -16.663       -2.393       15.359       30.720       33.358       23.987      943.710     1112.783      575.357        0.158        0.132       16.834       24.580        2.132      336.364        7.617      866.400
11/07/2013  07:36:00       57.975       55.756       15.873       22.111       21.552       23.853      488.898      464.498      568.984        0.412        0.076       80.435       17.108        0.045      336.324        7.549      866.365
11/07/2013  07:37:00       82.215       37.146        3.094       42.730       31.376       18.169     1825.831      984.452      330.109        0.564        0.157       90.217       20.885        0.054      336.344        7.583      866.342
11/07/2013  07:38:00       -7.843       -2.886       -4.462       15.850       18.734       15.754      251.231      350.957      248.180        0.047        0.043        8.357        9.812        1.379      336.377        7.638      866.369
11/07/2013  07:39:00      -61.320        0.169       -7.452       23.646       15.843       14.053      559.127      251.006      197.478        0.241        0.050       61.321       14.548        0.056      336.298        7.505      866.391
11/07/2013  07:40:00      -32.246        8.523        0.005       24.193       12.930       11.009      585.310      167.185      121.200        0.099        0.044       33.353       11.293        0.115      336.318        7.538      866.401
11/07/2013  07:41:00        9.148       18.371       12.394       13.030       10.154        9.368      169.789      103.102       87.750        0.047        0.018       20.523        6.705        0.107      336.298        7.506      866.376
11/07/2013  07:42:00       34.794       33.967        6.465       14.775       12.556       14.027      218.314      157.644      196.749        0.149        0.029       48.624        9.942        0.042      336.297        7.505      866.321
11/07/2013  07:43:00        5.356       32.720        3.715       22.173       11.881       13.059      491.636      141.162      170.537        0.096        0.040       33.156       13.474        0.165      336.295        7.503      866.305
11/07/2013  07:44:00      -48.687      -20.624       -0.544       34.586       28.388       12.219     1196.166      805.852      149.307        0.247        0.108       52.875        6.101        0.013      336.396        7.669      866.342
11/07/2013  07:45:00      -40.164      -24.523        6.907       34.350       18.503       16.127     1179.955      342.362      260.066        0.202        0.089       47.058       11.524        0.060      336.388        7.656      866.380
11/07/2013  07:46:00      -17.247      -11.439       10.118       27.899       19.391       15.172      778.358      376.013      230.204        0.096        0.069       20.696       14.371        0.482      336.425        7.718      866.375
11/07/2013  07:47:00       41.572       52.006        6.824       21.105       21.241       15.609      445.441      451.169      243.651        0.281        0.057       66.580       10.799        0.026      336.361        7.612      866.353
11/07/2013  07:48:00        1.991       69.132      -16.437       16.789       18.817       11.080      281.882      354.077      122.766        0.291        0.038       69.160        8.466        0.015      336.378        7.640      866.338
11/07/2013  07:49:00      -28.836       48.542       -4.277       18.897       35.679       12.499      357.104     1272.978      156.214        0.250        0.089       56.461       14.195        0.063      336.486        7.820      866.349
11/07/2013  07:50:00      -52.563        4.287       -8.883       18.797       23.734       10.605      353.331      563.311      112.467        0.194        0.051       52.738       12.581        0.057      336.358        7.607      866.370
11/07/2013  07:51:00      -54.985       22.796      -15.662       11.639       10.439       10.278      135.461      108.976      105.636        0.207        0.018       59.523        5.900        0.010      336.354        7.602      866.386
11/07/2013  07:52:00      -69.515        4.640       -6.587       26.633       15.363       11.660      709.328      236.012      135.954        0.299        0.054       69.669       10.885        0.024      336.255        7.433      866.356
11/07/2013  07:53:00      -83.581        6.748      -12.060       23.358       21.283       13.327      545.595      452.983      177.610        0.418        0.059       83.853        3.913        0.002      336.212        7.362      866.348
11/07/2013  07:54:00      -61.203      -23.641        2.764       28.552       19.701       18.285      815.231      388.147      334.325        0.292        0.077       65.610       17.671        0.073      336.227        7.386      866.372
11/07/2013  07:55:00      -13.438      -12.981       12.090       14.800       21.647       17.310      219.041      468.607      299.646        0.074        0.049       18.683       13.429        0.517      336.330        7.560      866.397
11/07/2013  07:56:00      -17.956       -3.454       -1.576       16.397       11.048        9.046      268.874      122.064       81.837        0.040        0.024       18.285        5.663        0.096      336.320        7.542      866.392
11/07/2013  07:57:00      -57.562       -9.420        0.005       24.124       20.117       10.817      581.952      404.700      117.008        0.225        0.055       58.328       10.024        0.030      336.352        7.597      866.411
11/07/2013  07:58:00      -89.840      -29.220       -5.432       31.515       23.819       11.558      993.224      567.363      133.580        0.532        0.085       94.473       13.828        0.021      336.349        7.590      866.425
11/07/2013  07:59:00      -31.223      -26.461        5.915       20.232       15.160       16.187      409.318      229.832      262.030        0.131        0.045       40.928       10.811        0.070      336.405        7.686      866.424
11/07/2013  08:00:00      -36.653       -6.602        1.029       13.062       15.569       12.296      170.608      242.389      151.201        0.098        0.028       37.242        5.523        0.022      336.449        7.758      866.425
11/07/2013  08:01:00      -14.311      -14.841        0.748       14.052       18.433        8.564      197.465      339.773       73.341        0.052        0.031       20.617        4.916        0.057      336.486        7.821      866.402
11/07/2013  08:02:00      -51.963        6.741       -5.053       23.770       16.003       10.036      565.020      256.108      100.727        0.185        0.046       52.399       12.203        0.054      336.429        7.725      866.360
11/07/2013  08:03:00      -94.884      -47.481       -1.667       34.556       26.256       18.482     1194.104      689.374      341.599        0.674        0.111      106.101       17.750        0.028      336.443        7.748      866.382
11/07/2013  08:04:00      -12.174      -35.267       11.859       29.714       27.201       16.511      882.945      739.910      272.616        0.171        0.095       37.309       16.667        0.200      336.518        7.874      866.415
11/07/2013  08:05:00       -8.224      -61.159      -10.205       19.992       14.402       14.358      399.664      207.407      206.146        0.236        0.041       61.710        8.832        0.020      336.467        7.789      866.394
11/07/2013  08:06:00      -45.187      -44.332       -5.924       16.990       18.050        9.870      288.659      325.818       97.426        0.238        0.036       63.302        6.604        0.011      336.450        7.761      866.386
11/07/2013  08:07:00      -52.195        3.390       -0.219       23.180       22.104       14.841      537.329      488.567      220.266        0.199        0.062       52.304       14.620        0.078      336.470        7.794      866.339
11/07/2013  08:08:00      -13.398       27.119        8.727       17.067       17.113       17.860      291.290      292.840      318.995        0.095        0.045       30.249       15.513        0.263      336.530        7.895      866.271
11/07/2013  08:09:00      -68.570        5.972       -9.601       44.059       35.552       11.160     1941.224     1263.975      124.536        0.408        0.166       68.829       16.883        0.060      336.491        7.829      866.326
11/07/2013  08:10:00     -118.133      -54.598      -11.394       53.626       26.213       29.637     2875.711      687.100      878.345        1.075        0.222      130.139       27.923        0.046      336.481        7.811      866.426
11/07/2013  08:11:00      -52.767      -22.079        3.705       44.486       36.820       22.492     1979.026     1355.727      505.897        0.356        0.192       57.199       28.421        0.247      336.531        7.896      866.433
11/07/2013  08:12:00       58.422       50.506       13.631       29.634       13.593       22.677      878.168      184.774      514.264        0.386        0.079       77.227       18.325        0.056      336.499        7.842      866.345
11/07/2013  08:13:00       44.907       28.546       -6.318       24.783       20.100       16.370      614.219      403.991      267.971        0.208        0.064       53.212       11.148        0.044      336.528        7.891      866.297
11/07/2013  08:14:00      -53.761        9.801       -8.897       30.119       25.094       17.113      907.162      629.701      292.852        0.245        0.091       54.647       11.193        0.042      336.536        7.904      866.366
11/07/2013  08:15:00      -64.350       11.636       -5.312       29.498       27.479       16.083      870.145      755.087      258.649        0.309        0.094       65.393       14.449        0.049      336.583        7.982      866.414
11/07/2013  08:16:00      -52.414       17.599      -12.209       21.340       12.453        7.499      455.394      155.071       56.232        0.194        0.033       55.289        5.074        0.008      336.513        7.865      866.403
11/07/2013  08:17:00        0.041        4.387        5.849       10.822       11.636       12.617      117.125      135.404      159.193        0.023        0.021        4.387        8.287        3.568      336.664        8.118      866.398
11/07/2013  08:18:00      -47.671        4.392       -8.015       30.488       20.592        9.922      929.522      424.025       98.455        0.190        0.073       47.873        4.525        0.009      336.537        7.907      866.434
11/07/2013  08:19:00     -100.915       -7.322       -5.596       29.074       17.014       14.778      845.300      289.485      218.395        0.581        0.068      101.180       15.212        0.023      336.609        8.026      866.486
11/07/2013  08:20:00      -44.561        0.639        3.735       36.915       21.408       12.606     1362.708      458.316      158.919        0.199        0.099       44.566       16.661        0.140      336.671        8.129      866.485
11/07/2013  08:21:00      -35.059       22.449      -11.540       10.903       17.987        6.969      118.868      323.550       48.566        0.118        0.025       41.630        6.139        0.022      336.603        8.017      866.449
11/07/2013  08:22:00      -68.105        5.246       -6.173       21.598       17.906       11.980      466.466      320.607      143.532        0.282        0.047       68.307       10.040        0.022      336.679        8.144      866.451
11/07/2013  08:23:00      -69.549       14.478      -12.113       25.398       23.287       11.286      645.062      542.294      127.384        0.325        0.066       71.040       15.060        0.045      336.631        8.064      866.454
11/07/2013  08:24:00      -12.558        9.721        8.378       28.896       14.609       15.248      834.978      213.425      232.502        0.080        0.064       15.880       18.670        1.382      336.697        8.174      866.425
11/07/2013  08:25:00       68.264       65.559        0.611       31.782       31.232       20.212     1010.103      975.467      408.527        0.568        0.120       94.647       19.033        0.040      336.660        8.111      866.381
11/07/2013  08:26:00      168.189       75.546        5.609       54.844       41.317       30.427     3007.894     1707.063      925.799        1.983        0.282      184.376       24.722        0.018      336.633        8.066      866.317
11/07/2013  08:27:00      101.218       42.324        4.340       48.091       38.062       30.346     2312.772     1448.689      920.907        0.837        0.234      109.710       23.389        0.045      336.617        8.042      866.365
11/07/2013  08:28:00        1.523        1.604        0.722       18.497       13.754       17.711      342.147      189.186      313.677        0.043        0.042        2.211       10.529       22.672      336.579        7.976      866.504
11/07/2013  08:29:00       -9.676       -3.912        0.870       13.314        6.771       10.764      177.265       45.848      115.872        0.022        0.017       10.436        8.465        0.658      336.633        8.065      866.569
11/07/2013  08:30:00       17.659       43.933       11.071       27.049       32.010       21.773      731.631     1024.639      474.054        0.230        0.112       47.349       18.928        0.160      336.649        8.093      866.507
11/07/2013  08:31:00       51.464      122.099      -10.708       32.682       43.584       33.076     1068.094     1899.582     1094.037        1.087        0.203      132.501       30.274        0.052      336.639        8.080      866.379
11/07/2013  08:32:00       38.967       43.064       -1.603       49.781       53.249       30.930     2478.170     2835.418      956.677        0.482        0.314       58.076       24.653        0.180      336.663        8.118      866.324
11/07/2013  08:33:00       -2.316       -2.925      -10.253       20.500       16.198       13.175      420.265      262.362      173.568        0.049        0.043        3.731        6.568        3.099      336.698        8.176      866.422
11/07/2013  08:34:00       -8.437      -27.526      -13.844       31.440       31.443       18.547      988.478      988.642      343.984        0.167        0.116       28.790       14.390        0.250      336.769        8.294      866.509
11/07/2013  08:35:00       18.149        6.182       26.154       17.177       13.304       12.090      295.054      176.992      146.178        0.083        0.031       19.173       10.244        0.285      336.849        8.426      866.453
11/07/2013  08:36:00       39.604       63.077       -0.127       20.076       37.435       20.502      403.044     1401.385      420.335        0.389        0.111       74.479       22.096        0.088      336.719        8.212      866.335
11/07/2013  08:37:00       13.337       74.084      -18.267       14.714       21.946       10.107      216.499      481.629      102.154        0.340        0.040       75.275        9.430        0.016      336.705        8.189      866.310
11/07/2013  08:38:00      -46.764      -14.669       -7.865       34.872       17.702        9.180     1216.067      313.377       84.266        0.204        0.081       49.011       11.029        0.051      336.802        8.349      866.360
11/07/2013  08:39:00      -62.975      -42.306       -9.969       31.443       17.089       13.155      988.665      292.037      173.066        0.365        0.073       75.865       13.590        0.032      336.838        8.410      866.376
11/07/2013  08:40:00      -48.689       19.193       -7.875       11.772       17.858        8.693      138.574      318.897       75.567        0.167        0.027       52.335        4.241        0.007      336.861        8.444      866.351
11/07/2013  08:41:00      -17.270        0.131        2.566       12.308       15.427        4.405      151.480      237.989       19.406        0.036        0.020       17.270        7.187        0.173      336.857        8.440      866.316
11/07/2013  08:42:00       16.129       10.323       14.040       18.089       16.264       11.267      327.202      264.515      126.936        0.064        0.036       19.149        9.236        0.233      336.908        8.524      866.288
11/07/2013  08:43:00       40.616       54.573       34.747       35.982       19.103       23.199     1294.676      364.916      538.189        0.402        0.110       68.029       18.939        0.078      336.844        8.418      866.282
11/07/2013  08:44:00       68.505       50.053       10.259       17.045       17.929       20.759      290.548      321.433      430.936        0.417        0.052       84.843       11.534        0.018      336.812        8.366      866.267
11/07/2013  08:45:00       63.866       35.481        0.840       14.782       19.706       18.100      218.519      388.319      327.605        0.314        0.047       73.060        9.272        0.016      336.760        8.278      866.269
11/07/2013  08:46:00       39.837       21.405       -1.840       13.600       11.699       10.312      184.965      136.868      106.340        0.124        0.021       45.224        7.356        0.026      336.749        8.257      866.291
11/07/2013  08:47:00       29.664       20.419        0.074        6.242        9.934        6.992       38.966       98.684       48.890        0.074        0.009       36.012        3.010        0.007      336.772        8.299      866.304
11/07/2013  08:48:00       27.417       23.356        3.609        9.786        9.458       12.842       95.758       89.447      164.917        0.083        0.018       36.016        6.215        0.030      336.778        8.309      866.292
11/07/2013  08:49:00       41.452       28.379        2.261        6.865        6.112       10.377       47.132       37.359      107.675        0.136        0.010       50.236        5.872        0.014      336.737        8.237      866.284
11/07/2013  08:50:00       19.639        9.162       -0.993       12.205        6.619        3.281      148.957       43.811       10.768        0.034        0.010       21.671        4.665        0.046      336.791        8.332      866.297
11/07/2013  08:51:00       -8.529       12.103        1.454        8.020        5.915        3.789       64.314       34.992       14.359        0.017        0.006       14.806        3.599        0.059      336.828        8.393      866.301
11/07/2013  08:52:00      -40.512       15.073       -2.200       11.472        6.979        5.595      131.606       48.712       31.304        0.104        0.011       43.225        4.536        0.011      336.824        8.386      866.285
11/07/2013  08:53:00      -63.555       12.068       -3.876       12.829        9.175        7.995      164.588       84.189       63.921        0.226        0.016       64.690        6.046        0.009      336.894        8.502      866.275
11/07/2013  08:54:00      -29.443       -2.533       -4.828       20.053       13.161       10.834      402.108      173.221      117.375        0.079        0.035       29.552       10.442        0.125      337.040        8.745      866.252
11/07/2013  08:55:00       19.510       60.159       43.484       28.021       29.884       33.074      785.202      893.049     1093.920        0.433        0.139       63.243       26.260        0.172      336.923        8.550      866.233
11/07/2013  08:56:00       36.909       85.869       75.218       46.995       22.182       24.425     2208.505      492.024      596.561        0.884        0.165       93.466       27.255        0.085      336.958        8.608      866.230
11/07/2013  08:57:00       52.546       49.120       33.124       16.822       18.520       21.688      282.993      342.989      470.373        0.368        0.055       71.930       15.227        0.045      336.937        8.572      866.251
11/07/2013  08:58:00       36.195       44.281        9.473       18.773       25.304       15.932      352.429      640.296      253.814        0.230        0.062       57.191       10.981        0.037      336.916        8.537      866.269
11/07/2013  08:59:00       33.524       63.227      -11.513       21.674       34.823       18.718      469.741     1212.651      350.349        0.364        0.102       71.564       18.713        0.068      336.861        8.448      866.292
11/07/2013  09:00:00       28.822       54.477       -1.334       26.500       33.072       17.123      702.224     1093.727      293.182        0.294        0.104       61.632       16.472        0.071      336.837        8.407      866.317
11/07/2013  09:01:00       30.768       47.749       -4.214       18.869       25.792       17.087      356.028      665.249      291.975        0.228        0.066       56.803       14.210        0.063      336.833        8.403      866.325
11/07/2013  09:02:00       37.174       42.843       -3.118       21.656       23.962       16.770      468.997      574.193      281.221        0.228        0.066       56.722       14.147        0.062      336.865        8.453      866.319
11/07/2013  09:03:00       32.984       18.908        1.872       22.450       20.961       15.328      504.013      439.349      234.959        0.131        0.059       38.020        7.970        0.044      336.881        8.479      866.318
11/07/2013  09:04:00       78.608       40.124        0.994       12.214       13.280       12.146      149.175      176.348      147.525        0.413        0.024       88.256        6.978        0.006      336.857        8.441      866.336
11/07/2013  09:05:00       53.723       43.131       31.539       22.888       23.944       26.389      523.861      573.318      696.356        0.377        0.090       68.895       13.832        0.040      336.910        8.529      866.351
11/07/2013  09:06:00       16.795       56.145       61.218       34.028       40.192       28.803     1157.882     1615.390      829.640        0.539        0.180       58.603       30.420        0.269      336.941        8.579      866.349
11/07/2013  09:07:00       23.136       55.251       61.158       45.471       30.700       31.099     2067.591      942.480      967.121        0.565        0.199       59.899       31.596        0.278      336.902        8.515      866.306
11/07/2013  09:08:00       49.732       18.681        4.425       30.910       27.670       24.694      955.421      765.647      609.774        0.259        0.117       53.125       14.483        0.074      336.842        8.415      866.263
11/07/2013  09:09:00       63.142       34.138       11.452       14.039       20.380       17.777      197.090      415.332      316.008        0.311        0.046       71.780        8.823        0.015      336.821        8.382      866.256
11/07/2013  09:10:00      106.079       50.174       16.460       25.347       17.199       20.739      642.496      295.791      430.123        0.770        0.068      117.347       14.139        0.015      336.832        8.396      866.250
11/07/2013  09:11:00      104.098       68.356       35.754       58.087       43.261       45.881     3374.125     1871.512     2105.083        1.207        0.368      124.535       39.020        0.098      336.858        8.443      866.204
11/07/2013  09:12:00       59.190      100.957       95.694       46.139       47.430       29.585     2128.811     2249.561      875.274        1.405        0.263      117.029       31.925        0.074      336.886        8.488      866.185
11/07/2013  09:13:00       52.664       55.711       37.563       40.526       39.589       34.998     1642.325     1567.322     1224.858        0.586        0.222       76.663       23.202        0.092      336.873        8.466      866.244
11/07/2013  09:14:00       80.676     -102.886       -3.895       44.097       40.835       18.557     1944.577     1667.490      344.359        1.053        0.198      130.744       19.888        0.023      336.928        8.558      866.295
11/07/2013  09:15:00       42.122       13.775       55.245       61.558       72.656       50.715     3789.342     5278.826     2572.006        0.833        0.582       44.317       58.380        1.735      336.907        8.522      866.276
11/07/2013  09:16:00       41.657      -13.027       51.689       51.851       86.034       58.607     2688.506     7401.854     3434.836        0.905        0.676       43.646       62.480        2.049      336.959        8.609      866.201
11/07/2013  09:17:00       21.144       15.056       35.107       25.113       47.224       34.016      630.639     2230.095     1157.088        0.296        0.201       25.957       20.489        0.623      336.982        8.646      866.160
11/07/2013  09:18:00       51.143      -72.804       10.010       34.944       75.205       30.930     1221.078     5655.833      956.636        0.792        0.392       88.972       43.520        0.239      336.945        8.587      866.194
11/07/2013  09:19:00       44.613      -60.603       17.051       34.951       49.053       33.703     1221.562     2406.173     1135.895        0.536        0.238       75.253       38.179        0.257      336.992        8.664      866.232
11/07/2013  09:20:00       31.171        7.904       49.659       32.062       43.933       26.242     1027.968     1930.066      688.660        0.357        0.182       32.157       27.264        0.719      336.964        8.619      866.233
11/07/2013  09:21:00       24.131        6.036       28.582       24.751       44.419       21.245      612.610     1973.082      451.350        0.224        0.152       24.874       10.426        0.176      336.970        8.627      866.210
11/07/2013  09:22:00       86.302       78.521       60.380       40.431       32.755       28.554     1634.645     1072.920      815.329        1.039        0.176      116.677       13.186        0.013      336.906        8.520      866.176
11/07/2013  09:23:00       46.204       31.172       34.193       39.217       27.170       25.445     1538.010      738.188      647.456        0.360        0.146       55.736       23.238        0.174      336.932        8.565      866.177
11/07/2013  09:24:00       -4.729        4.521       25.039       24.022       37.304       20.663      577.057     1391.583      426.969        0.153        0.120        6.542       22.490       11.817      337.054        8.768      866.207
11/07/2013  09:25:00       32.216      -83.201        4.380       39.748       31.785       29.292     1579.895     1010.289      858.017        0.571        0.172       89.221       24.792        0.077      337.178        8.978      866.240
11/07/2013  09:26:00       38.242       -5.489       36.415       44.799       75.076       45.037     2006.915     5636.455     2028.309        0.624        0.484       38.634       53.861        1.944      337.107        8.858      866.257
11/07/2013  09:27:00       57.725      -36.816       18.221       54.404       71.855       39.868     2959.746     5163.173     1589.470        0.736        0.486       68.466       48.081        0.493      337.083        8.816      866.269
11/07/2013  09:28:00       31.550      -13.986       35.413       43.020       82.282       40.585     1850.734     6770.259     1647.151        0.635        0.513       34.512       53.919        2.441      337.068        8.793      866.277
11/07/2013  09:29:00       43.039       24.655       41.560       36.237       31.537       29.486     1313.132      994.580      869.434        0.368        0.159       49.601       22.785        0.211      337.069        8.793      866.283
11/07/2013  09:30:00       97.273       37.215       15.369       24.125       16.398       22.337      582.022      268.905      498.951        0.622        0.067      104.149       13.553        0.017      337.027        8.723      866.276
11/07/2013  09:31:00      102.604       48.693       -0.443       23.218       20.284       16.110      539.071      411.430      259.542        0.705        0.061      113.572        7.818        0.005      336.944        8.584      866.261
11/07/2013  09:32:00      107.813       57.714       -0.329       32.427       27.317       23.874     1051.530      746.200      569.954        0.866        0.118      122.289        8.992        0.005      336.960        8.611      866.223
11/07/2013  09:33:00      125.019       87.921       -4.323       26.837       23.243       22.007      720.236      540.257      484.309        1.256        0.087      152.839       13.941        0.008      336.924        8.552      866.162
11/07/2013  09:34:00       97.543       49.752       -3.414       33.309       26.898       25.378     1109.466      723.523      644.030        0.724        0.124      109.498       15.156        0.019      336.932        8.563      866.124
11/07/2013  09:35:00       82.718       62.924       18.953       32.344       24.426       23.538     1046.108      596.606      554.043        0.668        0.110      103.931       22.112        0.045      336.934        8.567      866.132
11/07/2013  09:36:00       79.415       45.974        9.299       29.872       31.575       17.560      892.361      996.953      308.340        0.535        0.110       91.762       10.676        0.014      336.939        8.575      866.146
11/07/2013  09:37:00       38.382        4.967        6.908       21.161       15.665       17.724      447.780      245.387      314.145        0.128        0.050       38.702        8.995        0.054      337.016        8.705      866.149
11/07/2013  09:38:00       49.070        8.134       30.268       32.303       22.157       26.686     1043.464      490.914      712.121        0.282        0.112       49.739       19.711        0.157      337.069        8.794      866.146
11/07/2013  09:39:00       45.341      -48.960        4.518       31.687       49.556       26.879     1004.052     2455.799      722.487        0.433        0.209       66.730       32.989        0.244      337.129        8.895      866.148
11/07/2013  09:40:00       38.927      -12.356       11.988       37.670       46.383       23.575     1419.030     2151.404      555.768        0.297        0.206       40.841       33.465        0.671      337.137        8.908      866.136
11/07/2013  09:41:00       32.601       -7.695       17.432       23.111       21.324       23.624      534.138      454.732      558.084        0.149        0.077       33.497       13.908        0.172      337.207        9.025      866.126
11/07/2013  09:42:00       10.587       -0.225       21.453       21.385       25.310       19.547      457.326      640.595      382.105        0.103        0.074       10.589       17.695        2.792      337.240        9.081      866.117
11/07/2013  09:43:00       48.561      -51.386      -12.927       41.079       47.745       28.299     1687.450     2279.552      800.815        0.497        0.238       70.702       31.031        0.193      337.226        9.058      866.102
11/07/2013  09:44:00       60.713      -56.090      -14.088       41.035       47.448       28.102     1683.871     2251.350      789.738        0.588        0.236       82.656       29.356        0.126      337.208        9.029      866.103
11/07/2013  09:45:00       38.246      -25.711        5.237       35.323       47.768       31.515     1247.685     2281.774      993.165        0.334        0.226       46.085       28.604        0.385      337.233        9.070      866.105
11/07/2013  09:46:00       74.778      -84.697      -10.893       30.467       34.420       20.524      928.256     1184.742      421.220        0.771        0.127      112.984       22.855        0.041      337.202        9.018      866.099
11/07/2013  09:47:00       45.390      -41.972       -4.929       50.574       44.155       25.489     2557.741     1949.630      649.693        0.450        0.258       61.822       26.065        0.178      337.233        9.067      866.099
11/07/2013  09:48:00       -2.342       -5.927       30.237       17.365       17.870       18.817      301.538      319.351      354.064        0.096        0.049        6.373       10.294        2.609      337.403        9.353      866.096
11/07/2013  09:49:00        5.056      -20.313       22.171       19.564       36.648       23.400      382.757     1343.079      547.552        0.160        0.114       20.933       25.291        1.460      337.455        9.440      866.099
11/07/2013  09:50:00       -8.812       11.519       16.849       14.051       15.632       12.966      197.435      244.361      168.119        0.055        0.030       14.503        8.179        0.318      337.421        9.385      866.116
11/07/2013  09:51:00      -19.056      -17.135        7.763       34.764       27.658       16.615     1208.510      764.977      276.047        0.148        0.112       25.627       18.861        0.542      337.405        9.356      866.148
11/07/2013  09:52:00       17.300      -45.786       -7.919       29.257       23.306       18.305      855.945      543.188      335.085        0.210        0.087       48.945       11.912        0.059      337.345        9.257      866.177
11/07/2013  09:53:00        7.594        9.467       21.353       14.768       21.444       12.942      218.104      459.859      167.485        0.072        0.042       12.136        8.755        0.520      337.522        9.551      866.168
11/07/2013  09:54:00      -16.796       37.353       43.464       16.889       31.174       31.463      285.223      971.791      989.917        0.291        0.112       40.956       13.668        0.111      337.412        9.368      866.123
11/07/2013  09:55:00      -16.948       -6.391       24.654       24.594       15.931       18.184      604.878      253.790      330.662        0.106        0.059       18.113       15.693        0.751      337.476        9.475      866.113
11/07/2013  09:56:00      -14.339        2.296       13.465       19.784       14.242       13.871      391.417      202.833      192.392        0.059        0.039       14.521       10.891        0.562      337.501        9.518      866.122
11/07/2013  09:57:00       21.885       22.106       29.707       19.590       17.412       14.550      383.783      303.189      211.689        0.137        0.045       31.107       13.038        0.176      337.419        9.381      866.121
11/07/2013  09:58:00       56.128       28.360       37.989       23.290       16.658       21.848      542.416      277.498      477.355        0.335        0.065       62.886       14.329        0.052      337.330        9.231      866.121
11/07/2013  09:59:00       48.402       59.169       60.046       29.001       42.299       21.993      841.073     1789.242      483.691        0.628        0.156       76.444       20.630        0.073      337.427        9.393      866.126
11/07/2013  10:00:00        3.451       50.114       76.470       36.365       44.006       22.896     1322.425     1936.570      524.236        0.608        0.189       50.232       24.973        0.247      337.483        9.487      866.143
11/07/2013  10:01:00       -1.337       39.903       65.327       26.450       30.976       21.737      699.578      959.498      472.499        0.400        0.107       39.926       18.298        0.210      337.525        9.557      866.175
11/07/2013  10:02:00       32.719       65.735       66.790       27.712       28.609       21.649      767.956      818.487      468.694        0.595        0.103       73.428       17.063        0.054      337.438        9.412      866.203
11/07/2013  10:03:00       52.959       45.982       23.436       25.890       26.845       21.488      670.271      720.633      461.741        0.366        0.093       70.135       12.100        0.030      337.335        9.239      866.226
11/07/2013  10:04:00       48.967       43.015       25.218       21.365       19.240       20.556      456.474      370.188      422.530        0.307        0.062       65.177       13.106        0.040      337.389        9.329      866.237
11/07/2013  10:05:00      113.459       75.825       25.281       39.163       32.114       33.640     1533.756     1031.299     1131.618        1.148        0.185      136.464       18.367        0.018      337.343        9.254      866.193
11/07/2013  10:06:00       97.740       52.545       18.832       49.009       41.629       38.654     2401.929     1732.956     1494.148        0.915        0.281      110.968       32.153        0.084      337.397        9.342      866.150
11/07/2013  10:07:00       93.253       58.440       11.830       43.485       39.190       29.457     1890.954     1535.821      867.696        0.827        0.215      110.052       26.117        0.056      337.339        9.246      866.156
11/07/2013  10:08:00      101.789       66.997       -0.946       33.807       20.070       22.106     1142.919      402.806      488.673        0.844        0.102      121.859       14.655        0.014      337.247        9.093      866.146
11/07/2013  10:09:00       77.294       43.031        3.891       14.024       15.488       10.782      196.684      239.864      116.255        0.420        0.028       88.465        6.570        0.006      337.184        8.988      866.107
11/07/2013  10:10:00       47.684       36.774       15.398       16.711       18.035       17.610      279.255      325.277      310.125        0.239        0.046       60.217        7.463        0.015      337.242        9.085      866.047
11/07/2013  10:11:00       34.602       10.631       14.163       18.198       11.110       14.243      331.177      123.432      202.855        0.108        0.033       36.198        5.562        0.024      337.278        9.145      866.006
11/07/2013  10:12:00      -11.935      -17.285        4.032       15.542       19.949       11.413      241.561      397.973      130.263        0.061        0.038       21.005        8.759        0.174      337.489        9.498      865.986
11/07/2013  10:13:00      -39.301      -17.519       -5.820       24.034       27.226       16.482      577.648      741.238      271.642        0.174        0.080       43.029       15.216        0.125      337.475        9.474      866.016
11/07/2013  10:14:00      -10.507      -58.960       -7.269       19.430       31.342       18.914      377.539      982.325      357.729        0.268        0.086       59.888       14.357        0.057      337.592        9.669      866.054
11/07/2013  10:15:00        0.731      -54.695       -2.702       24.015       30.376       22.044      576.734      922.684      485.948        0.249        0.099       54.700       17.441        0.102      337.608        9.698      866.060
11/07/2013  10:16:00      -24.221       -3.290       25.703       20.955       32.265       12.362      439.106     1041.032      152.807        0.145        0.082       24.443        7.355        0.091      337.665        9.794      866.036
11/07/2013  10:17:00       -6.346       19.357       39.166       12.584       16.059       13.691      158.363      257.891      187.442        0.128        0.030       20.371        9.659        0.225      337.719        9.884      865.969
11/07/2013  10:18:00      -39.835        7.611        1.316       17.120       23.620       17.917      293.089      557.912      321.016        0.141        0.059       40.556       10.499        0.067      337.582        9.654      865.942
11/07/2013  10:19:00      -23.799      -24.417        1.412       26.955       15.380       12.309      726.574      236.532      151.509        0.114        0.056       34.097        7.420        0.047      337.668        9.798      865.953
11/07/2013  10:20:00      -71.337        6.959       -2.081       29.216       32.430       13.242      853.582     1051.717      175.350        0.361        0.104       71.676        9.251        0.017      337.607        9.696      865.943
11/07/2013  10:21:00      -73.030       48.221      -11.773       19.828       22.068       14.903      393.160      487.015      222.091        0.445        0.055       87.514       13.395        0.023      337.526        9.559      865.906
11/07/2013  10:22:00      -33.316       28.974       -0.737       24.828       21.611       14.686      616.427      467.048      215.692        0.162        0.065       44.153       11.775        0.071      337.687        9.828      865.895
11/07/2013  10:23:00      -16.446       11.803        5.742       18.276       13.755       12.740      333.999      189.211      162.307        0.056        0.034       20.243        6.712        0.110      337.780        9.985      865.939
11/07/2013  10:24:00        2.744        8.680       25.072       13.073       12.095        7.521      170.910      146.295       56.558        0.054        0.019        9.103        6.341        0.485      337.943       10.260      865.951
11/07/2013  10:25:00        8.458       29.166       33.184       24.496       19.908       15.883      600.074      396.314      252.262        0.164        0.062       30.367       10.817        0.127      337.790       10.002      865.947
11/07/2013  10:26:00       39.493       46.167       40.892       20.904       15.500       16.363      436.992      240.263      267.750        0.315        0.047       60.755       10.452        0.030      337.694        9.841      865.955
11/07/2013  10:27:00       27.221       43.478       41.523       24.605       21.096       18.296      605.407      445.040      334.740        0.287        0.069       51.297       12.157        0.056      337.785        9.994      865.951
11/07/2013  10:28:00       -3.997       36.205       52.015       25.717       38.811       33.715      661.362     1506.264     1136.729        0.367        0.165       36.425       27.071        0.552      337.850       10.100      865.907
11/07/2013  10:29:00        8.010       50.205       72.643       21.392       55.844       33.540      457.633     3118.502     1124.907        0.628        0.235       50.840       38.706        0.580      337.820       10.054      865.902
11/07/2013  10:30:00       73.468      -78.630       -6.953       33.210       49.843       29.102     1102.925     2484.342      846.936        0.803        0.222      107.611       35.504        0.109      337.858       10.116      865.920
11/07/2013  10:31:00      101.842      -77.867      -20.198       35.137       41.278       27.314     1234.640     1703.877      746.033        1.026        0.184      128.199       17.447        0.019      337.766        9.962      865.935
11/07/2013  10:32:00       78.590       -9.539       26.582       55.352       59.359       43.045     3063.860     3523.515     1852.900        0.771        0.422       79.167       49.693        0.394      337.771        9.971      865.954
11/07/2013  10:33:00        9.211       51.294       75.225       31.544       46.239       43.096      995.026     2138.013     1857.248        0.668        0.250       52.114       40.301        0.598      337.924       10.226      865.920
11/07/2013  10:34:00       34.439       89.262       98.373       58.569       44.202       35.488     3430.362     1953.802     1259.401        1.274        0.332       95.675       32.874        0.118      337.890       10.170      865.879
11/07/2013  10:35:00       62.504       45.151       51.516       52.431       40.419       33.193     2749.048     1633.726     1101.743        0.704        0.274       77.107       28.587        0.137      337.870       10.137      865.863
11/07/2013  10:36:00       71.538       42.264       38.871       58.375       33.498       34.676     3407.600     1122.100     1202.409        0.707        0.287       83.089       36.030        0.188      337.857       10.113      865.869
11/07/2013  10:37:00       26.384      -39.957       16.159       39.020       49.705       31.134     1522.593     2470.614      969.316        0.376        0.248       47.882       37.051        0.599      337.993       10.342      865.857
11/07/2013  10:38:00       25.482      -10.288       11.399       18.252       42.194       20.485      333.128     1780.330      419.615        0.171        0.127       27.480       22.754        0.686      337.903       10.192      865.860
11/07/2013  10:39:00       37.092      -74.436        2.619       34.517       59.571       22.820     1191.436     3548.688      520.759        0.609        0.263       83.165       32.230        0.150      337.891       10.171      865.884
11/07/2013  10:40:00       79.229      -88.219      -25.120       27.489       34.751       18.812      755.626     1207.654      353.875        0.850        0.116      118.574       16.762        0.020      337.839       10.084      865.906
11/07/2013  10:41:00       41.191      -66.633        4.582       26.818       27.153       29.232      719.232      737.273      854.531        0.423        0.116       78.337       17.319        0.049      337.883       10.158      865.906
11/07/2013  10:42:00       32.534       -2.188       39.545       49.948       65.780       40.401     2494.761     4327.072     1632.272        0.554        0.423       32.608       39.751        1.486      337.921       10.222      865.877
11/07/2013  10:43:00       25.661        2.870       42.511       35.112       64.389       31.044     1232.872     4145.899      963.732        0.441        0.317       25.821       37.246        2.081      337.944       10.261      865.846
11/07/2013  10:44:00       63.815      -98.500        8.645       47.105       52.234       36.666     2218.875     2728.373     1344.378        1.007        0.315      117.365       31.129        0.070      337.937       10.248      865.809
11/07/2013  10:45:00       61.963      -33.141       22.644       52.228       54.711       44.560     2727.816     2993.267     1985.604        0.658        0.385       70.269       43.202        0.378      337.900       10.186      865.770
11/07/2013  10:46:00       43.680       21.958       58.315       46.765       51.829       37.707     2186.968     2686.227     1421.821        0.604        0.315       48.889       38.531        0.621      337.873       10.143      865.746
11/07/2013  10:47:00       53.804       72.270       59.543       60.184       50.205       40.288     3622.112     2520.533     1623.158        0.971        0.388       90.099       34.969        0.151      337.890       10.171      865.721
11/07/2013  10:48:00       83.078       38.976       48.562       60.665       51.376       42.324     3680.286     2639.513     1791.293        0.944        0.406       91.766       27.181        0.088      337.813       10.040      865.687
11/07/2013  10:49:00       75.154       77.381       64.523       50.213       50.852       50.370     2521.380     2585.975     2537.093        1.172        0.382      107.870       41.537        0.148      337.923       10.226      865.684
11/07/2013  10:50:00       40.196       34.251       39.999       52.629       29.731       32.105     2769.860      883.920     1030.715        0.454        0.234       52.809       24.467        0.215      337.953       10.274      865.715
11/07/2013  10:51:00       81.784       59.454       37.118       45.683       33.870       36.342     2086.897     1147.167     1320.729        0.808        0.228      101.111       22.804        0.051      337.905       10.195      865.745
11/07/2013  10:52:00       10.308       14.680       37.037       21.013       16.914       19.833      441.544      286.084      393.360        0.141        0.056       17.937        6.246        0.121      338.112       10.542      865.765
11/07/2013  10:53:00       12.192      -16.192       13.083       21.009       24.595       23.093      441.374      604.937      533.265        0.108        0.079       20.269       22.287        1.209      338.130       10.573      865.759
11/07/2013  10:54:00       15.584       28.022       18.082       28.833       28.802       23.995      831.365      829.579      575.757        0.180        0.112       32.064       19.714        0.378      338.115       10.547      865.746
11/07/2013  10:55:00       47.933       59.460       -5.429       38.521       40.266       16.054     1483.834     1621.372      257.719        0.461        0.168       76.375       23.042        0.091      337.850       10.103      865.722
11/07/2013  10:56:00       48.509      156.360      -22.655       26.682       38.831       29.456      711.910     1507.831      867.638        1.520        0.154      163.711       25.190        0.024      337.792       10.005      865.688
11/07/2013  10:57:00       54.219       71.688       -3.070       39.298       43.017       32.733     1544.322     1850.461     1071.419        0.628        0.223       89.882       25.640        0.081      337.812       10.039      865.666
11/07/2013  10:58:00       59.320       63.160        3.718       34.348       38.182       25.065     1179.800     1457.839      628.235        0.539        0.163       86.649       22.387        0.067      337.808       10.032      865.645
11/07/2013  10:59:00       30.893       90.433      -19.043       16.581       28.064       17.830      274.932      787.599      317.893        0.544        0.069       95.564       15.359        0.026      337.768        9.964      865.641
11/07/2013  11:00:00      -22.030       50.392       -3.519       28.624       27.700       19.564      819.330      767.287      382.756        0.250        0.098       54.997       14.344        0.068      337.961       10.287      865.635
11/07/2013  11:01:00      -74.559       22.336       -6.410       20.777       18.748       17.687      431.682      351.503      312.830        0.360        0.055       77.833        8.065        0.011      337.839       10.083      865.622
11/07/2013  11:02:00      -59.021       50.372      -14.301       20.975       29.063       13.683      439.948      844.682      187.229        0.385        0.074       77.594       12.607        0.026      337.844       10.092      865.602
11/07/2013  11:03:00        3.032       63.858      -18.662       16.174       22.462       11.060      261.593      504.548      122.323        0.266        0.044       63.930        9.537        0.022      337.890       10.171      865.588
11/07/2013  11:04:00      -16.054       11.986       -9.918       20.071       13.627       13.525      402.856      185.707      182.933        0.064        0.039       20.035       15.267        0.581      337.881       10.155      865.582
11/07/2013  11:05:00      -18.876        2.609        8.691        8.787       10.182       12.452       77.212      103.683      155.043        0.039        0.017       19.055        8.879        0.217      337.940       10.254      865.567
11/07/2013  11:06:00       19.369       31.673        2.784       29.409       16.143       12.657      864.865      260.609      160.209        0.134        0.064       37.126       10.285        0.077      337.957       10.282      865.542
11/07/2013  11:07:00       12.252       28.133      -11.001       23.004       20.062       11.051      529.185      402.496      122.127        0.106        0.053       30.685        2.682        0.008      337.866       10.129      865.517
11/07/2013  11:08:00       18.224       20.612       -0.215       10.114       13.147       13.416      102.296      172.835      179.988        0.061        0.023       27.513       11.359        0.170      337.922       10.223      865.502
11/07/2013  11:09:00       10.891       20.068       -3.045       13.180       13.723        8.526      173.710      188.326       72.699        0.048        0.022       22.833        7.888        0.119      337.921       10.221      865.496
11/07/2013  11:10:00       13.171       28.186        1.889       11.839       20.657       11.557      140.161      426.701      133.555        0.084        0.035       31.111        9.017        0.084      337.977       10.316      865.472
11/07/2013  11:11:00        8.831       89.419      -16.670        9.694       18.562        8.547       93.968      344.542       73.057        0.443        0.026       89.854        9.589        0.011      337.875       10.144      865.438
11/07/2013  11:12:00       16.487       85.057      -13.880       17.437       19.959       10.137      304.045      398.365      102.756        0.425        0.040       86.640       10.363        0.014      337.957       10.283      865.403
11/07/2013  11:13:00       22.013       64.679       -4.202       16.591       34.152       18.398      275.271     1166.341      338.473        0.323        0.089       68.323       20.635        0.091      338.006       10.365      865.375
11/07/2013  11:14:00       10.631       24.813       -0.020       16.185       29.430       17.088      261.945      866.124      292.014        0.107        0.071       26.995       17.790        0.434      338.000       10.355      865.377
11/07/2013  11:15:00       -2.915       -0.437        2.559        4.588       10.517        7.308       21.054      110.598       53.408        0.010        0.009        2.947        6.035        4.192      338.065       10.463      865.398
11/07/2013  11:16:00       13.745       18.367       -0.337       15.888       14.845       10.857      252.439      220.376      117.873        0.056        0.030       22.940        7.973        0.121      338.068       10.469      865.408
11/07/2013  11:17:00       26.216       38.253       26.753       25.641       20.933       24.013      657.440      438.192      576.621        0.227        0.084       46.375       11.482        0.061      338.116       10.550      865.400
11/07/2013  11:18:00       11.410        7.486       27.247       21.088       35.421       22.837      444.703     1254.648      521.517        0.157        0.111       13.647       19.211        1.982      338.208       10.702      865.381
11/07/2013  11:19:00       29.180       28.332       41.728       28.733       36.580       27.892      825.580     1338.122      777.964        0.317        0.147       40.671       30.853        0.575      338.018       10.384      865.356
11/07/2013  11:20:00       19.344       58.318       64.643       25.688       27.780       17.357      659.891      771.715      301.252        0.484        0.087       61.443       17.045        0.077      338.030       10.405      865.314
11/07/2013  11:21:00       28.253        9.740       22.262       18.878       15.689       16.082      356.370      246.151      258.639        0.112        0.043       29.885        6.322        0.045      337.988       10.333      865.290
11/07/2013  11:22:00       -8.567       23.869       38.352       12.205       21.008       14.878      148.969      441.330      221.348        0.146        0.041       25.360       11.472        0.205      338.100       10.521      865.268
11/07/2013  11:23:00      -10.520      -25.447        3.604       12.023       30.286       12.303      144.549      917.267      151.354        0.099        0.061       27.536       14.153        0.264      338.111       10.542      865.278
11/07/2013  11:24:00        4.540      -20.579       23.073       21.353       39.539       21.173      455.945     1563.300      448.288        0.172        0.123       21.074       16.943        0.646      338.160       10.623      865.294
11/07/2013  11:25:00       14.223      -11.310       38.786       19.158       23.159       20.191      367.035      536.316      407.686        0.157        0.066       18.172        8.658        0.227      338.142       10.593      865.299
11/07/2013  11:26:00       -0.434      -34.512       15.346       26.351       48.090       29.539      694.369     2312.667      872.532        0.265        0.194       34.514       26.784        0.602      338.092       10.509      865.290
11/07/2013  11:27:00      -40.375        7.223       10.924       19.016       18.524       12.661      361.618      343.146      160.310        0.133        0.043       41.016        8.012        0.038      338.011       10.376      865.286
11/07/2013  11:28:00      -14.999       -7.113        9.275       18.649       18.914       13.289      347.769      357.739      176.597        0.062        0.044       16.600       12.137        0.535      338.137       10.584      865.283
11/07/2013  11:29:00      -43.582      -17.687        3.558       32.091       25.871       17.479     1029.855      669.299      305.528        0.211        0.100       47.034       22.059        0.220      338.066       10.465      865.265
11/07/2013  11:30:00      -18.845      -29.172        4.634       26.021       24.996       15.017      677.100      624.781      225.497        0.138        0.076       34.729        9.767        0.079      338.035       10.412      865.239
11/07/2013  11:31:00       -8.409        0.767        9.603       14.943        9.518        6.163      223.282       90.592       37.983        0.026        0.018        8.444        7.279        0.743      338.109       10.538      865.199
11/07/2013  11:32:00       -8.825        8.833       17.688       15.590       10.083        7.060      243.059      101.658       49.845        0.043        0.020       12.486        7.790        0.389      338.146       10.601      865.160
11/07/2013  11:33:00       -1.289       12.749       39.873       19.892       18.818       19.933      395.711      354.120      397.327        0.145        0.057       12.814       16.013        1.562      338.163       10.628      865.130
11/07/2013  11:34:00       12.358       34.379       64.169       27.219       29.915       19.709      740.877      894.887      388.462        0.374        0.101       36.532       20.419        0.312      338.132       10.576      865.103
11/07/2013  11:35:00       16.409      -17.470       33.495       25.974       50.969       29.459      674.652     2597.797      867.850        0.292        0.207       23.968       29.197        1.484      338.122       10.558      865.076
11/07/2013  11:36:00       68.005      -35.728        7.356       33.767       34.874       23.718     1140.204     1216.222      562.553        0.444        0.146       76.819       17.021        0.049      338.038       10.417      865.064
11/07/2013  11:37:00      -54.468       -2.537        5.953       34.659       21.567       18.068     1201.227      465.114      326.452        0.250        0.100       54.527       16.700        0.094      338.027       10.400      865.056
11/07/2013  11:38:00     -112.963      -58.662        3.906       58.672       44.955       29.209     3442.367     2020.952      853.191        1.127        0.316      127.286       18.962        0.022      338.053       10.445      865.039
11/07/2013  11:39:00      -66.808       -2.699        4.336       48.656       38.289       22.439     2367.386     1466.061      503.496        0.441        0.217       66.863       26.214        0.154      338.047       10.434      865.018
11/07/2013  11:40:00       17.603        9.305       20.231       25.541       23.360       26.246      652.336      545.693      688.868        0.135        0.094       19.911       17.273        0.753      338.073       10.476      864.969
11/07/2013  11:41:00       37.275     -123.154      -14.894       33.663       51.013       36.820     1133.227     2602.320     1355.729        1.093        0.255      128.671       33.261        0.067      338.174       10.646      864.963
11/07/2013  11:42:00       16.776      -70.072      -15.283       42.172       51.323       30.158     1778.510     2634.057      909.534        0.537        0.266       72.053       24.779        0.118      338.214       10.712      864.955
11/07/2013  11:43:00       -2.722      -11.551       19.204       41.101       26.698       18.867     1689.298      712.800      355.974        0.163        0.138       11.867       12.599        1.127      338.217       10.719      864.938
11/07/2013  11:44:00      -12.328       35.336        4.677       32.184       23.484       22.128     1035.806      551.513      489.657        0.175        0.104       37.425       18.400        0.242      338.131       10.575      864.884
11/07/2013  11:45:00       63.046       60.718       11.691       33.156       33.246       41.867     1099.307     1105.280     1752.849        0.588        0.198       87.530       25.846        0.087      338.111       10.541      864.829
11/07/2013  11:46:00       52.767       68.747       47.263       47.293       34.564       37.547     2236.595     1194.683     1409.802        0.729        0.242       86.663       31.179        0.129      338.085       10.496      864.803
11/07/2013  11:47:00       23.074       76.727       74.931       40.947       35.032       32.332     1676.678     1227.265     1045.340        0.799        0.197       80.121       30.987        0.150      338.232       10.742      864.800
11/07/2013  11:48:00       56.715       58.321       40.619       42.566       30.074       31.848     1811.853      904.459     1014.290        0.600        0.187       81.351       29.536        0.132      338.173       10.645      864.782
11/07/2013  11:49:00       30.035       30.038       -1.262       20.984       26.066       21.122      440.323      679.415      446.158        0.169        0.078       42.478       13.865        0.107      338.302       10.861      864.774
11/07/2013  11:50:00       20.327       -2.730       -5.781       14.553       22.394       13.953      211.792      501.490      194.683        0.068        0.045       20.510        7.608        0.138      338.238       10.753      864.775
11/07/2013  11:51:00       28.947        8.751        7.629       12.273       10.451       11.749      150.631      109.221      138.037        0.069        0.020       30.241        8.495        0.079      338.298       10.854      864.759
11/07/2013  11:52:00       34.987       35.348       39.721       44.450       50.320       29.380     1975.763     2532.105      863.201        0.471        0.269       49.735       21.787        0.192      338.442       11.097      864.707
11/07/2013  11:53:00       37.260       31.678       59.760       62.196       62.714       37.678     3868.359     3933.069     1419.604        0.759        0.461       48.906       34.746        0.505      338.580       11.328      864.658
11/07/2013  11:54:00       60.406       71.119       -1.911       51.284       34.366       40.084     2630.091     1181.032     1606.689        0.706        0.271       93.310       20.930        0.050      338.458       11.124      864.617
11/07/2013  11:55:00       12.514       33.062        0.005       23.627       31.177       21.099      558.251      972.031      445.174        0.161        0.099       35.351       16.432        0.216      338.546       11.270      864.598
11/07/2013  11:56:00       -7.354       26.536        0.972       13.560       18.022       10.898      183.881      324.775      118.762        0.069        0.031       27.536        9.337        0.115      338.620       11.396      864.609
11/07/2013  11:57:00       17.296       13.002       20.399       13.122       12.462       18.984      172.185      155.289      360.404        0.079        0.034       21.638       10.521        0.236      338.888       11.845      864.594
11/07/2013  11:58:00       70.233       66.976       34.701       45.395       30.670       32.242     2060.747      940.677     1039.529        0.733        0.202       97.049       11.005        0.013      338.659       11.460      864.527
11/07/2013  11:59:00       67.505       69.731       67.057       67.606       49.088       54.377     4570.573     2409.655     2956.813        1.192        0.497       97.053       47.566        0.240      338.660       11.462      864.442
11/07/2013  12:00:00       64.977       26.225       28.676       46.270       28.081       26.558     2140.890      788.527      705.344        0.468        0.182       70.070       23.480        0.112      338.685       11.504      864.434
11/07/2013  12:01:00       15.985       33.345       -0.093       30.432       24.476       26.785      926.106      599.053      717.444        0.180        0.112       36.979       11.685        0.100      338.845       11.773      864.432
11/07/2013  12:02:00      -35.858       78.038      -13.509       16.836       34.206       25.406      283.466     1170.071      645.489        0.483        0.105       85.882       25.246        0.086      338.894       11.857      864.418
11/07/2013  12:03:00      -17.680       -0.842        9.185       27.963       33.320       20.147      781.921     1110.228      405.912        0.135        0.115       17.700       18.385        1.079      339.297       12.533      864.399
11/07/2013  12:04:00       -5.545       10.710       -4.718       16.903       17.140       14.315      285.696      293.766      204.921        0.048        0.039       12.060        9.602        0.634      339.182       12.339      864.395
11/07/2013  12:05:00       -0.782       42.495        0.913       22.923       19.789       17.880      525.450      391.601      319.701        0.152        0.062       42.502       10.077        0.056      339.205       12.378      864.385
11/07/2013  12:06:00      -45.897       26.216      -14.363       20.849       24.538       14.303      434.675      602.108      204.569        0.212        0.062       52.856        4.645        0.008      339.069       12.149      864.375
11/07/2013  12:07:00      -54.415       40.727      -16.757       16.247       28.445       12.912      263.962      809.124      166.727        0.307        0.062       67.968        9.799        0.021      339.070       12.151      864.350
11/07/2013  12:08:00      -43.312       -8.688        0.436       31.518       15.496       15.125      993.398      240.133      228.779        0.171        0.073       44.174       10.341        0.055      339.517       12.904      864.338
11/07/2013  12:09:00        9.512       25.796       24.400       15.724       18.873       18.219      247.242      356.179      331.931        0.114        0.047       27.494        3.763        0.019      339.715       13.237      864.288
11/07/2013  12:10:00      -10.138       38.839       57.211       13.799       24.567       29.416      190.422      603.523      865.300        0.327        0.083       40.140       12.293        0.094      339.882       13.520      864.241
11/07/2013  12:11:00      -20.815       28.226       54.398       39.258       39.362       31.024     1541.213     1549.340      962.478        0.412        0.203       35.071       33.239        0.898      339.673       13.167      864.215
11/07/2013  12:12:00       10.666       10.098       32.157       26.612       15.176       15.344      708.197      230.313      235.431        0.121        0.059       14.688       12.950        0.777      339.931       13.603      864.219
11/07/2013  12:13:00       -2.030       12.885       19.560       11.268       25.019       17.573      126.972      625.959      308.815        0.081        0.053       13.044       13.289        1.038      339.905       13.558      864.204
11/07/2013  12:14:00       10.926       12.353       26.233       18.465       24.198       22.238      340.954      585.556      494.538        0.119        0.071       16.492        8.648        0.275      340.154       13.979      864.161
11/07/2013  12:15:00       15.927       38.920       55.638       37.130       43.223       34.479     1378.643     1868.198     1188.775        0.465        0.222       42.053       26.461        0.396      339.724       13.254      864.143
11/07/2013  12:16:00       58.756       66.414       46.842       33.639       23.238       27.776     1131.567      540.020      771.514        0.625        0.122       88.674       18.137        0.042      339.395       12.697      864.160
11/07/2013  12:17:00       48.853       50.923       -1.807       33.761       37.937       16.844     1139.826     1439.191      283.708        0.392        0.143       70.567        9.589        0.018      339.425       12.749      864.129
11/07/2013  12:18:00       -8.542       90.354        6.557       35.454       43.325       25.691     1257.004     1877.031      660.052        0.604        0.190       90.757       24.765        0.074      339.651       13.131      864.086
11/07/2013  12:19:00       89.678       63.539       13.891       53.619       26.651       25.620     2875.043      710.267      656.363        0.826        0.212      109.907       22.058        0.040      339.445       12.782      864.018
11/07/2013  12:20:00        8.219       68.314       81.498       27.260       36.181       27.104      743.084     1309.029      734.645        0.708        0.139       68.806       27.404        0.159      339.609       13.058      864.002
11/07/2013  12:21:00        8.911      -45.916       23.378       38.682       68.151       41.672     1496.324     4644.568     1736.568        0.530        0.394       46.772       42.635        0.831      339.575       13.003      864.053
11/07/2013  12:22:00      -14.248      -25.487        0.368       24.933       32.426       17.913      621.674     1051.419      320.891        0.142        0.100       29.199        7.789        0.071      339.680       13.180      864.064
11/07/2013  12:23:00      -31.894      -44.790        7.818       38.108       37.913       22.707     1452.233     1437.389      515.628        0.324        0.170       54.986       28.398        0.267      339.326       12.582      864.042
11/07/2013  12:24:00      123.953       86.096       23.264       35.869       33.610       37.974     1286.611     1129.647     1442.047        1.359        0.193      150.920       26.301        0.030      339.323       12.578      863.956
11/07/2013  12:25:00      181.361       99.535       44.650       72.813       47.269       48.397     5301.679     2234.364     2342.235        2.733        0.494      206.879       41.760        0.041      339.348       12.618      863.865
11/07/2013  12:26:00      107.328       65.636       26.254       94.550       70.459       41.738     8939.795     4964.408     1742.098        1.608        0.782      125.807       39.163        0.097      339.484       12.848      863.814
11/07/2013  12:27:00      -62.120      -24.043       17.042       49.206       37.650       23.058     2421.217     1417.516      531.651        0.455        0.219       66.611       20.429        0.094      339.695       13.205      863.883
11/07/2013  12:28:00      -47.709      -14.111       11.807       51.800       39.621       22.266     2683.242     1569.853      495.768        0.368        0.237       49.752       29.363        0.348      339.718       13.245      863.910
11/07/2013  12:29:00      125.198       86.664       24.032       53.418       30.969       31.798     2853.499      959.092     1011.130        1.429        0.241      152.266        6.515        0.002      339.504       12.881      863.866
11/07/2013  12:30:00       38.021       99.136       94.200       73.602       58.221       51.578     5417.317     3389.735     2660.297        1.581        0.573      106.177       47.545        0.201      339.561       12.977      863.819
11/07/2013  12:31:00       11.366       43.212       59.049       38.536       60.026       48.412     1485.034     3603.069     2343.700        0.646        0.372       44.682       43.765        0.959      339.452       12.794      863.848
11/07/2013  12:32:00       69.511      -83.180       -2.955       43.290       52.527       28.728     1874.013     2759.137      825.278        0.861        0.273      108.401       15.234        0.020      339.355       12.632      863.827
11/07/2013  12:33:00       37.345        3.695       18.323       26.389       46.090       26.032      696.372     2124.249      677.679        0.262        0.175       37.527       27.244        0.527      339.292       12.525      863.824
11/07/2013  12:34:00       55.265        3.708       -2.788       19.607       22.415       11.436      384.438      502.418      130.775        0.205        0.051       55.390        7.631        0.019      339.073       12.155      863.818
11/07/2013  12:35:00       63.501       70.739       68.699       25.311       55.284       41.736      640.660     3056.299     1741.893        0.960        0.272       95.060       42.100        0.196      339.269       12.485      863.744
11/07/2013  12:36:00       77.511       59.322       81.935       61.112      101.258       50.475     3734.728    10253.249     2547.708        1.639        0.827       97.606       59.705        0.374      339.383       12.678      863.661
11/07/2013  12:37:00      105.948     -121.831       -2.947       80.405       79.368       52.056     6464.940     6299.268     2709.879        2.077        0.774      161.455       46.713        0.084      339.340       12.604      863.670
11/07/2013  12:38:00       56.640     -116.306      -30.962       74.640       45.245       29.975     5571.103     2047.128      898.520        1.310        0.426      129.365       38.166        0.087      339.340       12.605      863.677
11/07/2013  12:39:00       67.921      -58.818        2.510       53.121       78.637       50.058     2821.885     6183.785     2505.755        0.979        0.576       89.849       52.260        0.338      339.467       12.819      863.659
11/07/2013  12:40:00       56.639      -72.388       17.398       53.100       61.987       45.942     2819.586     3842.367     2110.699        0.876        0.439       91.913       44.688        0.236      339.450       12.791      863.644
11/07/2013  12:41:00       97.626      -66.812       30.097       85.810       97.181       59.436     7363.441     9444.217     3532.689        1.762        1.017      118.299       70.955        0.360      339.369       12.653      863.621
11/07/2013  12:42:00      127.971     -109.623        0.425       80.204      120.709       72.133     6432.676    14570.750     5203.139        2.730        1.310      168.505       83.941        0.248      339.278       12.500      863.563
11/07/2013  12:43:00      136.782     -148.139      -35.860      128.187      125.522       84.719    16431.868    15755.733     7177.240        4.065        1.968      201.629       87.499        0.188      339.147       12.279      863.518
11/07/2013  12:44:00       75.908       25.885       93.985       94.994      133.499       98.235     9023.802    17821.992     9650.165        2.587        1.825       80.200      102.104        1.621      339.273       12.491      863.484
11/07/2013  12:45:00      103.182       16.703       87.879      110.266      177.591       97.461    12158.518    31538.393     9498.634        3.591        2.660      104.525      129.278        1.530      339.289       12.517      863.443
11/07/2013  12:46:00       60.776       54.291       80.541       68.036       64.149       49.545     4628.965     4115.142     2454.735        1.216        0.560       81.494       42.226        0.268      339.542       12.947      863.454
11/07/2013  12:47:00       35.206       47.569       99.575       58.873      125.294       52.053     3466.035    15698.582     2709.540        1.764        1.094       59.180       72.098        1.484      339.525       12.917      863.474
11/07/2013  12:48:00      179.088     -146.814      -11.059      131.046      106.558       84.627    17173.150    11354.615     7161.664        4.471        1.784      231.575       91.441        0.156      339.230       12.420      863.495
11/07/2013  12:49:00      115.412     -101.624       -2.346       83.024      118.475       57.099     6892.904    14036.217     3260.322        2.392        1.209      153.777       54.864        0.127      339.091       12.183      863.510
11/07/2013  12:50:00       47.588       12.180       58.431       54.652       47.365       35.348     2986.831     2243.482     1249.503        0.615        0.324       49.122       32.697        0.443      339.144       12.276      863.488
11/07/2013  12:51:00       34.274       54.191       61.787       54.538       58.051       48.106     2974.398     3369.873     2314.229        0.829        0.433       64.120       44.404        0.480      339.210       12.388      863.504
11/07/2013  12:52:00       85.306       26.434       52.495       59.955       44.912       39.883     3594.612     2017.085     1590.654        0.897        0.360       89.307       33.951        0.145      339.171       12.321      863.508
11/07/2013  12:53:00       83.280       81.266       47.673       54.019       35.489       32.250     2918.003     1259.449     1040.039        1.051        0.261      116.360       30.180        0.067      339.139       12.267      863.461
11/07/2013  12:54:00       94.065       68.164       63.341       66.956       47.761       39.594     4483.072     2281.122     1567.671        1.292        0.417      116.167       41.485        0.128      339.058       12.132      863.429
11/07/2013  12:55:00       31.711       88.948       98.858       45.908       55.467       41.513     2107.500     3076.538     1723.363        1.280        0.345       94.431       42.545        0.203      339.212       12.391      863.391
11/07/2013  12:56:00      111.831       85.368       68.812       82.812       43.444       50.271     6857.840     1887.380     2527.195        1.790        0.564      140.691       44.598        0.100      339.265       12.479      863.330
11/07/2013  12:57:00       87.103       96.223       77.480       66.701       49.872       60.873     4449.033     2487.173     3705.579        1.674        0.532      129.791       50.618        0.152      339.187       12.346      863.319
11/07/2013  12:58:00       87.572       61.827       54.680       40.621       53.341       39.552     1650.029     2845.213     1564.343        1.027        0.303      107.198       37.883        0.125      339.097       12.197      863.353
11/07/2013  12:59:00       86.315       70.319       65.409       55.045       45.891       42.579     3029.988     2105.940     1812.964        1.181        0.347      111.333       32.658        0.086      339.285       12.513      863.359
11/07/2013  13:00:00       45.655       44.398       64.542       42.686       76.769       41.551     1822.085     5893.510     1726.484        0.883        0.472       63.683       30.340        0.227      339.289       12.520      863.377
11/07/2013  13:01:00      -50.015       29.462       22.479       49.464       44.665       39.413     2446.685     1994.956     1553.353        0.493        0.300       58.047       38.345        0.436      339.356       12.632      863.408
11/07/2013  13:02:00     -135.632      -20.171       -4.011       45.325       30.452       21.005     2054.316      927.330      441.221        1.112        0.171      137.124       23.730        0.030      339.381       12.674      863.444
11/07/2013  13:03:00      -42.450      -39.976        9.304       37.068       30.379       19.080     1374.052      922.908      364.031        0.307        0.133       58.310        9.886        0.029      339.441       12.777      863.442
11/07/2013  13:04:00       11.110       22.024       25.418       24.120       28.222       21.626      581.759      796.474      467.686        0.155        0.092       24.668       14.458        0.344      339.452       12.795      863.394
11/07/2013  13:05:00       82.546      -95.945      -18.761       57.378       66.249       31.368     3292.178     4388.945      983.949        1.252        0.433      126.567       44.136        0.122      339.381       12.675      863.340
11/07/2013  13:06:00       31.880      -71.455       -3.280       76.129       54.753       28.150     5795.600     2997.875      792.446        0.786        0.479       78.244       30.153        0.149      339.370       12.657      863.330
11/07/2013  13:07:00      -67.760      -44.822        5.862       67.701       48.256       31.250     4583.358     2328.622      976.570        0.726        0.394       81.244       27.220        0.112      339.473       12.830      863.352
11/07/2013  13:08:00      -96.340     -104.148       -0.663       46.201       54.339       29.303     2134.553     2952.718      858.688        1.304        0.297      141.874       26.211        0.034      339.395       12.698      863.385
11/07/2013  13:09:00       32.573       25.162       59.434       41.179       96.712       60.968     1695.707     9353.147     3717.151        0.999        0.738       41.159       68.678        2.784      339.474       12.832      863.305
11/07/2013  13:10:00        0.307       66.305      124.250       41.404       64.634       42.134     1714.325     4177.527     1775.280        1.375        0.383       66.305       40.227        0.368      339.493       12.862      863.240
11/07/2013  13:11:00      117.597       70.715       70.858       68.100       70.286       60.141     4637.610     4940.126     3616.968        1.852        0.660      137.221       36.080        0.069      339.518       12.905      863.174
11/07/2013  13:12:00       56.914      -40.671       38.747       64.460      141.914       63.521     4155.103    20139.508     4034.857        1.736        1.416       69.952       88.850        1.613      339.682       13.182      863.160
11/07/2013  13:13:00       91.631     -132.585      -16.396       87.337       96.597       44.464     7627.692     9331.011     1977.067        2.259        0.947      161.167       56.626        0.123      339.634       13.099      863.163
11/07/2013  13:14:00     -161.478      -33.657      -17.760      106.312       87.155       33.599    11302.267     7596.011     1128.884        2.377        1.001      164.948       25.051        0.023      339.623       13.081      863.194
11/07/2013  13:15:00      -89.733      -85.849      -11.009       74.032       51.284       36.369     5480.768     2630.081     1322.728        1.249        0.472      124.185       32.261        0.067      339.526       12.920      863.217
11/07/2013  13:16:00      -89.964      -23.854      -20.467       28.506       16.980       16.765      812.593      288.316      281.063        0.523        0.069       93.073       10.083        0.012      339.639       13.109      863.158
11/07/2013  13:17:00      -26.085      -69.857      -13.208       35.617       26.510       17.027     1268.583      702.773      289.908        0.400        0.113       74.569       11.530        0.024      339.753       13.302      863.196
11/07/2013  13:18:00      -10.795       29.846      -13.948       39.168       35.557       21.009     1534.124     1264.308      441.363        0.222        0.162       31.738       13.222        0.174      340.103       13.893      863.184
11/07/2013  13:19:00     -111.188       31.266      -15.588       39.099       18.950       13.357     1528.739      359.089      178.397        0.782        0.103      115.500        9.854        0.007      340.200       14.056      863.168
11/07/2013  13:20:00      -72.139       70.984       -7.375       56.028       36.042       30.458     3139.191     1298.995      927.680        0.783        0.268      101.206       25.502        0.063      340.721       14.938      863.147
11/07/2013  13:21:00      -23.617       26.304        0.640       20.217       22.363       11.188      408.714      500.117      125.181        0.114        0.052       35.350       10.208        0.083      340.933       15.295      863.134
11/07/2013  13:22:00      101.526       65.496       13.588       56.841       38.884       26.267     3230.856     1511.933      689.967        1.011        0.272      120.820       24.839        0.042      340.720       14.936      863.096
11/07/2013  13:23:00       75.157      111.481       64.168       97.984       60.643       55.435     9600.917     3677.590     3073.044        1.927        0.818      134.449       43.613        0.105      340.778       15.032      863.008
11/07/2013  13:24:00      -60.675       10.011       13.142       51.913       48.844       37.668     2694.964     2385.719     1418.865        0.523        0.325       61.496       28.845        0.220      341.013       15.432      863.023
11/07/2013  13:25:00        3.471       73.416       12.356      134.037       83.546       44.257    17965.955     6979.934     1958.718        1.623        1.345       73.498       58.423        0.632      341.076       15.538      862.983
11/07/2013  13:26:00       99.638      -22.135        3.585       75.509      148.665       64.425     5701.536    22101.210     4150.544        2.119        1.598      102.067       61.863        0.367      341.194       15.736      862.950
11/07/2013  13:27:00       29.549       87.321      138.968       59.715       85.953       46.585     3565.839     7387.838     2170.198        2.046        0.656       92.185       51.649        0.314      341.377       16.045      862.921
11/07/2013  13:28:00       68.216       22.260       92.771       91.542      148.195       87.670     8379.909    21961.783     7686.068        2.589        1.901       71.756      100.715        1.970      341.309       15.930      862.924
11/07/2013  13:29:00      120.481     -119.571       10.551       86.962       57.347       42.482     7562.424     3288.697     1804.705        2.079        0.633      169.744       42.828        0.064      341.079       15.541      863.036
11/07/2013  13:30:00       81.840      -53.144       31.619       65.427      125.195       59.451     4280.707    15673.667     3534.380        1.700        1.174       97.581       83.985        0.741      341.171       15.697      862.990
11/07/2013  13:31:00       83.916      -65.967       12.326       68.340       99.843       48.113     4670.410     9968.623     2314.850        1.425        0.848      106.741       62.212        0.340      341.152       15.665      862.997
11/07/2013  13:32:00       45.735      -79.871       15.753       72.726      118.112       58.258     5289.001    13950.366     3394.047        1.567        1.132       92.039       66.268        0.518      341.338       15.980      863.054
11/07/2013  13:33:00       84.333       89.198      103.945      126.194       75.592       68.799    15924.865     5714.128     4733.365        2.612        1.319      122.753       65.825        0.288      341.333       15.971      862.892
11/07/2013  13:34:00      105.732     -181.290       -4.376       84.060       93.562       48.220     7066.022     8753.870     2325.144        3.110        0.907      209.870       53.270        0.064      341.423       16.121      862.948
11/07/2013  13:35:00      115.900     -153.370      -16.612       90.286       85.639       64.950     8151.555     7333.996     4218.470        2.846        0.985      192.238       58.241        0.092      341.264       15.852      862.966
11/07/2013  13:36:00      117.041     -116.363        1.915       58.531       75.066       47.529     3425.828     5634.911     2259.029        1.928        0.566      165.042       48.511        0.086      341.279       15.879      862.989
11/07/2013  13:37:00       50.959      -70.933       16.749       68.443      102.234       52.754     4684.394    10451.752     2782.976        1.291        0.896       87.341       44.131        0.255      341.466       16.197      862.997
11/07/2013  13:38:00      113.442     -103.209      -16.945       88.182       90.805       64.721     7776.036     8245.596     4188.835        2.201        1.011      153.366       63.909        0.174      341.348       15.996      862.977
11/07/2013  13:39:00       45.542       81.952      123.225       71.856       97.669       59.977     5163.259     9539.299     3597.256        2.113        0.915       93.756       64.105        0.467      341.500       16.254      862.964
11/07/2013  13:40:00       97.077       61.634       51.620       62.265       68.424       57.348     3876.963     4681.858     3288.758        1.387        0.592      114.990       48.955        0.181      341.305       15.924      862.942
11/07/2013  13:41:00       45.903      -17.657        9.439       54.170       32.598       23.756     2934.421     1062.625      564.336        0.353        0.228       49.182       17.755        0.130      341.536       16.317      863.000
11/07/2013  13:42:00       72.383      -71.654        6.115       50.603       68.110       38.414     2560.690     4638.913     1475.666        0.954        0.434      101.851       36.213        0.126      341.747       16.674      863.043
11/07/2013  13:43:00      -80.523       -2.348       13.468       90.680       44.706       34.284     8222.935     1998.650     1175.394        0.903        0.570       80.557       44.530        0.306      342.104       17.278      863.010
11/07/2013  13:44:00      -26.457      -16.514       15.163       75.624       70.576       38.158     5719.018     4980.987     1456.012        0.668        0.608       31.188       39.288        1.587      342.393       17.772      863.010
11/07/2013  13:45:00     -239.941      -81.655      -12.677      197.883      109.351       80.179    39157.873    11957.573     6428.613        6.096        2.877      253.455       76.416        0.091      342.711       18.309      862.951
11/07/2013  13:46:00     -275.609     -140.399       -4.770      214.112      115.411       67.394    45843.843    13319.613     4542.017        7.969        3.185      309.309       75.818        0.060      343.012       18.820      862.942
11/07/2013  13:47:00     -379.558     -295.090        0.250      238.371      176.859       94.083    56820.678    31279.254     8851.541       16.403        4.848      480.772      107.848        0.050      342.990       18.784      862.898
11/07/2013  13:48:00     -473.431     -237.208      -12.618      253.425      182.190      104.093    64224.134    33193.054    10835.345       19.439        5.413      529.532      115.647        0.048      343.006       18.810      862.856
11/07/2013  13:49:00     -360.606     -300.543      -13.698      166.714      135.932       78.003    27793.672    18477.473     6084.480       13.644        2.618      469.428       66.140        0.020      343.098       18.966      862.868
11/07/2013  13:50:00     -359.468     -396.681      -24.003      216.550      205.812      109.337    46893.753    42358.708    11954.523       19.416        5.060      535.325      106.168        0.039      343.093       18.957      862.902
11/07/2013  13:51:00     -210.130     -243.362       20.287      163.670      194.612       88.131    26787.892    37873.854     7767.136        8.810        3.621      321.527       82.910        0.066      343.169       19.087      862.899
11/07/2013  13:52:00     -214.740     -164.062       16.543      149.408      130.185       70.338    22322.835    16948.133     4947.434        5.875        2.211      270.240       60.507        0.050      343.214       19.164      862.880
11/07/2013  13:53:00     -329.001     -207.634        6.625      205.890      161.386       87.460    42390.513    26045.301     7649.330       11.373        3.804      389.042       90.472        0.054      343.222       19.177      862.895
11/07/2013  13:54:00     -467.894     -328.613       -7.812      311.034      214.253      101.995    96742.385    45904.320    10403.018       23.999        7.652      571.762      121.144        0.045      343.144       19.045      862.851
11/07/2013  13:55:00     -243.656     -363.666        6.386      190.193      187.584       87.037    36173.267    35187.602     7575.410       13.529        3.947      437.745       76.269        0.030      343.138       19.036      862.877
11/07/2013  13:56:00     -148.896     -243.970        7.374      142.509      180.285       74.352    20308.932    32502.604     5528.286        7.003        2.917      285.817       74.928        0.069      343.198       19.137      862.869
11/07/2013  13:57:00     -127.021     -242.274       -9.933      119.636      168.979       66.257    14312.670    28554.022     4390.052        6.109        2.363      273.553       52.070        0.036      343.217       19.170      862.883
11/07/2013  13:58:00     -193.970     -154.891        1.403      105.657       98.473       55.117    11163.333     9696.989     3037.849        4.275        1.195      248.225       48.385        0.038      343.301       19.312      862.872
11/07/2013  13:59:00     -285.790     -254.864      -11.194      149.773      112.748       65.805    22432.009    12712.152     4330.282        9.311        1.974      382.925       68.727        0.032      343.247       19.219      862.867
11/07/2013  14:00:00     -164.022     -261.794       -5.513      203.493      176.557       81.310    41409.426    31172.430     6611.370        8.732        3.960      308.932       80.878        0.069      343.280       19.277      862.859
11/07/2013  14:01:00     -274.039     -164.903       -9.128      167.150      108.874       63.322    27939.226    11853.458     4009.675        7.308        2.190      319.829       70.289        0.048      343.293       19.299      862.882
11/07/2013  14:02:00     -155.291     -132.142       15.883      151.717      180.087       62.075    23018.119    32431.208     3853.344        5.056        2.965      203.904       82.719        0.165      343.319       19.344      862.868
11/07/2013  14:03:00     -352.926     -449.387      -38.179      176.532      190.301       72.130    31163.477    36214.649     5202.775       20.026        3.629      571.406       84.193        0.022      343.176       19.099      862.850
11/07/2013  14:04:00     -356.922     -273.507       -3.747      200.483      152.222       82.318    40193.380    23171.437     6776.171       13.617        3.507      449.666       98.313        0.048      343.176       19.099      862.844
11/07/2013  14:05:00     -238.333     -173.911       -0.349      144.375       80.930       62.006    20844.073     6549.739     3844.696        5.914        1.562      295.038       67.427        0.052      343.243       19.214      862.861
11/07/2013  14:06:00     -142.058     -247.636       20.042      161.783      139.398       91.890    26173.583    19431.736     8443.721        6.797        2.702      285.489       83.678        0.086      343.261       19.244      862.864
11/07/2013  14:07:00      -80.176     -194.803       -9.232      127.357       85.621       58.171    16219.875     7330.934     3383.848        3.569        1.347      210.657       31.600        0.023      343.257       19.239      862.852
11/07/2013  14:08:00     -220.461     -238.052      -16.754      144.489      125.650       67.209    20877.116    15787.985     4517.066        7.336        2.059      324.456       74.483        0.053      343.212       19.160      862.837
11/07/2013  14:09:00     -279.016     -180.199       -1.140      188.796      102.772       73.600    35643.978    10562.080     5416.951        8.096        2.581      332.147       91.248        0.075      343.307       19.322      862.858
11/07/2013  14:10:00     -242.376     -135.474       -9.845      109.049       92.118       52.528    11891.679     8485.785     2759.164        5.016        1.157      277.668       44.243        0.025      343.183       19.112      862.857
11/07/2013  14:11:00     -287.121     -213.066       -9.608      211.708      150.494       82.468    44820.334    22648.435     6801.016       10.109        3.713      357.541      107.003        0.090      343.161       19.074      862.805
11/07/2013  14:12:00     -301.226     -192.627        0.777      170.526      135.811       75.378    29079.061    18444.601     5681.838        9.052        2.660      357.550       84.191        0.055      343.281       19.277      862.771
11/07/2013  14:13:00     -298.221     -166.457      -22.703      145.745      158.841       67.046    21241.583    25230.347     4495.210        8.405        2.548      341.531       61.103        0.032      343.214       19.164      862.789
11/07/2013  14:14:00     -243.256     -152.957        8.767      180.549      123.406       68.722    32597.813    15228.995     4722.775        6.759        2.627      287.349       71.418        0.062      343.237       19.204      862.775
11/07/2013  14:15:00     -291.966     -182.120       -2.749      194.451      129.172       69.864    37811.044    16685.334     4881.015        8.889        2.969      344.110       68.804        0.040      343.202       19.144      862.798
11/07/2013  14:16:00     -335.982     -184.388       -2.524      208.942      163.711       88.520    43656.693    26801.128     7835.725       11.258        3.915      383.253       96.726        0.064      343.250       19.225      862.800
11/07/2013  14:17:00     -233.648     -340.316        4.453      166.702      195.516       80.203    27789.552    38226.389     6432.539       12.143        3.622      412.803       79.735        0.037      343.205       19.149      862.813
11/07/2013  14:18:00     -256.944     -177.652      -20.434      120.051      129.379       53.014    14412.157    16738.893     2810.458        6.597        1.698      312.378       48.514        0.024      343.254       19.231      862.802
11/07/2013  14:19:00     -292.489     -196.353       -3.377      168.083      131.965       76.896    28251.778    17414.707     5912.959        8.784        2.579      352.285       81.462        0.053      343.200       19.140      862.798
11/07/2013  14:20:00     -196.437     -186.342        3.505      157.448      144.735       73.333    24789.800    20948.333     5377.761        6.221        2.556      270.759       89.522        0.109      343.175       19.099      862.782
11/07/2013  14:21:00     -474.341     -155.817      -37.736      169.988      117.284       76.238    28895.944    13755.438     5812.223       14.957        2.423      499.278       88.594        0.031      343.135       19.031      862.781
11/07/2013  14:22:00     -187.417     -129.706       -6.834      162.920      143.629       55.834    26542.969    20629.198     3117.488        5.113        2.514      227.923       69.550        0.093      343.149       19.056      862.797
11/07/2013  14:23:00     -230.752      -89.566        2.881      120.771       82.333       52.009    14585.755     6778.776     2704.953        4.267        1.203      247.525       58.308        0.055      343.271       19.262      862.817
11/07/2013  14:24:00     -201.490      -86.411        3.936      110.434      101.922       47.983    12195.717    10388.103     2302.415        3.648        1.244      219.238       49.030        0.050      343.330       19.362      862.815
11/07/2013  14:25:00     -226.918     -203.629       -4.317      181.137      173.961       71.645    32810.441    30262.357     5133.017        8.058        3.410      304.888       74.696        0.060      343.215       19.166      862.830
11/07/2013  14:26:00     -332.076     -236.850      -17.332      195.969      194.948       74.250    38403.789    38004.796     5513.006       12.428        4.096      407.888       97.390        0.057      343.136       19.031      862.818
11/07/2013  14:27:00     -285.776     -138.143        3.037      202.557      132.355       62.518    41029.307    17517.885     3908.551        8.160        3.123      317.413       81.908        0.067      343.185       19.114      862.819
11/07/2013  14:28:00     -500.855     -249.344      -18.082      226.031      183.659      100.074    51089.843    33730.507    10014.896       20.408        4.742      559.489      114.975        0.042      343.017       18.829      862.807
11/07/2013  14:29:00     -404.952     -235.353      -24.523      185.868      190.247       92.568    34547.085    36194.015     8568.812       14.963        3.965      468.377      100.922        0.046      342.980       18.765      862.817
11/07/2013  14:30:00     -364.000     -183.296        9.507      215.007      178.995       97.363    46228.056    32039.235     9479.625       12.695        4.387      407.546      103.881        0.065      342.992       18.786      862.797
11/07/2013  14:31:00     -414.854     -232.508      -25.483      206.174      200.225       96.170    42507.737    40089.856     9248.700       15.931        4.592      475.567       90.550        0.036      343.060       18.900      862.805
11/07/2013  14:32:00     -477.620     -334.161      -16.959      247.838      212.886      132.424    61423.794    45320.239    17536.076       23.216        6.214      582.910      142.956        0.060      342.933       18.686      862.755
11/07/2013  14:33:00     -354.664     -189.531        7.716      216.247      183.650      104.244    46762.776    33727.216    10866.881       12.655        4.568      402.130      121.174        0.091      342.994       18.790      862.788
11/07/2013  14:34:00     -346.075     -209.628        6.635      220.732      232.288      109.666    48722.771    53957.926    12026.665       13.921        5.735      404.613      123.283        0.093      342.948       18.709      862.782
11/07/2013  14:35:00     -501.712     -106.183      -16.959      206.877      146.396       95.146    42798.026    21431.781     9052.728       16.827        3.664      512.826      105.446        0.042      342.967       18.744      862.785
11/07/2013  14:36:00     -360.553     -242.554      -13.020      192.903      173.131       87.924    37211.652    29974.398     7730.547       13.195        3.746      434.547       94.713        0.048      342.979       18.764      862.821
11/07/2013  14:37:00     -496.235     -145.533      -42.117      198.052      177.564       93.324    39224.628    31529.121     8709.454       17.432        3.973      517.135       96.807        0.035      342.980       18.765      862.823
11/07/2013  14:38:00     -388.762     -224.903       -7.356      192.560      152.942       89.947    37079.390    23391.324     8090.399       13.515        3.428      449.130      100.209        0.050      342.968       18.746      862.797
11/07/2013  14:39:00     -177.974      -61.796        5.934      152.244      107.147       64.798    23178.201    11480.390     4198.825        3.719        1.943      188.397       73.007        0.150      343.065       18.912      862.820
11/07/2013  14:40:00     -222.710     -111.730      -19.606      191.397      140.876       71.982    36632.937    19846.043     5181.455        6.205        3.083      249.165       78.318        0.099      343.077       18.931      862.803
11/07/2013  14:41:00     -358.130     -251.302        0.685      182.271      145.937       85.761    33222.593    21297.618     7354.961       12.663        3.094      437.504      103.244        0.056      343.007       18.811      862.804
11/07/2013  14:42:00     -246.822     -221.149        6.225      184.004      137.292       81.925    33857.459    18848.989     6711.725        8.463        2.971      331.403       96.297        0.084      343.012       18.820      862.815
11/07/2013  14:43:00     -242.499     -182.171        5.920      210.177      154.906       78.873    44174.293    23995.793     6220.916        8.320        3.720      303.302       98.617        0.106      343.049       18.885      862.842
11/07/2013  14:44:00     -491.669     -137.572      -18.228      170.342      191.396       83.064    29016.518    36632.289     6899.663       16.676        3.627      510.553       75.421        0.022      343.004       18.805      862.805
11/07/2013  14:45:00     -283.894     -222.283       -2.607      175.229      133.254       82.307    30705.028    17756.746     6774.447        9.261        2.762      360.562       94.360        0.068      343.044       18.874      862.812
11/07/2013  14:46:00     -318.021      -64.968       -9.528      177.734      114.247       78.330    31589.551    13052.420     6135.533        7.810        2.539      324.590       92.485        0.081      343.028       18.847      862.826
11/07/2013  14:47:00     -297.556     -183.768      -13.767      159.137      139.828       69.155    25324.505    19551.987     4782.473        8.607        2.483      349.728       79.345        0.051      343.035       18.860      862.805
11/07/2013  14:48:00     -259.204     -221.733        2.548      210.509      161.386       93.272    44314.051    26045.501     8699.730        9.770        3.953      341.105      115.936        0.116      343.005       18.809      862.816
11/07/2013  14:49:00     -394.746     -209.164       18.528      205.092      168.568      100.665    42062.636    28415.208    10133.538       14.025        4.031      446.737      106.020        0.056      342.884       18.604      862.773
11/07/2013  14:50:00     -358.465     -259.158      -11.113      166.329      149.791       84.317    27665.377    22437.297     7109.326       12.649        2.861      442.335       87.350        0.039      342.875       18.588      862.771
11/07/2013  14:51:00     -337.737     -173.755      -11.584      209.274      113.401       60.159    43795.712    12859.801     3619.077       10.232        3.014      379.812       66.095        0.030      342.910       18.648      862.768
11/07/2013  14:52:00     -408.961     -162.217       -1.765      218.934      138.174       94.906    47932.177    19091.939     9007.241       13.479        3.802      439.958      108.814        0.061      342.879       18.596      862.732
11/07/2013  14:53:00     -373.132     -211.194      -21.590      145.801      112.656       64.745    21257.869    12691.427     4191.857       11.121        1.907      428.755       58.273        0.018      342.913       18.652      862.716
11/07/2013  14:54:00     -433.491     -249.970      -11.574      221.686      179.750       92.950    49144.860    32309.971     8639.710       17.030        4.505      500.400      101.254        0.041      342.884       18.602      862.708
11/07/2013  14:55:00     -451.888     -305.469       -4.015      240.338      214.992      113.090    57762.411    46221.398    12789.456       20.713        5.839      545.449      122.596        0.051      342.854       18.552      862.651
11/07/2013  14:56:00     -402.317     -236.809        0.898      253.782      154.516       99.567    64405.529    23875.270     9913.650       15.805        4.910      466.838      117.710        0.064      342.886       18.607      862.657
11/07/2013  14:57:00     -401.666     -260.957      -11.103      194.959      124.239       86.781    38009.037    15435.365     7530.879       14.526        3.049      478.993       90.103        0.035      342.827       18.506      862.626
11/07/2013  14:58:00     -473.895     -230.818       -8.679      179.569      135.839       67.260    32244.980    18452.187     4523.858       16.657        2.761      527.118       69.747        0.018      342.886       18.606      862.607
11/07/2013  14:59:00     -281.295     -154.809        9.155      189.885      158.849       80.321    36056.139    25232.989     6451.419        8.545        3.387      321.081       92.284        0.083      342.956       18.726      862.603
11/07/2013  15:00:00     -451.148     -182.259      -20.126      240.555      162.195       99.883    57866.646    26307.329     9976.609       16.564        4.708      486.572      120.678        0.062      342.886       18.607      862.618
11/07/2013  15:01:00     -373.752      -70.165      -17.274      174.954      185.448       80.070    30608.926    34390.952     6411.141       10.815        3.571      380.281       86.459        0.052      342.934       18.688      862.639
11/07/2013  15:02:00     -405.379     -158.621      -12.907      206.329      143.054       98.664    42571.781    20464.477     9734.589       13.120        3.639      435.308       90.434        0.043      342.795       18.451      862.652
11/07/2013  15:03:00     -427.458       24.985      -23.669      177.601      136.326       77.159    31542.020    18584.664     5953.470       11.998        2.804      428.187       76.590        0.032      342.858       18.557      862.640
11/07/2013  15:04:00     -277.557     -156.973        3.649      208.125      108.291       84.368    43315.820    11726.877     7117.906        8.192        3.108      318.871      106.305        0.111      342.838       18.526      862.591
11/07/2013  15:05:00     -427.111     -201.960      -18.903      158.980      109.228       77.025    25274.592    11930.785     5932.847       13.335        2.157      472.453       68.026        0.021      342.823       18.501      862.574
11/07/2013  15:06:00     -476.598     -278.589       -1.836      246.418      168.270       89.134    60721.627    28314.753     7944.811       20.085        4.849      552.048      110.305        0.040      342.828       18.508      862.551
11/07/2013  15:07:00     -306.020     -110.227       -4.671      250.288      212.626      101.925    62644.248    45209.684    10388.665       11.201        5.912      325.267      114.535        0.124      342.889       18.612      862.501
11/07/2013  15:08:00     -619.141     -250.477      -26.578      247.618      257.735      116.171    61314.793    66427.271    13495.652       29.399        7.062      667.888      122.275        0.034      342.778       18.423      862.567
11/07/2013  15:09:00     -403.325     -292.442       -3.993      250.398      212.176      119.620    62699.102    45018.444    14308.923       18.510        6.101      498.190      133.085        0.071      342.686       18.266      862.615
11/07/2013  15:10:00     -502.476     -248.085      -16.761      217.634      144.772       87.239    47364.444    20959.060     7610.646       19.511        3.797      560.382       91.963        0.027      342.649       18.203      862.546
11/07/2013  15:11:00     -546.624     -297.809       -9.786      283.455      238.482      128.277    80346.577    56873.781    16455.095       27.060        7.684      622.486      144.331        0.054      342.650       18.205      862.516
11/07/2013  15:12:00     -357.753     -123.876      -10.602      178.981      172.719       79.426    32034.255    29831.751     6308.444       10.580        3.409      378.593       78.894        0.043      342.657       18.217      862.513
11/07/2013  15:13:00     -401.103     -134.753      -21.639      223.899      164.095      100.568    50130.740    26927.260    10113.982       13.333        4.359      423.133      118.384        0.078      342.621       18.157      862.511
11/07/2013  15:14:00     -496.591     -196.603      -14.435      277.185      182.730      107.482    76831.651    33390.418    11552.482       20.360        6.089      534.093      109.297        0.042      342.578       18.082      862.478
11/07/2013  15:15:00     -438.377     -289.684      -23.026      316.119      273.703      128.389    99931.500    74913.477    16483.799       23.394        9.566      525.444      151.128        0.083      342.537       18.014      862.533
11/07/2013  15:16:00     -267.096     -150.200       -5.604      195.159      164.895       87.537    38086.845    27190.388     7662.690        8.342        3.647      306.432       97.420        0.101      342.536       18.011      862.556
11/07/2013  15:17:00     -371.696     -273.571      -10.109      228.019      224.237      102.867    51992.474    50282.220    10581.556       16.296        5.643      461.518      114.049        0.061      342.512       17.970      862.538
11/07/2013  15:18:00     -317.417     -231.079      -14.479      239.121      188.827       92.840    57178.995    35655.642     8619.184       12.789        5.073      392.621      103.969        0.070      342.482       17.919      862.470
11/07/2013  15:19:00     -301.446     -131.934        7.287      251.821      189.572       94.958    63414.031    35937.589     9016.944       10.833        5.418      329.054      123.299        0.140      342.464       17.890      862.437
11/07/2013  15:20:00     -376.020      -79.205       -6.732      256.461      159.665      101.151    65772.037    25492.837    10231.475       12.459        5.075      384.272      105.349        0.075      342.496       17.942      862.470
11/07/2013  15:21:00     -425.211     -162.506        3.462      228.052      199.062       97.273    52007.514    39625.628     9462.027       15.414        5.055      455.206      112.572        0.061      342.504       17.956      862.512
11/07/2013  15:22:00     -315.277     -194.612       -5.014      257.485      182.528       91.072    66298.503    33316.404     8294.172       12.259        5.395      370.504      114.310        0.095      342.474       17.906      862.546
11/07/2013  15:23:00     -313.606     -213.349        5.137      243.082      157.789      101.335    59088.982    24897.312    10268.828       11.906        4.713      379.297      134.594        0.126      342.448       17.863      862.571
11/07/2013  15:24:00     -347.296     -228.639       23.768      269.033      215.198      108.023    72378.677    46310.018    11669.033       15.188        6.518      415.801      134.089        0.104      342.403       17.787      862.559
11/07/2013  15:25:00     -290.984     -177.014      -16.548      163.681      172.967       89.533    26791.514    29917.590     8016.121        9.049        3.236      340.596       97.061        0.081      342.426       17.823      862.590
11/07/2013  15:26:00     -361.025     -275.646        1.893      193.469      132.909       76.375    37430.329    17664.735     5833.189       13.362        3.046      454.224       91.216        0.040      342.395       17.772      862.539
11/07/2013  15:27:00     -224.849     -192.935       12.918      156.667      138.276       78.397    24544.524    19120.372     6146.125        6.887        2.491      296.279       89.416        0.091      342.390       17.762      862.532
11/07/2013  15:28:00     -278.041     -195.548       -3.597      246.377      190.400       75.672    60701.572    36252.277     5726.283       10.910        5.134      339.920       99.784        0.086      342.393       17.769      862.545
11/07/2013  15:29:00     -295.884     -170.052      -11.763      169.949      133.941       75.516    28882.623    17940.275     5702.724        8.456        2.626      341.270       67.505        0.039      342.378       17.741      862.501
11/07/2013  15:30:00     -309.617     -239.027       -1.379      158.241      124.071       88.841    25040.299    15393.706     7892.758       10.065        2.416      391.148       85.754        0.048      342.367       17.725      862.479
11/07/2013  15:31:00     -438.618     -167.516      -11.442      171.105      161.682       83.451    29277.030    26141.187     6964.105       14.147        3.119      469.518       68.327        0.021      342.371       17.731      862.481
11/07/2013  15:32:00     -304.403     -152.707       28.069      244.871      208.711      122.687    59961.756    43560.202    15052.017       11.765        5.929      340.559      143.699        0.178      342.386       17.756      862.504
11/07/2013  15:33:00     -339.996     -220.477        3.596      271.180      223.392      127.348    73538.359    49903.896    16217.612       15.192        6.983      405.225      156.130        0.148      342.377       17.741      862.464
11/07/2013  15:34:00     -409.080     -249.133        0.009      249.789      206.433      113.802    62394.298    42614.404    12950.881       17.367        5.898      478.971      137.296        0.082      342.382       17.749      862.526
11/07/2013  15:35:00     -322.369     -242.815       -7.092      165.349      141.757       78.073    27340.137    20095.095     6095.464       10.822        2.677      403.585       86.622        0.046      342.359       17.710      862.515
11/07/2013  15:36:00     -424.618     -237.673        9.946      251.767      198.523      115.114    63386.874    39411.398    13251.218       17.645        5.802      486.610      132.833        0.075      342.335       17.669      862.494
11/07/2013  15:37:00     -408.711     -161.874      -10.998      249.985      211.023      113.732    62492.554    44530.833    12935.061       15.664        5.998      439.599      122.413        0.078      342.334       17.669      862.503
11/07/2013  15:38:00     -466.155     -162.310      -24.972      241.580      204.728       89.540    58361.129    41913.702     8017.346       17.626        5.415      493.604      100.896        0.042      342.324       17.652      862.507
11/07/2013  15:39:00     -412.133     -178.905      -22.778      253.881      180.741       81.146    64455.789    32667.185     6584.672       15.303        5.185      449.290       90.170        0.040      342.319       17.643      862.516
11/07/2013  15:40:00     -349.172     -166.947       15.242      256.792      150.984      115.228    65942.211    22796.030    13277.489       12.600        5.101      387.030      144.505        0.139      342.285       17.584      862.525
11/07/2013  15:41:00     -328.795     -139.772      -21.399      165.617      130.453       70.567    27429.009    17018.018     4979.735        8.876        2.471      357.271       68.018        0.036      342.280       17.576      862.561
11/07/2013  15:42:00     -365.256     -111.544        0.605      216.501      145.107       88.646    46872.577    21055.988     7858.190       11.081        3.789      381.909       90.913        0.057      342.284       17.583      862.577
11/07/2013  15:43:00     -428.802     -133.842      -33.357      279.313      171.698       95.134    78015.653    29480.178     9050.489       15.970        5.827      449.205      112.412        0.063      342.274       17.565      862.593
11/07/2013  15:44:00     -382.980     -202.162      -24.227      213.485      128.483       81.287    45575.960    16507.763     6607.608       12.840        3.435      433.062       95.666        0.049      342.279       17.577      862.616
11/07/2013  15:45:00     -447.682     -170.184      -24.213      206.186      164.411       97.313    42512.615    27030.967     9469.780       15.448        3.951      478.938      100.686        0.044      342.283       17.581      862.628
11/07/2013  15:46:00     -403.301     -298.628      -29.842      219.541      178.890      105.640    48198.033    32001.668    11159.874       17.203        4.568      501.827      109.613        0.048      342.268       17.555      862.617
11/07/2013  15:47:00     -319.073     -201.136        0.718      214.567      158.857       97.990    46039.085    25235.429     9601.946       11.156        4.044      377.178      116.192        0.095      342.292       17.597      862.639
11/07/2013  15:48:00     -301.984     -217.534      -23.214      208.690      155.413      102.182    43551.500    24153.163    10441.118       10.859        3.907      372.177      104.201        0.078      342.277       17.570      862.644
11/07/2013  15:49:00     -325.625     -112.967       15.128      184.119      112.453       80.426    33899.624    12645.630     6468.317        8.601        2.651      344.664       90.618        0.069      342.252       17.530      862.653
11/07/2013  15:50:00     -442.260     -193.273      -22.081      250.409      168.350      103.187    62704.841    28341.557    10647.587       16.755        5.085      482.648      113.466        0.055      342.235       17.500      862.628
11/07/2013  15:51:00     -210.305     -196.408        2.761      189.553      153.779       89.989    35930.392    23648.022     8098.064        7.523        3.384      287.757       95.924        0.111      342.227       17.485      862.654
11/07/2013  15:52:00     -360.686     -119.662       -7.332      189.639      157.023       77.349    35963.076    24656.083     5982.869       10.552        3.330      380.018       75.837        0.040      342.226       17.484      862.620
11/07/2013  15:53:00     -420.486      -80.494      -13.500      194.715      142.069       85.810    37913.868    20183.543     7363.425       12.445        3.273      428.121       91.754        0.046      342.220       17.475      862.629
11/07/2013  15:54:00     -347.127     -163.052      -11.635      195.066      178.837       86.333    38050.862    31982.565     7453.387       11.234        3.874      383.514       94.130        0.060      342.219       17.472      862.628
11/07/2013  15:55:00     -379.684     -172.923        7.161      196.706      204.763      103.674    38693.380    41928.077    10748.372       13.273        4.568      417.208      105.748        0.064      342.216       17.467      862.626
11/07/2013  15:56:00     -420.688     -104.368       -3.986      196.563      117.675       71.426    38637.090    13847.471     5101.699       12.273        2.879      433.441       82.578        0.036      342.207       17.453      862.629
11/07/2013  15:57:00     -371.287      -89.193       -5.108      260.636      215.269       90.387    67931.093    46340.829     8169.791       13.412        6.122      381.850       87.104        0.052      342.177       17.401      862.628
11/07/2013  15:58:00     -257.644     -106.222        7.413      204.878      151.168       74.142    41975.103    22851.862     5497.093        7.401        3.516      278.682       83.923        0.091      342.187       17.419      862.612
11/07/2013  15:59:00     -249.094     -110.044       -3.075      195.978      117.552       63.790    38407.299    13818.369     4069.147        6.522        2.815      272.319       79.615        0.085      342.194       17.431      862.589
11/07/2013  16:00:00     -341.297     -131.485        2.780      205.332      179.398       86.745    42161.363    32183.590     7524.689       10.781        4.093      365.749       88.754        0.059      342.191       17.426      862.550
11/07/2013  16:01:00     -335.095     -180.066        8.418      204.955      153.437       84.805    42006.443    23543.004     7191.872       10.875        3.637      380.411       85.681        0.051      342.201       17.441      862.568
11/07/2013  16:02:00     -214.196     -148.179       -0.682      109.927      117.615       55.044    12083.977    13833.338     3029.841        4.839        1.447      260.455       57.141        0.048      342.192       17.425      862.592
11/07/2013  16:03:00     -226.501      -13.699       -1.560      111.598       98.000       60.953    12454.056     9604.046     3715.238        3.863        1.289      226.915       46.525        0.042      342.183       17.411      862.564
11/07/2013  16:04:00     -239.550     -198.656      -13.727      122.940       92.248       52.810    15114.301     8509.763     2788.879        6.172        1.321      311.205       57.936        0.035      342.198       17.438      862.546
11/07/2013  16:05:00     -233.193     -127.970        2.771      131.751       82.447       48.220    17358.318     6797.561     2325.187        4.862        1.324      265.998       59.674        0.050      342.161       17.374      862.530
11/07/2013  16:06:00     -327.398     -255.502       -2.414      257.184      173.932       88.298    66143.438    30252.514     7796.543       13.832        5.210      415.296      110.827        0.071      342.190       17.422      862.494
11/07/2013  16:07:00     -419.663     -136.006      -23.827      217.331      279.372      106.291    47232.611    78048.513    11297.874       16.586        6.829      441.152      116.350        0.070      342.166       17.382      862.513
11/07/2013  16:08:00     -384.158      -32.544      -13.246      147.744      143.782       75.425    21828.428    20673.376     5688.911        9.849        2.410      385.534       71.049        0.034      342.156       17.365      862.550
11/07/2013  16:09:00     -349.498     -135.851       -2.284      188.129      148.526       90.393    35392.364    22059.857     8170.865       10.311        3.281      374.973       67.916        0.033      342.120       17.305      862.557
11/07/2013  16:10:00     -346.059     -137.645        5.649      184.557      175.035       80.831    34061.385    30637.158     6533.585       10.497        3.562      372.429       75.210        0.041      342.101       17.273      862.558
11/07/2013  16:11:00     -276.703     -196.832       18.449      215.878      161.089       89.959    46603.361    25949.570     8092.674        9.813        4.032      339.569       98.844        0.085      342.086       17.247      862.572
11/07/2013  16:12:00     -345.594     -186.520      -13.172      251.952      144.574       83.080    63479.891    20901.554     6902.368       12.283        4.564      392.715       90.178        0.053      342.108       17.282      862.572
11/07/2013  16:13:00     -502.089     -229.542      -42.231      234.766      157.435      103.409    55115.052    24785.691    10693.469       19.857        4.530      552.072      116.401        0.044      342.099       17.269      862.561
11/07/2013  16:14:00     -216.244     -178.902       -9.449      189.214      167.167       80.071    35801.839    27944.807     6411.378        7.450        3.508      280.655       93.742        0.112      342.092       17.258      862.534
11/07/2013  16:15:00     -390.866     -254.339       -3.102      232.887      178.510       88.635    54236.204    31865.908     7856.120       15.570        4.698      466.331      110.665        0.056      342.062       17.207      862.521
11/07/2013  16:16:00     -434.121     -196.503      -20.157      153.808      145.637       71.071    23656.875    21210.164     5051.097       13.869        2.496      476.524       70.842        0.022      342.057       17.198      862.514
11/07/2013  16:17:00     -268.830     -199.293        1.838      175.877      144.537       81.800    30932.654    20890.954     6691.302        8.524        2.926      334.645       97.147        0.084      342.042       17.171      862.525
11/07/2013  16:18:00     -305.908     -177.528      -14.131      138.403      124.367       71.039    19155.439    15467.117     5046.533        8.248        1.983      353.689       67.707        0.037      342.027       17.147      862.538
11/07/2013  16:19:00     -411.359     -186.546      -15.348      207.541      175.061       96.220    43073.227    30646.193     9258.268       14.360        4.149      451.681      104.467        0.053      342.026       17.143      862.542
11/07/2013  16:20:00     -177.525      -49.446        6.872      140.600      119.399       62.467    19768.223    14256.160     3902.092        3.596        1.896      184.283       69.811        0.144      342.026       17.145      862.566
11/07/2013  16:21:00     -249.406     -164.873      -10.916      123.158      109.867       63.491    15167.995    12070.775     4031.120        6.038        1.563      298.976       61.977        0.043      342.008       17.114      862.551
11/07/2013  16:22:00     -184.351      -70.068        0.040      145.032      110.017       58.269    21034.247    12103.817     3395.255        3.771        1.827      197.217       46.043        0.055      341.982       17.070      862.544
11/07/2013  16:23:00     -256.775     -128.815       -9.504      139.625      107.706       51.500    19495.086    11600.668     2652.235        5.818        1.687      287.275       51.449        0.032      341.996       17.093      862.522
11/07/2013  16:24:00     -416.754      -47.895      -10.632      213.425      166.116       91.094    45550.066    27594.466     8298.176       12.875        4.072      419.497       98.162        0.055      341.968       17.047      862.512
11/07/2013  16:25:00     -303.076     -153.818       -5.220      167.778      141.112       77.817    28149.342    19912.712     6055.488        8.482        2.706      339.875       89.996        0.070      341.972       17.052      862.501
11/07/2013  16:26:00     -460.668     -244.391      -15.041      230.648      175.251      102.031    53198.425    30713.044    10410.259       18.323        4.716      521.481      108.903        0.044      341.959       17.031      862.466
11/07/2013  16:27:00     -462.305     -173.673      -21.155      188.170      184.651       95.145    35407.894    34096.056     9052.664       16.143        3.928      493.850      100.362        0.041      341.941       17.000      862.447
11/07/2013  16:28:00     -368.212      -79.328      -11.291      179.772      108.847       80.262    32318.000    11847.688     6441.969        9.630        2.530      376.661       77.116        0.042      341.944       17.005      862.421
11/07/2013  16:29:00     -359.880     -155.632        3.940      217.911      165.617       90.230    47485.144    27429.120     8141.454       11.839        4.153      392.091      110.431        0.079      341.909       16.946      862.389
11/07/2013  16:30:00     -270.878      -64.644        9.426      187.993      147.237       76.284    35341.551    21678.792     5819.192        7.023        3.142      278.485       82.366        0.087      341.899       16.929      862.367
11/07/2013  16:31:00     -276.343     -200.353      -10.654      166.959      236.492       84.254    27875.179    55928.560     7098.667       10.375        4.545      341.331       87.083        0.065      341.895       16.922      862.359
11/07/2013  16:32:00     -367.146     -160.544      -12.814      215.842      141.130       89.578    46587.609    19917.651     8024.244       11.762        3.726      400.712      111.524        0.077      341.892       16.917      862.350
11/07/2013  16:33:00     -385.243     -217.665      -31.758      197.378      178.356       85.669    38958.120    31810.935     7339.240       13.744        3.905      442.482       97.215        0.048      341.880       16.896      862.358
11/07/2013  16:34:00     -294.991     -160.070       -9.867      158.492      154.345       75.011    25119.819    23822.262     5626.593        8.364        2.728      335.621       85.594        0.065      341.896       16.924      862.388
11/07/2013  16:35:00     -296.815     -212.779      -13.880      137.444      109.055       74.215    18890.887    11893.082     5507.926        8.492        1.815      365.204       77.449        0.045      341.899       16.928      862.387
11/07/2013  16:36:00     -280.919     -160.210        4.683      156.242      122.324       79.410    24411.540    14963.148     6305.890        7.513        2.284      323.392       84.280        0.068      341.843       16.833      862.422
11/07/2013  16:37:00     -320.082      -11.329      -25.870      153.997      139.210       50.480    23715.061    19379.461     2548.240        7.444        2.282      320.282       54.346        0.029      341.828       16.808      862.448
11/07/2013  16:38:00     -211.275      -51.057       -4.868      114.132       88.774       54.186    13026.074     7880.737     2936.115        3.555        1.192      217.357       62.480        0.083      341.755       16.684      862.485
11/07/2013  16:39:00     -317.101      -97.143      -14.469      113.125      182.522       65.853    12797.331    33314.298     4336.666        8.032        2.522      331.647       50.293        0.023      341.766       16.702      862.513
11/07/2013  16:40:00     -348.601      -78.680      -22.024      137.144      122.475       59.020    18808.496    15000.141     3483.413        8.274        1.865      357.370       51.082        0.020      341.800       16.759      862.530
11/07/2013  16:41:00     -320.619     -127.975      -18.154      148.055      121.391       78.921    21920.251    14735.890     6228.453        8.119        2.144      345.216       68.261        0.039      341.757       16.686      862.560
11/07/2013  16:42:00     -429.336     -197.915      -22.785      172.716      101.276       69.414    29830.692    10256.876     4818.336       13.446        2.245      472.758       74.103        0.025      341.798       16.756      862.570
11/07/2013  16:43:00     -215.129      -35.283       -7.097       99.186      101.406       49.856     9837.802    10283.227     2485.647        3.509        1.130      218.003       49.047        0.051      341.727       16.637      862.584
11/07/2013  16:44:00     -234.106      -37.889      -19.118      112.457       86.946       50.947    12646.520     7559.648     2595.590        3.970        1.140      237.152       48.837        0.042      341.713       16.614      862.591
11/07/2013  16:45:00     -107.646     -105.314       -2.591       89.982       88.679       46.112     8096.843     7863.954     2126.277        2.038        0.904      150.595       42.477        0.080      341.662       16.529      862.595
11/07/2013  16:46:00     -229.040      -77.289        7.869      117.870      109.107       63.716    13893.304    11904.424     4059.711        4.417        1.493      241.729       67.825        0.079      341.690       16.575      862.594
11/07/2013  16:47:00     -267.453     -183.641       -3.025      137.080      139.229       67.261    18791.056    19384.764     4524.021        7.397        2.135      324.430       66.439        0.042      341.683       16.563      862.576
11/07/2013  16:48:00     -204.248     -183.793       -1.043      135.665      105.157       77.208    18405.006    11058.099     5960.999        5.546        1.771      274.767       88.544        0.104      341.670       16.541      862.548
11/07/2013  16:49:00     -228.960     -132.347        1.228      148.275      120.570       71.236    21985.614    14537.207     5074.499        5.576        2.080      264.458       75.228        0.081      341.621       16.459      862.543
11/07/2013  16:50:00     -206.127     -127.220       13.021      173.200      141.797       66.450    29998.395    20106.348     4415.572        5.667        2.726      242.225       81.081        0.112      341.601       16.424      862.548
11/07/2013  16:51:00     -349.862     -131.263      -24.061      124.744      124.817       72.338    15560.991    15579.209     5232.832        8.829        1.819      373.676       67.564        0.033      341.645       16.498      862.521
11/07/2013  16:52:00     -253.857     -108.105      -16.871      145.205      131.883       63.066    21084.348    17393.036     3977.360        5.943        2.123      275.917       79.595        0.083      341.571       16.374      862.526
11/07/2013  16:53:00     -270.194     -140.153      -14.999       84.605       89.118       52.538     7158.016     7942.099     2760.201        5.536        0.893      304.380       55.647        0.033      341.591       16.405      862.539
11/07/2013  16:54:00     -247.236     -169.468        5.710      213.263      154.497       89.058    45480.935    23869.477     7931.293        8.357        3.864      299.741      116.373        0.151      341.607       16.434      862.534
11/07/2013  16:55:00     -377.522     -206.171      -23.836      168.715      111.284       78.690    28464.874    12384.201     6192.133       11.631        2.352      430.150       78.415        0.033      341.614       16.446      862.533
11/07/2013  16:56:00     -350.118     -132.228      -26.548      195.223      119.581       73.064    38112.075    14299.552     5338.305        9.925        2.887      374.255       92.072        0.061      341.603       16.427      862.554
11/07/2013  16:57:00     -212.295      -45.040        7.580      124.925       75.818       61.806    15606.289     5748.404     3820.039        3.616        1.259      217.021       68.461        0.100      341.478       16.215      862.559
11/07/2013  16:58:00     -271.614     -107.652       -7.201      101.846       94.740       47.981    10372.611     8975.645     2302.215        5.353        1.083      292.170       53.986        0.034      341.519       16.285      862.549
11/07/2013  16:59:00     -231.072     -161.286      -11.079      115.048       90.256       62.058    13236.135     8146.098     3851.143        5.238        1.262      281.793       62.964        0.050      341.512       16.274      862.551
11/07/2013  17:00:00     -283.606     -186.833      -12.984      127.665      121.322       62.341    16298.375    14719.126     3886.382        7.520        1.745      339.616       62.452        0.034      341.531       16.305      862.533
11/07/2013  17:01:00     -232.815     -105.815        0.995      108.561      100.434       56.713    11785.468    10086.977     3216.403        4.524        1.254      255.733       50.463        0.039      341.475       16.210      862.531
11/07/2013  17:02:00     -243.870      -87.316       -2.037      123.406       87.011       48.767    15228.932     7570.873     2378.257        4.614        1.259      259.031       51.274        0.039      341.427       16.128      862.534
11/07/2013  17:03:00     -203.948      -37.448       12.901      131.709       83.121       60.568    17347.328     6909.184     3668.529        3.554        1.396      207.357       62.461        0.091      341.394       16.073      862.535
11/07/2013  17:04:00     -152.295      -91.982        3.384      110.906       70.744       61.005    12300.064     5004.667     3721.616        2.634        1.051      177.917       65.976        0.138      341.372       16.036      862.534
11/07/2013  17:05:00     -152.922      -97.109       -1.107      156.705      119.121       67.643    24556.358    14189.734     4575.596        3.806        2.166      181.150       71.136        0.154      341.379       16.049      862.522
11/07/2013  17:06:00     -307.195     -101.398      -10.619      161.672      112.018       69.809    26137.773    12547.944     4873.239        7.415        2.178      323.497       80.478        0.062      341.354       16.006      862.489
11/07/2013  17:07:00     -323.484     -121.720       -3.046      112.687      106.984       62.052    12698.375    11445.526     3850.417        7.373        1.400      345.627       49.678        0.021      341.404       16.089      862.476
11/07/2013  17:08:00     -331.501     -117.329       -5.056      199.428      133.756       76.368    39771.698    17890.598     5832.135        9.358        3.175      351.652       85.444        0.059      341.373       16.038      862.478
11/07/2013  17:09:00     -238.398      -71.569       -0.210      135.656      105.333       60.515    18402.647    11095.003     3662.006        4.755        1.658      248.909       62.439        0.063      341.349       15.998      862.470
11/07/2013  17:10:00     -279.623     -108.738      -12.112      151.305      106.400       64.184    22893.057    11320.945     4119.544        6.424        1.917      300.022       74.537        0.062      341.394       16.073      862.461
11/07/2013  17:11:00     -262.388      -75.367        0.366      130.170       90.762       66.621    16944.256     8237.788     4438.375        5.207        1.481      272.997       67.975        0.062      341.380       16.049      862.495
11/07/2013  17:12:00     -298.402      -26.578      -12.131      113.365       78.279       52.172    12851.725     6127.631     2721.939        5.580        1.085      299.583       57.728        0.037      341.292       15.901      862.529
11/07/2013  17:13:00     -176.451      -29.505        6.865      105.671       91.939       57.183    11166.411     8452.716     3269.935        2.747        1.144      178.901       53.958        0.091      341.218       15.776      862.569
11/07/2013  17:14:00     -304.872      -59.481      -18.924      140.905       93.318       60.104    19854.336     8708.216     3612.526        6.450        1.609      310.620       60.857        0.038      341.337       15.976      862.593
11/07/2013  17:15:00     -442.723     -102.467       -9.321      129.085      148.320       66.184    16662.973    21998.842     4380.296       12.481        2.152      454.427       70.817        0.024      341.373       16.038      862.621
11/07/2013  17:16:00     -314.609      -76.994      -13.377      124.319      115.435       62.161    15455.225    13325.198     3864.006        6.886        1.632      323.894       63.949        0.039      341.366       16.026      862.658
11/07/2013  17:17:00     -282.397      -51.522      -21.386      145.222      109.823       59.094    21089.572    12061.100     3492.076        5.975        1.832      287.059       65.291        0.052      341.331       15.967      862.675
11/07/2013  17:18:00     -453.227     -121.187      -30.243      143.079      143.269       76.827    20471.502    20525.943     5902.371       13.395        2.345      469.149       68.156        0.021      341.346       15.990      862.694
11/07/2013  17:19:00     -338.808      -59.548       -4.531      122.357       95.090       61.568    14971.208     9042.072     3790.615        7.308        1.390      344.001       62.152        0.033      341.296       15.907      862.765
11/07/2013  17:20:00     -206.905      -44.113        8.996      110.307      123.342       60.057    12167.547    15213.350     3606.884        3.791        1.549      211.555       63.026        0.089      341.190       15.728      862.786
11/07/2013  17:21:00     -404.323      -59.632      -10.230       93.999      128.497       54.900     8835.823    16511.383     3014.026        9.774        1.418      408.697       50.350        0.015      341.368       16.027      862.809
11/07/2013  17:22:00     -277.312      -68.699        0.699       95.145       89.692       52.223     9052.503     8044.743     2727.240        5.072        0.991      285.695       41.601        0.021      341.271       15.864      862.825
11/07/2013  17:23:00     -272.565      -81.763      -10.285       95.592       89.749       40.751     9137.755     8054.815     1660.672        4.996        0.943      284.564       30.133        0.011      341.284       15.887      862.843
11/07/2013  17:24:00     -231.031     -130.853       -0.947       95.290       75.486       41.123     9080.102     5698.175     1691.114        4.348        0.823      265.514       40.537        0.023      341.195       15.734      862.846
11/07/2013  17:25:00     -343.957      -57.391      -12.813      116.770       89.834       54.353    13635.247     8070.179     2954.196        7.321        1.233      348.712       57.024        0.027      341.233       15.800      862.854
11/07/2013  17:26:00     -340.865     -131.799      -14.014      140.807      105.131       53.439    19826.693    11052.553     2855.702        8.374        1.687      365.458       65.511        0.032      341.230       15.796      862.849
11/07/2013  17:27:00     -319.434      -94.774      -11.898       91.893       66.414       50.025     8444.372     4410.782     2502.532        6.326        0.768      333.197       50.040        0.023      341.207       15.756      862.838
11/07/2013  17:28:00     -327.399      -65.713       -8.023      134.821      106.304       60.241    18176.698    11300.571     3628.959        7.233        1.655      333.929       69.802        0.044      341.164       15.683      862.805
11/07/2013  17:29:00     -469.790     -108.373      -26.747      141.303      122.101       75.432    19966.469    14908.584     5690.061       13.686        2.028      482.128       56.216        0.014      341.200       15.743      862.811
11/07/2013  17:30:00     -384.375      -92.212      -11.597      136.614       92.095       69.576    18663.445     8481.441     4840.765        9.418        1.599      395.281       69.225        0.031      341.146       15.653      862.802
11/07/2013  17:31:00     -285.766      -65.976        2.143      122.592       87.524       64.556    15028.881     7660.423     4167.480        5.643        1.343      293.283       69.015        0.055      341.120       15.609      862.794
11/07/2013  17:32:00     -280.959      -53.269       -9.140      129.240       92.756       64.158    16703.073     8603.591     4116.232        5.564        1.471      285.965       67.471        0.056      341.135       15.635      862.791
11/07/2013  17:33:00     -279.701     -128.838      -10.340      114.941      104.946       59.928    13211.471    11013.740     3591.421        6.137        1.391      307.948       53.894        0.031      341.157       15.673      862.778
11/07/2013  17:34:00     -328.580      -56.535       -5.810      167.204      100.934       59.886    27957.319    10187.742     3586.390        7.646        2.087      333.409       62.129        0.035      341.093       15.564      862.755
11/07/2013  17:35:00     -330.658      -83.610      -11.284      157.961      116.028       68.827    24951.630    13462.449     4737.198        7.979        2.158      341.065       74.934        0.048      341.178       15.707      862.746
11/07/2013  17:36:00     -213.954      -39.355       -7.840       98.503       78.471       52.109     9702.788     6157.709     2715.390        3.298        0.929      217.543       55.041        0.064      341.050       15.491      862.752
11/07/2013  17:37:00     -170.310      -53.637       10.382      119.895       95.066       53.987    14374.717     9037.577     2914.579        2.915        1.316      178.556       53.323        0.089      341.012       15.428      862.743
11/07/2013  17:38:00     -284.948     -101.292        4.365      173.474      127.491       74.647    30093.260    16254.045     5572.217        7.169        2.596      302.416       75.343        0.062      341.105       15.582      862.714
11/07/2013  17:39:00     -379.278     -193.278       -6.706      124.450      111.783       62.604    15487.740    12495.506     3919.248       10.657        1.595      425.685       60.091        0.020      341.160       15.677      862.696
11/07/2013  17:40:00     -259.912     -102.433       -1.120      154.751      122.741       63.189    23947.918    15065.336     3992.900        6.052        2.150      279.368       64.698        0.054      341.068       15.521      862.663
11/07/2013  17:41:00     -271.900     -112.227       -3.245      136.870       99.707       62.462    18733.390     9941.583     3901.509        5.955        1.629      294.151       68.423        0.054      341.059       15.506      862.640
11/07/2013  17:42:00     -255.631      -67.835       -7.013      170.764      112.146       72.268    29160.499    12576.643     5222.659        5.847        2.348      264.478       89.982        0.116      340.994       15.396      862.636
11/07/2013  17:43:00     -251.025      -68.982       -8.515       93.650       92.459       53.687     8770.253     8548.623     2882.283        4.402        1.010      260.331       52.799        0.041      340.991       15.391      862.642
11/07/2013  17:44:00     -260.906       -6.310        5.159      179.356       91.317       67.783    32168.630     8338.810     4594.468        5.661        2.255      260.983       68.584        0.069      340.926       15.281      862.611
11/07/2013  17:45:00     -406.255      -61.616      -18.419      125.961      114.303       63.967    15866.245    13065.258     4091.840       10.110        1.651      410.901       52.255        0.016      340.998       15.401      862.597
11/07/2013  17:46:00     -348.825      -52.499       -3.314      165.510      120.352       76.335    27393.482    14484.689     5827.049        8.607        2.385      352.754       78.966        0.050      340.973       15.359      862.622
11/07/2013  17:47:00     -272.101      -78.986       -5.848      164.283      125.771       73.102    26988.778    15818.353     5343.923        6.422        2.408      283.334       69.420        0.060      340.965       15.348      862.645
11/07/2013  17:48:00     -234.423      -78.053       -4.137      145.717      120.618       59.868    21233.305    14548.592     3584.146        5.021        1.968      247.076       68.755        0.077      340.941       15.305      862.655
11/07/2013  17:49:00     -247.222       24.223       -4.565      143.629      106.113       53.629    20629.421    11260.024     2876.074        4.824        1.738      248.406       54.798        0.049      340.950       15.322      862.656
11/07/2013  17:50:00     -224.618      -54.268       -1.679      106.906      111.443       48.307    11428.946    12419.503     2333.612        3.979        1.309      231.081       52.480        0.052      340.871       15.188      862.673
11/07/2013  17:51:00     -129.303      -60.801       18.409      140.420      109.420       68.635    19717.866    11972.761     4710.819        2.857        1.820      142.885       85.372        0.357      340.814       15.092      862.689
11/07/2013  17:52:00     -143.677      -23.057        3.791      123.970       72.478       53.142    15368.677     5253.103     2824.070        2.231        1.172      145.515       46.759        0.103      340.854       15.160      862.649
11/07/2013  17:53:00     -167.802      -80.242       -2.418      105.318       83.703       49.813    11091.899     7006.256     2481.313        2.759        1.029      186.001       58.751        0.100      340.834       15.126      862.650
11/07/2013  17:54:00     -213.207     -112.507      -13.947       73.495      103.818       46.591     5401.479    10778.264     2170.704        3.833        0.918      241.070       41.783        0.030      340.855       15.160      862.658
11/07/2013  17:55:00     -136.540      -52.756       12.623      112.664      121.212       67.768    12693.095    14692.261     4592.522        2.678        1.599      146.378       66.560        0.207      340.807       15.082      862.650
11/07/2013  17:56:00     -294.203      -52.507       -2.143      134.781      110.517       61.238    18165.919    12213.955     3750.091        6.172        1.706      298.852       63.693        0.045      340.787       15.046      862.635
11/07/2013  17:57:00     -211.910      -70.906       -2.881      118.168      103.940       53.298    13963.630    10803.521     2840.669        3.877        1.380      223.459       54.589        0.060      340.778       15.032      862.652
11/07/2013  17:58:00     -369.793      -83.488      -15.643      137.013       89.077       48.607    18772.592     7934.631     2362.685        8.651        1.453      379.101       46.313        0.015      340.833       15.123      862.686
11/07/2013  17:59:00     -432.268      -87.845      -23.361      118.354       94.392       58.949    14007.682     8909.832     3475.013       11.075        1.320      441.104       55.323        0.016      340.858       15.164      862.702
11/07/2013  18:00:00     -269.875      -81.358       10.183      160.920      134.459       71.573    25895.229    18079.321     5122.691        6.432        2.455      281.872       63.539        0.051      340.780       15.034      862.710
11/07/2013  18:01:00     -294.687      -76.302        9.602      148.660      131.575       73.138    22099.761    17311.964     5349.228        6.875        2.238      304.405       82.708        0.074      340.810       15.085      862.744
11/07/2013  18:02:00     -370.359       23.432      -24.976      104.693      118.936       49.092    10960.705    14145.715     2410.067        8.292        1.376      371.099       35.934        0.009      340.837       15.130      862.761
11/07/2013  18:03:00     -310.583      -93.428      -11.345      170.308      112.423       61.745    29004.929    12638.903     3812.429        7.538        2.273      324.330       71.629        0.049      340.780       15.034      862.747
11/07/2013  18:04:00     -341.028     -153.399      -11.415      169.687      133.234       69.286    28793.751    17751.221     4800.504        9.565        2.567      373.940       79.544        0.045      340.736       14.959      862.726
11/07/2013  18:05:00     -441.798      -79.777      -20.192      181.132      135.226       74.852    32808.693    18286.133     5602.764       12.932        2.835      448.943       81.759        0.033      340.762       15.004      862.748
11/07/2013  18:06:00     -447.753      -68.683      -18.434      176.226      115.458       78.913    31055.548    13330.524     6227.228       12.807        2.531      452.990       90.188        0.040      340.742       14.970      862.765
11/07/2013  18:07:00     -331.529      -79.927      -15.267      150.653      121.631       80.791    22696.357    14794.051     6527.232        8.027        2.201      341.028       79.755        0.055      340.745       14.975      862.755
11/07/2013  18:08:00     -256.000      -61.257        0.898      134.288       95.155       59.173    18033.337     9054.507     3501.472        4.993        1.529      263.227       66.545        0.064      340.646       14.808      862.737
11/07/2013  18:09:00     -314.931      -73.346       -8.802      135.576      102.562       71.902    18380.926    10518.980     5169.863        6.935        1.703      323.360       77.224        0.057      340.691       14.884      862.724
11/07/2013  18:10:00     -271.276      -45.578       -5.521       87.709      101.208       51.939     7692.926    10243.007     2697.691        4.816        1.032      275.079       41.388        0.023      340.680       14.864      862.696
11/07/2013  18:11:00     -255.377      -75.871      -10.857       91.117       93.382       54.351     8302.237     8720.212     2954.024        4.553        0.999      266.409       45.668        0.029      340.624       14.770      862.700
11/07/2013  18:12:00     -366.784      -77.086      -19.904      128.522      135.847       68.454    16517.909    18454.496     4685.913        9.026        1.983      374.797       59.105        0.025      340.781       15.036      862.704
11/07/2013  18:13:00     -183.091      -62.253        3.319      102.478       87.828       40.405    10501.770     7713.742     1632.529        2.863        0.992      193.385       44.778        0.054      340.653       14.820      862.687
11/07/2013  18:14:00     -179.892        0.346        1.117       90.638       64.835       51.552     8215.264     4203.536     2657.590        2.372        0.754      179.892       53.148        0.087      340.619       14.762      862.674
11/07/2013  18:15:00     -451.634      -81.410       -8.146      193.366      136.334       81.706    37390.218    18586.850     6675.884       13.665        3.133      458.913       97.300        0.045      340.715       14.923      862.641
11/07/2013  18:16:00     -334.251      -70.075       -1.147      163.792      128.017       72.367    26827.891    16388.423     5237.021        8.254        2.423      341.518       82.669        0.059      340.643       14.802      862.645
11/07/2013  18:17:00     -255.100      -63.562       -1.738      140.715       86.803       61.462    19800.760     7534.679     3777.518        5.011        1.556      262.899       71.006        0.073      340.614       14.752      862.658
11/07/2013  18:18:00     -308.125      -59.962       -5.094      124.908      101.455       66.102    15601.989    10293.075     4369.410        6.441        1.513      313.905       65.521        0.044      340.623       14.769      862.681
11/07/2013  18:19:00     -305.598      -48.646      -15.506      141.273      131.922       72.227    19958.153    17403.532     5216.671        6.928        2.129      309.446       72.542        0.055      340.608       14.741      862.673
11/07/2013  18:20:00     -452.493      -46.475      -33.065      173.538      129.443       72.507    30115.270    16755.494     5257.198       13.006        2.606      454.874       61.507        0.018      340.758       14.996      862.620
11/07/2013  18:21:00     -305.742      -18.959      -25.527      121.377      105.071       60.418    14732.347    11039.931     3650.340        6.195        1.471      306.329       62.482        0.042      340.723       14.938      862.652
11/07/2013  18:22:00     -358.491      -66.157       -5.897      173.088      120.881       64.889    29959.314    14612.251     4210.531        9.085        2.439      364.544       74.485        0.042      340.664       14.837      862.699
11/07/2013  18:23:00     -273.780        4.181      -13.375      125.251      102.755       52.526    15687.929    10558.689     2758.942        5.207        1.450      273.812       55.033        0.040      340.663       14.835      862.714
11/07/2013  18:24:00     -308.182     -131.936      -10.928      183.106      139.210       62.402    33527.806    19379.469     3894.016        8.464        2.840      335.236       64.094        0.037      340.676       14.858      862.708
11/07/2013  18:25:00     -272.855      -98.921      -11.828      135.296      142.448       62.350    18304.925    20291.308     3887.568        6.342        2.124      290.233       58.195        0.040      340.693       14.884      862.688
11/07/2013  18:26:00     -285.664      -10.681      -17.070      131.987       81.042       56.909    17420.539     6567.845     3238.658        5.461        1.361      285.864       59.604        0.043      340.629       14.777      862.686
11/07/2013  18:27:00     -355.385      -88.653       -9.452      130.046      111.239       61.207    16911.975    12374.225     3746.349        8.363        1.652      366.275       52.372        0.020      340.612       14.749      862.694
11/07/2013  18:28:00     -259.566      -94.984      -13.467      114.877       87.776       58.451    13196.731     7704.629     3416.470        5.044        1.216      276.399       61.020        0.049      340.613       14.750      862.691
11/07/2013  18:29:00     -224.170      -75.210       -4.416      107.736       88.485       51.424    11607.045     7829.594     2644.423        3.900        1.104      236.450       52.974        0.050      340.574       14.684      862.694
11/07/2013  18:30:00     -287.397      -22.575      -12.417      146.563       96.765       62.609    21480.758     9363.553     3919.872        5.901        1.738      288.282       73.908        0.066      340.613       14.752      862.695
11/07/2013  18:31:00     -448.101      -72.124      -24.497      178.022      177.195       75.739    31691.911    31398.163     5736.421       13.770        3.441      453.868       79.631        0.031      340.680       14.865      862.658
11/07/2013  18:32:00     -327.979     -131.868      -21.353      139.463      102.376       67.840    19449.953    10480.879     4602.265        7.997        1.727      353.496       61.267        0.030      340.684       14.872      862.675
11/07/2013  18:33:00     -293.612     -103.048       -8.698      132.244      109.345       62.583    17488.566    11956.377     3916.591        6.513        1.668      311.170       65.580        0.044      340.629       14.777      862.720
11/07/2013  18:34:00     -270.868     -146.298       -3.252      104.180       74.398       50.615    10853.568     5535.102     2561.873        5.686        0.948      307.851       34.645        0.013      340.678       14.861      862.760
11/07/2013  18:35:00     -251.577     -107.237       -2.374      102.238      109.129       58.311    10452.533    11909.056     3400.151        5.027        1.288      273.479       58.658        0.046      340.635       14.788      862.778
11/07/2013  18:36:00     -268.899      -66.653        1.878      127.513      116.553       65.842    16259.519    13584.536     4335.134        5.546        1.709      277.037       66.698        0.058      340.584       14.702      862.789
11/07/2013  18:37:00     -339.929      -35.267      -10.751      173.307       98.854       64.768    30035.439     9772.050     4194.919        8.045        2.200      341.754       77.773        0.052      340.628       14.776      862.793
11/07/2013  18:38:00     -200.386       -4.858      -10.965      114.239      110.686       47.390    13050.492    12251.460     2245.779        3.392        1.377      200.444       48.241        0.058      340.546       14.638      862.765
11/07/2013  18:39:00     -244.570      -71.252      -27.494      117.141      109.211       56.849    13722.120    11927.086     3231.864        4.726        1.444      254.738       57.798        0.051      340.547       14.638      862.732
11/07/2013  18:40:00     -279.860      -94.307      -11.217      110.816       94.528       58.504    12280.081     8935.463     3422.684        5.599        1.232      295.322       55.243        0.035      340.491       14.544      862.737
11/07/2013  18:41:00     -403.464     -180.086      -30.639      152.813      128.846       85.198    23351.719    16601.410     7258.723       12.167        2.361      441.831       81.200        0.034      340.601       14.731      862.738
11/07/2013  18:42:00     -356.437     -154.008      -32.174      145.539      101.818       68.523    21181.709    10366.965     4695.341        9.402        1.812      388.285       56.506        0.021      340.616       14.755      862.780
11/07/2013  18:43:00     -273.042      -82.034       -9.131      133.279       99.787       65.959    17763.372     9957.488     4350.526        5.671        1.604      285.100       63.558        0.050      340.616       14.756      862.798
11/07/2013  18:44:00     -258.543      -71.525      -19.691      125.685      112.875       62.843    15796.639    12740.687     3949.301        5.241        1.624      268.255       63.268        0.056      340.569       14.676      862.790
11/07/2013  18:45:00     -423.770      -72.764      -19.695      164.274       97.191       63.657    26986.012     9446.174     4052.190       11.287        2.024      429.971       70.706        0.027      340.607       14.742      862.800
11/07/2013  18:46:00     -327.480     -115.572       -0.894      149.105      133.872       76.452    22232.311    17921.800     5844.954        8.329        2.300      347.275       75.158        0.047      340.583       14.701      862.813
11/07/2013  18:47:00     -379.974     -108.760      -13.467      121.504      114.822       62.721    14763.113    13184.017     3933.970        9.413        1.594      395.233       67.964        0.030      340.626       14.772      862.786
11/07/2013  18:48:00     -348.706      -76.606      -13.503      169.809      118.259       79.485    28835.019    13985.159     6317.888        8.838        2.457      357.021       79.109        0.049      340.611       14.749      862.777
11/07/2013  18:49:00     -371.803      -22.366      -10.305      120.034      102.330       66.627    14408.270    10471.519     4439.148        8.408        1.466      372.475       70.206        0.036      340.591       14.713      862.778
11/07/2013  18:50:00     -376.086      -66.388       -6.612      152.088      115.765       61.189    23130.829    13401.636     3744.068        9.308        2.014      381.901       71.293        0.035      340.589       14.711      862.763
11/07/2013  18:51:00     -352.979     -109.205       -9.010      160.605       86.246       63.114    25794.015     7438.363     3983.322        8.690        1.861      369.486       73.271        0.039      340.559       14.659      862.738
11/07/2013  18:52:00     -368.016      -55.786      -10.564      160.926      104.905       73.998    25897.025    11004.960     5475.655        9.051        2.119      372.220       82.673        0.049      340.579       14.691      862.726
11/07/2013  18:53:00     -278.954      -80.614       -2.882      178.984       99.520       62.892    32035.170     9904.283     3955.345        6.510        2.295      290.369       81.162        0.078      340.539       14.626      862.705
11/07/2013  18:54:00     -205.514      -54.975       -2.226      124.807       90.253       65.504    15576.684     8145.526     4290.780        3.663        1.401      212.740       73.765        0.120      340.542       14.633      862.679
11/07/2013  18:55:00     -294.531      -82.633       -0.221      156.296       86.814       61.788    24428.561     7536.616     3817.738        6.467        1.789      305.903       73.908        0.058      340.549       14.643      862.670
11/07/2013  18:56:00     -276.404      -76.889      -12.279      115.490      128.388       57.109    13337.846    16483.350     3261.469        5.777        1.654      286.899       50.913        0.031      340.568       14.676      862.635
11/07/2013  18:57:00     -210.650      -83.164        5.472      119.846      112.155       55.552    14363.065    12578.735     3085.984        4.067        1.501      226.472       58.540        0.067      340.557       14.657      862.606
11/07/2013  18:58:00     -193.010     -104.154        4.892      137.757      134.961       72.129    18976.966    18214.505     5202.543        4.525        2.120      219.319       77.174        0.124      340.559       14.661      862.568
11/07/2013  18:59:00     -318.676     -101.160       -9.077      154.450      136.227       64.943    23854.916    18557.741     4217.588        7.924        2.332      334.347       67.516        0.041      340.561       14.662      862.545
11/07/2013  19:00:00     -257.352     -107.960       -7.804      147.471      109.101       64.530    21747.751    11902.997     4164.094        5.787        1.891      279.080       69.293        0.062      340.563       14.665      862.540
11/07/2013  19:01:00     -228.072       16.423       16.787      116.345      119.618       67.993    13536.232    14308.467     4623.069        4.251        1.623      228.662       53.311        0.054      340.573       14.684      862.500
11/07/2013  19:02:00     -285.389      -85.470      -20.573      181.809      102.878       65.795    33054.618    10583.963     4328.917        6.856        2.398      297.913       83.030        0.078      340.594       14.718      862.492
11/07/2013  19:03:00     -218.919      -65.573        2.381      168.993      132.905       83.568    28558.502    17663.766     6983.597        5.271        2.660      228.529       97.777        0.183      340.548       14.642      862.477
11/07/2013  19:04:00     -263.297      -37.722       -3.025      180.000       98.907       70.071    32400.108     9782.693     4909.957        5.892        2.355      265.986       86.303        0.105      340.566       14.672      862.496
11/07/2013  19:05:00     -318.820     -130.009       -5.703      138.777      130.473       77.766    19259.039    17023.216     6047.604        8.045        2.116      344.309       62.155        0.033      340.614       14.752      862.511
11/07/2013  19:06:00     -205.505     -113.749       -2.803      171.725       95.119       58.103    29489.511     9047.596     3376.001        4.854        2.096      234.885       78.616        0.112      340.599       14.728      862.505
11/07/2013  19:07:00     -287.719      -86.221      -13.471      200.733      109.605       72.154    40293.796    12013.179     5206.137        7.395        2.876      300.360       89.102        0.088      340.567       14.673      862.512
11/07/2013  19:08:00     -245.161      -64.750        0.098      185.023      132.715       73.124    34233.354    17613.219     5347.151        6.074        2.860      253.567       88.753        0.123      340.573       14.683      862.540
11/07/2013  19:09:00     -258.859      -88.435       -2.208      177.511      116.879       67.373    31510.210    13660.710     4539.068        6.226        2.485      273.548       78.191        0.082      340.612       14.750      862.526
11/07/2013  19:10:00     -368.927      -16.343      -13.520      144.959      127.082       65.354    21013.232    16149.862     4271.136        8.899        2.072      369.289       56.548        0.023      340.582       14.698      862.560
11/07/2013  19:11:00     -373.963      -56.185      -18.619      155.432       99.135       61.539    24159.191     9827.813     3787.072        9.056        1.889      378.160       75.075        0.039      340.545       14.635      862.589
11/07/2013  19:12:00     -160.084      -43.386        5.278      143.414       87.680       47.764    20567.631     7687.704     2281.435        2.903        1.527      165.859       61.507        0.138      340.554       14.653      862.606
11/07/2013  19:13:00     -306.407      -44.388      -14.783      129.954      103.527       51.219    16888.029    10717.910     2623.427        6.315        1.511      309.605       56.845        0.034      340.504       14.566      862.621
11/07/2013  19:14:00     -311.376     -109.557      -10.216      124.896      103.991       48.121    15598.995    10814.145     2315.660        6.889        1.436      330.087       52.779        0.026      340.471       14.511      862.665
11/07/2013  19:15:00     -240.316       -9.908       -2.443       86.809       89.458       54.521     7535.807     8002.812     2972.534        3.818        0.926      240.520       51.719        0.046      340.506       14.569      862.703
11/07/2013  19:16:00     -251.345      -64.261      -18.547      154.732      105.715       65.023    23942.040    11175.577     4227.960        5.349        1.967      259.430       66.121        0.065      340.499       14.559      862.701
11/07/2013  19:17:00     -289.911      -46.315      -39.453       77.045       74.031       52.252     5935.877     5480.643     2730.295        5.095        0.707      293.588       38.352        0.017      340.474       14.514      862.705
11/07/2013  19:18:00     -295.193      -84.721      -19.385       87.453       80.627       46.647     7648.013     6500.739     2175.964        5.551        0.816      307.110       37.825        0.015      340.477       14.521      862.739
11/07/2013  19:19:00     -291.396      -48.521       -4.828      117.310       75.680       50.139    13761.729     5727.442     2513.885        5.464        1.100      295.408       53.677        0.033      340.432       14.445      862.764
11/07/2013  19:20:00     -304.359      -39.268      -17.120      108.892      116.530       56.395    11857.463    13579.161     3180.424        6.154        1.431      306.882       49.649        0.026      340.444       14.465      862.747
11/07/2013  19:21:00     -327.864      -27.589      -27.041       94.823       77.861       47.128     8991.312     6062.357     2221.087        6.313        0.864      329.023       45.674        0.019      340.435       14.449      862.718
11/07/2013  19:22:00     -274.479      -86.379       -7.495       86.486       86.107       42.321     7479.805     7414.442     1791.057        4.977        0.834      287.750       31.600        0.012      340.396       14.384      862.710
11/07/2013  19:23:00     -263.971      -57.050      -17.243      115.148      103.396       52.624    13259.020    10690.819     2769.303        4.997        1.336      270.065       58.363        0.047      340.369       14.338      862.711
11/07/2013  19:24:00     -303.760      -52.696      -15.835      117.154       81.253       59.778    13724.963     6602.062     3573.439        5.960        1.195      308.297       55.623        0.033      340.380       14.358      862.676
11/07/2013  19:25:00     -337.596      -71.134      -28.669      134.737       90.350       58.599    18153.960     8163.093     3433.839        7.480        1.488      345.008       60.803        0.031      340.394       14.381      862.658
11/07/2013  19:26:00     -266.810      -64.597        8.790      131.952       95.660       56.059    17411.349     9150.870     3142.598        5.257        1.485      274.519       58.619        0.046      340.397       14.386      862.659
11/07/2013  19:27:00     -338.299      -49.352       -8.966      128.004       76.873       51.091    16384.990     5909.506     2610.245        7.093        1.245      341.879       50.423        0.022      340.452       14.478      862.632
11/07/2013  19:28:00     -327.296      -75.028      -19.213      106.669       75.412       50.364    11378.182     5687.011     2536.546        6.636        0.980      335.785       41.065        0.015      340.432       14.445      862.591
11/07/2013  19:29:00     -300.427      -55.432        0.974      170.911       95.504       59.047    29210.617     9120.940     3486.539        6.757        2.091      305.499       77.961        0.065      340.337       14.285      862.602
11/07/2013  19:30:00     -325.441      -53.549      -11.432      130.827      103.916       50.932    17115.690    10798.504     2594.078        6.970        1.525      329.817       53.541        0.026      340.344       14.297      862.610
11/07/2013  19:31:00     -283.834      -71.405      -11.832      114.688      103.666       46.638    13153.317    10746.608     2175.067        5.593        1.304      292.678       55.210        0.036      340.340       14.290      862.596
11/07/2013  19:32:00     -214.268      -49.878       -1.905      103.356       95.771       52.883    10682.449     9172.108     2796.631        3.552        1.133      219.997       55.791        0.064      340.287       14.199      862.596
11/07/2013  19:33:00     -230.066      -54.391      -10.032      124.059       79.506       54.590    15390.719     6321.279     2980.031        4.034        1.235      236.408       55.972        0.056      340.297       14.218      862.592
11/07/2013  19:34:00     -235.372      -70.147       -2.629      100.345       84.817       51.086    10069.189     7193.933     2609.732        4.010        0.994      245.603       52.940        0.046      340.267       14.166      862.590
11/07/2013  19:35:00     -274.627      -48.612      -14.476      141.520       96.064       59.272    20027.906     9228.203     3513.176        5.538        1.638      278.897       64.440        0.053      340.268       14.168      862.558
11/07/2013  19:36:00     -378.974      -70.569       -6.702      140.482       99.193       68.580    19735.063     9839.347     4703.276        9.146        1.714      385.488       73.359        0.036      340.374       14.348      862.574
11/07/2013  19:37:00     -310.009      -27.734      -25.043       93.847       67.671       42.206     8807.307     4579.355     1781.354        5.633        0.758      311.247       33.274        0.011      340.264       14.160      862.595
11/07/2013  19:38:00     -354.017      -79.019      -20.561      127.402       81.021       63.745    16231.318     6564.322     4063.403        7.942        1.343      362.729       65.122        0.032      340.243       14.125      862.603
11/07/2013  19:39:00     -281.448      -81.843        4.457      115.168       93.301       54.400    13263.752     8705.140     2959.373        5.543        1.246      293.107       57.723        0.039      340.241       14.122      862.605
11/07/2013  19:40:00     -256.445      -23.914      -10.602      121.536       92.565       52.725    14770.893     8568.345     2779.935        4.628        1.306      257.558       57.758        0.050      340.215       14.077      862.580
11/07/2013  19:41:00     -289.469     -115.029       -2.083       96.989       75.197       48.657     9406.946     5654.631     2367.457        5.723        0.871      311.486       49.937        0.026      340.223       14.091      862.580
11/07/2013  19:42:00     -265.571      -55.320        3.979      159.945       86.225       60.376    25582.503     7434.707     3645.232        5.513        1.833      271.272       72.042        0.071      340.214       14.076      862.597
11/07/2013  19:43:00     -356.924      -18.428      -23.142      103.469       95.214       43.274    10705.840     9065.623     1872.675        7.495        1.082      357.400       43.667        0.015      340.254       14.145      862.601
11/07/2013  19:44:00     -188.896      -84.502       -9.656       87.003       78.804       47.986     7569.451     6210.134     2302.669        2.950        0.804      206.935       48.702        0.055      340.223       14.092      862.615
11/07/2013  19:45:00     -258.199      -52.639       -8.446       86.838       83.143       48.271     7540.924     6912.824     2330.128        4.314        0.839      263.510       44.622        0.029      340.125       13.927      862.627
11/07/2013  19:46:00     -259.767      -39.053       -6.547      110.635      104.260       60.884    12240.083    10870.162     3706.810        4.793        1.341      262.686       59.303        0.051      340.259       14.154      862.622
11/07/2013  19:47:00     -261.066      -46.223      -17.521      102.322       77.639       49.931    10469.831     6027.811     2493.120        4.479        0.950      265.127       48.329        0.033      340.221       14.088      862.647
11/07/2013  19:48:00     -307.425     -147.774       -2.404      145.453       98.893       66.563    21156.717     9779.840     4430.688        7.585        1.768      341.098       69.491        0.042      340.254       14.146      862.681
11/07/2013  19:49:00     -348.805     -110.983      -12.388      104.134       82.938       57.600    10843.820     6878.717     3317.711        7.758        1.052      366.036       48.055        0.017      340.251       14.139      862.715
11/07/2013  19:50:00     -274.474      -86.346       -6.201      142.978      112.049       70.399    20442.666    12554.883     4956.037        6.039        1.898      287.735       69.663        0.059      340.236       14.114      862.736
11/07/2013  19:51:00     -327.389      -84.147      -32.531      129.043       99.456       52.996    16652.180     9891.405     2808.568        7.233        1.468      338.030       48.583        0.021      340.258       14.151      862.742
11/07/2013  19:52:00     -270.144      -74.227      -11.321      117.222       87.892       51.179    13741.022     7724.961     2619.268        5.135        1.204      280.156       55.553        0.039      340.237       14.116      862.757
11/07/2013  19:53:00     -252.238      -59.111       -7.082       68.983       64.634       44.463     4758.659     4177.491     1976.964        3.904        0.546      259.072       41.322        0.025      340.237       14.112      862.763
11/07/2013  19:54:00     -275.779      -87.374      -17.475       78.005       84.427       38.757     6084.848     7127.935     1502.093        4.935        0.736      289.289       35.415        0.015      340.207       14.063      862.767
11/07/2013  19:55:00     -278.690      -66.001      -14.695       73.381       83.944       45.758     5384.841     7046.561     2093.836        4.838        0.726      286.398       40.279        0.020      340.201       14.054      862.801
11/07/2013  19:56:00     -343.772      -20.319      -44.365       84.048       73.838       43.430     7064.010     5452.078     1886.196        6.748        0.720      344.372       40.395        0.014      340.208       14.066      862.804
11/07/2013  19:57:00     -334.399      -52.927      -24.088      126.907       94.751       65.859    16105.294     8977.840     4337.374        7.231        1.471      338.562       59.258        0.031      340.216       14.079      862.820
11/07/2013  19:58:00     -274.851      -49.562       -8.830      115.813      107.353       52.867    13412.677    11524.713     2794.876        5.290        1.387      279.284       49.461        0.031      340.204       14.059      862.823
11/07/2013  19:59:00     -251.477      -48.366      -15.269       81.786       71.014       50.814     6689.022     5042.943     2582.106        4.006        0.716      256.086       34.410        0.018      340.165       13.994      862.845
11/07/2013  20:00:00     -321.929      -17.073      -22.316      100.032       86.299       57.122    10006.308     7447.514     3262.976        6.257        1.036      322.381       53.546        0.028      340.240       14.120      862.865
11/07/2013  20:01:00     -301.936      -64.177      -20.984      133.362       88.461       47.444    17785.471     7825.408     2250.915        6.179        1.393      308.681       57.127        0.034      340.206       14.063      862.876
11/07/2013  20:02:00     -254.654      -64.391      -18.674       82.290       82.538       51.026     6771.692     6812.573     2603.643        4.276        0.809      262.669       42.516        0.026      340.185       14.028      862.875
11/07/2013  20:03:00     -290.465      -93.747      -11.121      113.398       96.528       54.494    12859.199     9317.621     2969.615        5.921        1.257      305.219       56.228        0.034      340.229       14.102      862.863
11/07/2013  20:04:00     -306.036     -106.352      -13.493      123.880       88.509       45.275    15346.163     7833.866     2049.866        6.519        1.261      323.989       54.463        0.028      340.250       14.138      862.825
11/07/2013  20:05:00     -224.320     -100.978      -20.962      100.687       76.487       51.322    10137.893     5850.323     2633.970        3.979        0.931      246.000       31.731        0.017      340.217       14.081      862.799
11/07/2013  20:06:00     -340.491     -110.117      -14.459      106.112       85.610       52.134    11259.674     7329.088     2717.965        7.478        1.065      357.855       40.439        0.013      340.210       14.070      862.814
11/07/2013  20:07:00     -288.728     -127.178        1.797      130.435       93.745       57.256    17013.347     8788.038     3278.259        6.431        1.454      315.497       59.057        0.035      340.210       14.070      862.810
11/07/2013  20:08:00     -356.819     -103.891      -12.942      123.320      112.944       72.804    15207.729    12756.455     5300.364        8.577        1.663      371.636       71.906        0.037      340.251       14.139      862.782
11/07/2013  20:09:00     -330.554      -88.656       -9.311      149.667      115.983       59.437    22400.105    13452.051     3532.729        7.829        1.969      342.237       67.831        0.039      340.274       14.178      862.736
11/07/2013  20:10:00     -370.001     -151.014      -17.095      166.756       91.994       65.365    27807.424     8462.828     4272.547       10.026        2.027      399.633       68.615        0.029      340.305       14.231      862.736
11/07/2013  20:11:00     -375.252     -110.582      -20.056      158.450      110.901       59.510    25106.356    12299.033     3541.467        9.719        2.047      391.207       63.963        0.027      340.261       14.156      862.800
11/07/2013  20:12:00     -368.572      -81.787      -41.279      110.288       94.518       66.170    12163.377     8933.648     4378.466        8.485        1.274      377.537       60.915        0.026      340.267       14.167      862.822
11/07/2013  20:13:00     -253.233      -26.831       -3.940      100.172       91.791       55.393    10034.387     8425.557     3068.399        4.319        1.076      254.650       50.416        0.039      340.272       14.175      862.807
11/07/2013  20:14:00     -266.528      -40.396       -2.878      117.001       94.193       57.943    13689.255     8872.359     3357.438        4.929        1.296      269.572       53.438        0.039      340.279       14.188      862.789
11/07/2013  20:15:00     -283.411     -129.477      -14.273       91.617       97.545       53.628     8393.621     9514.994     2875.957        5.903        1.039      311.586       48.146        0.024      340.282       14.193      862.820
11/07/2013  20:16:00     -128.548      -45.458        2.583      101.615       84.077       46.930    10325.518     7068.887     2202.400        1.909        0.980      136.349       51.081        0.140      340.229       14.104      862.851
11/07/2013  20:17:00     -193.059     -145.594       -7.150      114.913      109.386       49.645    13204.950    11965.278     2464.606        4.307        1.382      241.804       56.091        0.054      340.299       14.222      862.841
11/07/2013  20:18:00     -113.993      -82.499      -15.848      103.190      117.466       48.622    10648.229    13798.168     2364.145        2.343        1.341      140.714       62.820        0.199      340.296       14.217      862.810
11/07/2013  20:19:00     -115.617      -28.132        3.148      104.116       80.707       42.062    10840.122     6513.643     1769.243        1.664        0.956      118.990       46.859        0.155      340.219       14.088      862.817
11/07/2013  20:20:00     -227.592      -69.305       -0.719       97.310       93.264       48.457     9469.316     8698.118     2348.123        3.856        1.026      237.911       41.257        0.030      340.280       14.188      862.836
11/07/2013  20:21:00     -227.212     -107.595        5.681      136.450      108.031       64.494    18618.490    11670.643     4159.480        4.884        1.722      251.400       64.016        0.065      340.267       14.167      862.860
11/07/2013  20:22:00     -363.421      -49.440      -26.491       98.997      112.292       51.116     9800.473    12609.578     2612.867        8.012        1.251      366.769       44.521        0.015      340.321       14.258      862.872
11/07/2013  20:23:00     -313.249      -48.179      -15.187      125.354       90.408       66.650    15713.734     8173.568     4442.208        6.450        1.416      316.933       70.632        0.050      340.288       14.202      862.894
11/07/2013  20:24:00     -275.131      -19.130      -18.830      124.237       67.553       38.275    15434.886     4563.448     1465.010        4.894        1.073      275.795       32.965        0.014      340.326       14.266      862.899
11/07/2013  20:25:00     -282.267      -50.501      -11.929      111.043       80.983       51.897    12330.609     6558.265     2693.280        5.197        1.079      286.749       56.822        0.039      340.322       14.260      862.903
11/07/2013  20:26:00     -272.297      -17.935      -12.272      128.474       86.854       58.850    16505.459     7543.574     3463.307        5.106        1.376      272.887       72.356        0.070      340.314       14.244      862.885
11/07/2013  20:27:00     -312.577     -103.595       -7.963      142.359      119.162       58.477    20266.143    14199.646     3419.526        7.319        1.894      329.297       62.399        0.036      340.298       14.220      862.869
11/07/2013  20:28:00     -248.033      -37.384      -12.520      102.490       83.956       51.023    10504.194     7048.630     2603.394        4.161        1.008      250.834       48.922        0.038      340.284       14.195      862.865
11/07/2013  20:29:00     -351.341      -71.786      -14.748      106.600       94.491       50.682    11363.577     8928.584     2568.703        7.583        1.143      358.600       43.935        0.015      340.305       14.231      862.855
11/07/2013  20:30:00     -280.847     -108.828       -8.407      138.717      107.243       58.363    19242.330    11501.042     3406.271        6.246        1.707      301.195       64.751        0.046      340.239       14.118      862.864
11/07/2013  20:31:00     -331.684      -75.618       -6.951      145.648      105.307       61.681    21213.374    11089.499     3804.559        7.594        1.805      340.195       68.386        0.040      340.294       14.212      862.882
11/07/2013  20:32:00     -288.046      -99.147       -1.570      133.226      106.027       59.155    17749.293    11241.773     3499.333        6.264        1.625      304.632       63.540        0.044      340.227       14.098      862.892
11/07/2013  20:33:00     -253.301      -51.643       -9.545       95.412       91.720       53.928     9103.543     8412.484     2908.253        4.367        1.021      258.512       52.502        0.041      340.287       14.199      862.899
11/07/2013  20:34:00     -343.948      -50.518      -10.236      153.695      106.207       60.892    23622.063    11279.903     3707.782        7.978        1.930      347.639       65.440        0.035      340.288       14.203      862.897
11/07/2013  20:35:00     -327.276      -60.705      -14.348      149.188      128.699       76.484    22257.097    16563.556     5849.809        7.783        2.234      332.859       66.464        0.040      340.278       14.184      862.877
11/07/2013  20:36:00     -363.586      -34.439      -23.350      107.077       95.423       55.396    11465.553     9105.569     3068.767        7.878        1.182      365.214       57.737        0.025      340.356       14.319      862.876
11/07/2013  20:37:00     -344.728     -123.251      -17.501      112.200       96.429       48.965    12588.787     9298.515     2397.577        7.931        1.214      366.099       51.285        0.020      340.302       14.226      862.864
11/07/2013  20:38:00     -344.566      -84.638      -19.440      114.156      111.538       60.098    13031.572    12440.750     3611.784        7.767        1.454      354.808       59.676        0.028      340.259       14.154      862.874
11/07/2013  20:39:00     -279.817      -35.079      -11.506       94.693       90.882       56.549     8966.791     8259.486     3197.828        5.004        1.021      282.007       56.517        0.040      340.247       14.132      862.856
11/07/2013  20:40:00     -299.588      -78.268       -9.088      120.763      113.314       56.697    14583.780    12840.058     3214.571        6.329        1.532      309.643       60.147        0.038      340.236       14.114      862.829
11/07/2013  20:41:00     -237.203      -60.136        8.096      150.684      104.744       64.014    22705.530    10971.264     4097.803        4.885        1.889      244.707       71.084        0.084      340.201       14.056      862.848
11/07/2013  20:42:00     -246.162      -96.995       -0.924      185.463      108.105       61.748    34396.453    11686.612     3812.869        5.994        2.495      264.582       80.025        0.091      340.233       14.110      862.873
11/07/2013  20:43:00     -253.729      -31.057      -13.557      121.231      100.290       56.700    14696.993    10058.175     3214.865        4.674        1.399      255.623       51.479        0.041      340.189       14.035      862.878
11/07/2013  20:44:00     -261.115      -30.667      -13.401      124.122       91.627       49.359    15406.187     8395.471     2436.352        4.777        1.312      262.909       59.345        0.051      340.176       14.014      862.874
11/07/2013  20:45:00     -388.315      -69.179      -27.321      116.080      102.120       59.717    13474.660    10428.411     3566.094        9.189        1.373      394.429       53.361        0.018      340.244       14.127      862.852
11/07/2013  20:46:00     -272.567      -48.108       -8.172      130.740      116.122       57.139    17092.867    13484.244     3264.908        5.525        1.692      276.780       60.511        0.048      340.234       14.111      862.834
11/07/2013  20:47:00     -223.877     -179.033       -6.463      140.895       98.953       66.856    19851.406     9791.640     4469.763        5.816        1.706      286.659       71.659        0.062      340.240       14.123      862.848
11/07/2013  20:48:00     -255.256     -135.430      -12.766      147.468       93.774       62.353    21746.886     8793.560     3887.924        5.904        1.721      288.959       63.259        0.048      340.264       14.162      862.858
11/07/2013  20:49:00     -206.279     -112.024        0.189       95.950       75.614       51.564     9206.457     5717.510     2658.805        3.634        0.879      234.734       47.196        0.040      340.245       14.129      862.841
11/07/2013  20:50:00     -152.635     -101.253       -1.482       86.980       65.740       40.571     7565.478     4321.733     1646.018        2.354        0.677      183.166       46.192        0.064      340.282       14.193      862.799
11/07/2013  20:51:00      -76.117        0.513        2.240       53.965       31.306       32.704     2912.252      980.048     1069.526        0.538        0.248       76.119       33.843        0.198      340.152       13.974      862.808
11/07/2013  20:52:00     -116.981      -49.642       -8.612       47.459       50.017       23.219     2252.382     2501.729      539.134        1.076        0.265      127.078       17.140        0.018      340.169       14.004      862.816
11/07/2013  20:53:00     -180.156        4.844        6.496      107.486       59.180       47.672    11553.293     3502.222     2272.601        2.492        0.866      180.221       43.701        0.059      340.119       13.918      862.834
11/07/2013  20:54:00     -240.784      -78.363       13.015      118.142       70.112       46.978    13957.433     4915.626     2206.957        4.268        1.054      253.214       54.566        0.046      340.166       13.996      862.871
11/07/2013  20:55:00     -121.309     -104.237       12.927      133.627      103.584       56.984    17856.219    10729.737     3247.228        2.879        1.592      159.941       69.645        0.190      340.263       14.160      862.887
11/07/2013  20:56:00     -199.680     -107.630        6.929      109.099      103.961       65.823    11902.664    10807.988     4332.610        3.927        1.352      226.840       66.371        0.086      340.284       14.194      862.908
11/07/2013  20:57:00     -269.994      -60.081      -22.462      158.485       86.425       50.742    25117.436     7469.240     2574.776        5.608        1.758      276.598       62.769        0.051      340.213       14.075      862.935
11/07/2013  20:58:00     -266.818      -25.428      -10.113      120.526      109.198       62.143    14526.457    11924.312     3861.762        5.112        1.516      268.027       56.214        0.044      340.192       14.039      862.936
11/07/2013  20:59:00     -276.531     -103.440       -8.147       91.815       90.857       52.003     8430.017     8254.913     2704.265        5.331        0.969      295.244       43.686        0.022      340.248       14.133      862.948
11/07/2013  21:00:00     -273.559      -77.626       -3.075      150.973      108.095       64.330    22792.887    11684.482     4138.307        5.974        1.931      284.359       71.423        0.063      340.208       14.067      862.941
11/07/2013  21:01:00     -190.260      -84.498        0.178      114.036       94.999       46.808    13004.282     9024.744     2191.005        3.378        1.211      208.180       52.265        0.063      340.175       14.011      862.910
11/07/2013  21:02:00     -284.162      -70.984       -9.219      155.767       87.160       58.280    24263.512     7596.783     3396.603        6.056        1.763      292.894       76.320        0.068      340.154       13.975      862.892
11/07/2013  21:03:00     -370.844      -52.027      -13.754      132.834      105.780       65.109    17644.978    11189.311     4239.125        8.674        1.654      374.476       71.455        0.036      340.159       13.984      862.901
11/07/2013  21:04:00     -333.824      -90.349      -21.764      128.150       97.562       64.292    16422.472     9518.348     4133.510        7.507        1.504      345.834       65.953        0.036      340.183       14.025      862.933
11/07/2013  21:05:00     -305.100      -59.697       -8.465      127.759      100.178       63.695    16322.286    10035.658     4057.041        6.356        1.521      310.886       71.194        0.052      340.166       13.995      862.929
11/07/2013  21:06:00     -341.309     -122.154      -10.410      126.143      120.530       63.520    15912.065    14527.432     4034.753        8.299        1.724      362.510       60.365        0.028      340.177       14.014      862.910
11/07/2013  21:07:00     -308.272     -122.598      -19.906      115.451       87.465       56.110    13328.887     7650.193     3148.332        6.729        1.206      331.756       46.154        0.019      340.150       13.969      862.887
11/07/2013  21:08:00     -315.317      -55.207      -12.977      131.790      119.503       63.640    17368.627    14281.045     4050.083        6.916        1.785      320.113       62.528        0.038      340.088       13.864      862.871
11/07/2013  21:09:00     -262.177      -53.544       -2.245      124.685      105.745       59.388    15546.441    11181.978     3526.877        5.093        1.513      267.589       65.193        0.059      340.081       13.853      862.856
11/07/2013  21:10:00     -224.404      -37.736       -1.610      154.728      113.548       73.445    23940.605    12893.260     5394.116        4.700        2.111      227.555       71.334        0.098      340.067       13.828      862.848
11/07/2013  21:11:00     -247.185     -136.923       -4.477      135.080      131.187       71.101    18246.502    17210.056     5055.304        6.018        2.026      282.575       72.006        0.065      340.090       13.869      862.850
11/07/2013  21:12:00     -223.325      -97.077       -0.327      136.043      105.791       69.948    18507.573    11191.694     4892.777        4.694        1.730      243.511       69.606        0.082      340.114       13.907      862.809
11/07/2013  21:13:00     -297.944      -79.445       -6.850      146.355      112.676       63.328    21419.722    12695.952     4010.424        6.662        1.906      308.354       64.959        0.044      340.133       13.941      862.803
11/07/2013  21:14:00     -229.127      -62.479        2.993      165.068       96.869       60.266    27247.509     9383.593     3632.001        4.833        2.013      237.492       66.404        0.078      340.119       13.917      862.811
11/07/2013  21:15:00     -364.453      -57.160       -7.797      175.462      120.712       76.667    30786.750    14571.491     5877.825        9.369        2.562      368.908       83.438        0.051      340.177       14.014      862.798
11/07/2013  21:16:00     -403.877      -63.210       -9.428      182.963      126.198       81.430    33475.457    15926.024     6630.784       11.161        2.802      408.794       83.950        0.042      340.253       14.141      862.790
11/07/2013  21:17:00     -321.380      -60.683        0.956      166.873      117.895       68.022    27846.490    13899.292     4626.969        7.666        2.319      327.059       80.310        0.060      340.214       14.076      862.804
11/07/2013  21:18:00     -412.485      -76.427      -19.515      161.611      139.382       73.353    26118.193    19427.267     5380.675       11.364        2.546      419.505       88.460        0.044      340.233       14.109      862.804
11/07/2013  21:19:00     -496.597      -62.630      -32.305      163.108      152.137       71.043    26604.291    23145.604     5047.143       15.318        2.740      500.531       75.408        0.023      340.284       14.195      862.779
11/07/2013  21:20:00     -325.019      -76.625      -10.006      132.352      115.100       54.845    17517.058    13248.055     3007.964        7.269        1.689      333.929       60.275        0.033      340.212       14.072      862.773
11/07/2013  21:21:00     -299.638      -36.148       -2.902      145.717      110.585       62.551    21233.558    12229.062     3912.647        6.423        1.869      301.810       72.364        0.057      340.165       13.993      862.785
11/07/2013  21:22:00     -318.763     -101.639      -11.545      186.693      131.137       68.558    34854.271    17196.822     4700.205        8.440        2.838      334.575       88.616        0.070      340.214       14.077      862.833
11/07/2013  21:23:00     -365.786      -19.836      -31.705      111.337      118.349       60.539    12395.931    14006.382     3664.947        8.263        1.503      366.324       52.516        0.021      340.186       14.028      862.835
11/07/2013  21:24:00     -373.113      -67.016       -5.052      149.736      116.957       63.138    22421.013    13678.910     3986.464        9.190        2.004      379.084       70.050        0.034      340.195       14.044      862.839
11/07/2013  21:25:00     -146.915      -59.459       13.599      145.487       90.627       64.387    21166.513     8213.180     4145.742        2.941        1.676      158.491       76.238        0.231      340.101       13.886      862.844
11/07/2013  21:26:00     -249.078      -83.397       -7.074      169.407      155.636       70.274    28698.661    24222.507     4938.449        6.344        2.893      262.669       68.757        0.069      340.193       14.041      862.856
11/07/2013  21:27:00     -283.124      -88.479       12.174      175.490      124.221       75.426    30796.589    15430.922     5689.022        7.002        2.596      296.627       87.391        0.087      340.215       14.079      862.863
11/07/2013  21:28:00     -176.365     -100.245        4.596      135.254      112.478       62.730    18293.729    12651.326     3935.079        3.802        1.744      202.864       58.067        0.082      340.168       14.000      862.882
11/07/2013  21:29:00     -375.789     -135.452       -1.968      158.557      110.665       76.199    25140.304    12246.741     5806.289       10.137        2.160      399.455       75.466        0.036      340.295       14.212      862.866
11/07/2013  21:30:00     -393.196      -91.542       -5.368      156.729      121.780       72.489    24563.873    14830.397     5254.726       10.382        2.232      403.712       79.005        0.038      340.333       14.277      862.875
11/07/2013  21:31:00     -392.747      -84.472       -9.741      193.048      149.907       77.437    37267.425    22472.233     5996.536       11.360        3.287      401.729       88.565        0.049      340.316       14.249      862.897
11/07/2013  21:32:00     -405.768     -117.165      -13.638      153.467      134.505       74.044    23552.172    18091.651     5482.581       11.284        2.356      422.345       81.009        0.037      340.331       14.275      862.898
11/07/2013  21:33:00     -391.316      -84.257      -12.414      174.682      128.284       74.048    30513.856    16456.699     5483.154       10.641        2.623      400.284       83.689        0.044      340.368       14.336      862.893
11/07/2013  21:34:00     -355.203      -75.361      -17.846      156.201      139.884       73.640    24398.753    19567.618     5422.779        9.077        2.469      363.110       75.247        0.043      340.365       14.332      862.910
11/07/2013  21:35:00     -344.004     -137.127       -0.922      187.576      116.626       76.787    35184.738    13601.524     5896.263        9.590        2.734      370.328       92.246        0.062      340.366       14.334      862.916
11/07/2013  21:36:00     -324.653      -48.815      -13.983      154.304       98.468       65.292    23809.827     9695.853     4263.009        7.287        1.888      328.303       69.306        0.045      340.272       14.173      862.922
11/07/2013  21:37:00     -371.200      -24.583      -16.583      141.723      121.083       69.665    20085.425    14661.040     4853.247        8.913        1.980      372.013       70.315        0.036      340.327       14.268      862.911
11/07/2013  21:38:00     -371.131      -33.145      -16.147      127.498      112.277       64.152    16255.853    12606.021     4115.525        8.603        1.649      372.608       56.951        0.023      340.273       14.177      862.926
11/07/2013  21:39:00     -248.386     -112.066       25.116      151.110      134.609       80.525    22834.294    18119.612     6484.197        6.115        2.372      272.496       82.511        0.092      340.251       14.140      862.923
11/07/2013  21:40:00     -309.980     -101.170       -2.231      134.939      118.307       64.880    18208.541    13996.474     4209.387        7.137        1.821      326.072       63.340        0.038      340.257       14.149      862.932
11/07/2013  21:41:00     -317.202     -138.093      -10.259      134.380       96.072       61.077    18057.858     9229.868     3730.378        7.540        1.551      345.958       68.693        0.039      340.208       14.067      862.937
11/07/2013  21:42:00     -333.815      -44.221       -9.642      123.222       99.357       62.809    15183.763     9871.768     3944.979        7.124        1.450      336.731       68.726        0.042      340.212       14.073      862.963
11/07/2013  21:43:00     -364.597     -108.578      -17.846       76.501       81.423       44.580     5852.341     6629.749     1987.382        7.975        0.723      380.421       27.123        0.005      340.179       14.017      862.991
11/07/2013  21:44:00     -354.832      -69.849      -10.889      128.781      124.471       63.054    16584.425    15493.013     3975.771        8.347        1.803      361.642       61.681        0.029      340.172       14.004      863.014
11/07/2013  21:45:00     -303.161     -123.209      -18.422      141.118      111.865       65.036    19914.380    12513.855     4229.714        7.204        1.833      327.242       61.696        0.036      340.162       13.989      862.997
11/07/2013  21:46:00     -342.940      -87.678      -11.516      171.022      122.086       60.936    29248.475    14905.072     3713.210        8.664        2.393      353.970       74.182        0.044      340.227       14.100      863.002
11/07/2013  21:47:00     -268.538      -67.434       -9.382      131.082      105.661       63.296    17182.612    11164.145     4006.417        5.455        1.618      276.875       63.970        0.053      340.207       14.065      863.017
11/07/2013  21:48:00     -278.281      -16.416      -19.043      113.221      100.969       64.365    12818.990    10194.699     4142.839        5.261        1.358      278.765       56.439        0.041      340.206       14.062      862.993
11/07/2013  21:49:00     -323.909      -88.638      -28.101      133.482       95.489       60.527    17817.517     9118.212     3663.527        7.208        1.530      335.818       68.159        0.041      340.260       14.155      862.991
11/07/2013  21:50:00     -310.031      -99.039      -15.789      110.225      114.999       61.130    12149.502    13224.862     3736.877        6.764        1.456      325.466       54.280        0.028      340.240       14.119      863.010
11/07/2013  21:51:00     -432.431     -144.232      -13.813      143.792       86.932       64.840    20676.213     7557.135     4204.244       12.021        1.622      455.851       74.483        0.027      340.319       14.254      863.031
11/07/2013  21:52:00     -300.937      -45.865      -19.796      110.142       69.315       50.554    12131.285     4804.543     2555.748        5.627        0.975      304.412       43.983        0.021      340.245       14.130      863.060
11/07/2013  21:53:00     -278.690      -93.577      -20.492       91.732       82.958       51.655     8414.814     6882.006     2668.200        5.240        0.898      293.981       46.479        0.025      340.183       14.024      863.080
11/07/2013  21:54:00     -246.922     -109.635      -13.152      140.400      107.349       62.987    19712.228    11523.772     3967.362        5.418        1.760      270.168       58.898        0.048      340.164       13.993      863.079
11/07/2013  21:55:00     -258.622      -53.720      -14.621       85.549       85.343       46.389     7318.635     7283.459     2151.928        4.337        0.838      264.142       38.287        0.021      340.119       13.915      863.087
11/07/2013  21:56:00     -224.056      -47.786      -16.082       99.790       79.648       57.147     9957.983     6343.881     3265.791        3.615        0.978      229.095       54.465        0.057      340.084       13.856      863.107
11/07/2013  21:57:00     -331.701      -40.785      -22.993      115.684       89.577       59.054    13382.711     8024.074     3487.347        6.855        1.245      334.199       57.175        0.029      340.137       13.946      863.130
11/07/2013  21:58:00     -274.773      -41.527      -20.999      103.987       89.763       54.665    10813.231     8057.424     2988.259        4.976        1.093      277.893       59.777        0.046      340.020       13.750      863.139
11/07/2013  21:59:00     -252.761      -46.567      -10.635       97.728       69.905       45.542     9550.833     4886.759     2074.110        4.134        0.826      257.014       43.093        0.028      340.055       13.807      863.134
11/07/2013  22:00:00     -282.828      -40.009      -13.971      106.002      114.096       55.793    11236.496    13017.959     3112.828        5.457        1.368      285.644       50.673        0.031      340.097       13.880      863.115
11/07/2013  22:01:00     -341.315      -87.123      -20.959      103.330       97.797       56.443    10677.029     9564.258     3185.846        7.397        1.171      352.259       50.606        0.021      340.122       13.921      863.080
11/07/2013  22:02:00     -332.254      -43.333      -34.426      108.199      134.239       52.986    11707.009    18020.229     2807.485        7.299        1.627      335.068       45.096        0.018      340.114       13.907      863.052
11/07/2013  22:03:00     -379.255      -91.404       -9.129      127.533      119.449       66.417    16264.769    14268.179     4411.167        9.360        1.747      390.114       67.336        0.030      340.188       14.032      863.035
11/07/2013  22:04:00     -322.294      -55.417      -16.254      111.693       91.335       60.435    12475.302     8342.091     3652.378        6.584        1.223      327.023       61.111        0.035      340.156       13.978      863.047
11/07/2013  22:05:00     -372.614     -121.894      -17.360      106.692      121.302       54.644    11383.139    14714.231     2985.987        9.154        1.454      392.046       43.068        0.012      340.310       14.238      863.033
11/07/2013  22:06:00     -306.116      -70.157      -10.668       87.857       88.933       50.875     7718.771     7909.022     2588.295        5.848        0.911      314.053       43.470        0.019      340.291       14.207      863.040
11/07/2013  22:07:00     -233.938      -47.623      -11.791       94.127       88.475       52.106     8859.886     7827.779     2714.989        3.827        0.970      238.736       52.516        0.048      340.233       14.109      863.016
11/07/2013  22:08:00     -194.628      -63.389        4.000      101.770      102.209       48.587    10357.216    10446.591     2360.705        3.254        1.158      204.691       52.585        0.066      340.183       14.025      863.025
11/07/2013  22:09:00     -280.960      -36.898      -14.099      103.385       80.454       58.318    10688.511     6472.797     3400.995        5.053        1.028      283.372       60.606        0.046      340.208       14.066      863.028
11/07/2013  22:10:00     -254.462     -148.709        7.074      136.722      114.372       65.337    18692.853    13080.865     4268.918        6.147        1.802      294.729       73.370        0.062      340.237       14.116      863.031
11/07/2013  22:11:00      -88.492      -94.540       11.796      102.372       71.420       44.355    10480.122     5100.773     1967.351        1.723        0.877      129.494       51.083        0.156      340.113       13.908      863.054
11/07/2013  22:12:00     -139.344     -139.304       -4.816      121.830       85.448       47.294    14842.614     7301.408     2236.705        3.161        1.219      197.034       48.524        0.061      340.145       13.960      863.062
11/07/2013  22:13:00     -123.217     -101.079        4.886       95.574       75.622       46.609     9134.345     5718.667     2172.364        2.122        0.851      159.372       50.319        0.100      340.149       13.968      863.069
11/07/2013  22:14:00     -167.373      -94.069      -10.086       89.308       70.353       39.069     7975.898     4949.540     1526.410        2.571        0.723      191.997       36.976        0.037      340.134       13.943      863.087
11/07/2013  22:15:00      -75.327      -48.477       -0.902       71.378       67.063       36.958     5094.856     4497.484     1365.908        0.949        0.548       89.578       30.895        0.119      340.200       14.056      863.078
11/07/2013  22:16:00     -110.238      -65.007        5.508       65.564       52.196       34.206     4298.649     2724.421     1170.074        1.230        0.410      127.977       35.877        0.079      340.167       14.001      863.078
11/07/2013  22:17:00      -53.809      -54.738        7.375       53.819       39.564       29.645     2896.450     1565.332      878.835        0.564        0.267       76.757       35.751        0.217      340.014       13.742      863.105
11/07/2013  22:18:00        2.209      -69.063      -18.287       42.410       62.312       27.131     1798.589     3882.781      736.085        0.576        0.321       69.098       28.681        0.172      339.737       13.275      863.103
11/07/2013  22:19:00       32.332       15.353       28.865       35.387       39.442       36.562     1252.206     1555.701     1336.763        0.313        0.207       35.792       32.730        0.836      339.335       12.599      863.088
11/07/2013  22:20:00       57.990     -116.285       -7.932       43.227       44.298       22.312     1868.584     1962.348      497.820        1.064        0.216      129.943       21.269        0.027      339.645       13.120      863.088
11/07/2013  22:21:00      -63.801      -48.902       -2.371       47.129       62.102       22.745     2221.182     3856.598      517.326        0.653        0.330       80.386       16.306        0.041      339.836       13.443      863.101
11/07/2013  22:22:00      -54.025      -64.222       -2.761       25.084       44.630       19.205      629.193     1991.875      368.843        0.502        0.149       83.923       12.851        0.023      339.921       13.586      863.102
11/07/2013  22:23:00      -27.493      -41.340        7.073       43.884       44.482       23.599     1925.825     1978.636      556.895        0.349        0.223       49.647       28.236        0.323      339.859       13.482      863.094
11/07/2013  22:24:00        2.415       25.882       27.564       32.389       60.914       34.833     1049.055     3710.484     1213.361        0.370        0.299       25.994       34.304        1.741      339.656       13.137      863.072
11/07/2013  22:25:00      -24.067      -32.267        0.221       31.444       25.963       15.227      988.737      674.082      231.865        0.176        0.095       40.254       10.357        0.066      339.713       13.236      863.111
11/07/2013  22:26:00      -54.788      -78.909        0.955       44.953       39.338       24.429     2020.760     1547.463      596.753        0.670        0.208       96.064       15.603        0.026      339.839       13.447      863.135
11/07/2013  22:27:00      -77.827      -81.263       -5.357       48.215       48.774       31.160     2324.689     2378.869      970.974        0.918        0.284      112.520       34.163        0.092      339.897       13.543      863.134
11/07/2013  22:28:00        7.252       -7.570       26.908       31.216       26.316       15.930      974.421      692.524      253.766        0.138        0.096       10.483       18.392        3.078      339.551       12.962      863.155
11/07/2013  22:29:00       29.151       14.799       20.797        9.949       15.920        8.657       98.973      253.439       74.943        0.096        0.021       32.692        6.932        0.045      339.350       12.623      863.155
11/07/2013  22:30:00       25.450       42.903        5.553       20.486       12.500       19.665      419.679      156.258      386.694        0.174        0.048       49.884       17.569        0.124      339.283       12.508      863.155
11/07/2013  22:31:00       30.940       54.058        0.659       26.608       20.259       16.267      707.984      410.421      264.627        0.263        0.069       62.286       14.087        0.051      339.181       12.338      863.138
11/07/2013  22:32:00       30.357       52.404      -10.296       14.816       18.867       12.934      219.524      355.953      167.292        0.226        0.037       60.562        5.274        0.008      339.203       12.375      863.101
11/07/2013  22:33:00        1.673       16.322       -3.936        9.987       10.776        5.435       99.745      116.130       29.537        0.027        0.012       16.408        2.139        0.017      339.424       12.749      863.102
11/07/2013  22:34:00        8.875        5.617       -5.352       17.111       10.240        6.995      292.791      104.868       48.930        0.029        0.022       10.503        6.358        0.366      339.553       12.967      863.104
11/07/2013  22:35:00       36.970       31.211        8.339       17.689       15.059        8.691      312.896      226.772       75.539        0.151        0.031       48.382       12.315        0.065      339.408       12.720      863.104
11/07/2013  22:36:00       20.344      -23.798       -0.350       19.911        8.391        8.594      396.438       70.410       73.858        0.076        0.027       31.309       10.130        0.105      339.390       12.690      863.101
11/07/2013  22:37:00       17.691        5.929        7.716       16.086       12.552       10.662      258.770      157.540      113.673        0.047        0.026       18.658       11.215        0.361      339.163       12.309      863.095
11/07/2013  22:38:00      -11.819       25.509       -1.867       11.264       11.630        7.729      126.886      135.256       59.739        0.056        0.016       28.114        8.245        0.086      339.381       12.676      863.090
11/07/2013  22:39:00      -18.971      -18.682        3.188       38.224       30.910       12.076     1461.103      955.418      145.837        0.164        0.128       26.626       19.535        0.538      339.171       12.320      863.092
11/07/2013  22:40:00      -12.704      -64.344        9.040       27.439       20.964       13.244      752.879      439.470      175.404        0.288        0.068       65.586       12.596        0.037      339.525       12.919      863.104
11/07/2013  22:41:00      -51.336      -72.736        1.588       43.374       29.016       22.470     1881.261      841.954      504.886        0.558        0.161       89.028       20.490        0.053      339.724       13.254      863.089
11/07/2013  22:42:00     -104.843      -73.603      -12.133       69.809       32.269       29.633     4873.286     1041.293      878.097        1.167        0.340      128.100       25.006        0.038      339.819       13.415      863.087
11/07/2013  22:43:00      -68.565      -98.738        4.625       36.976       49.169       26.389     1367.227     2417.632      696.393        0.948        0.224      120.210       23.873        0.039      339.787       13.361      863.080
11/07/2013  22:44:00      -33.341      -93.369       -2.258       38.438       46.821       22.040     1477.502     2192.191      485.771        0.699        0.208       99.143        7.974        0.006      339.863       13.487      863.061
11/07/2013  22:45:00       -4.351      -47.139        5.062       30.202       47.438       21.763      912.179     2250.326      473.622        0.295        0.182       47.339       20.818        0.193      339.399       12.705      863.049
11/07/2013  22:46:00       -3.122      -57.477        7.970       39.874       38.196       32.731     1589.957     1458.934     1071.299        0.375        0.206       57.562       28.512        0.245      339.532       12.929      863.032
11/07/2013  22:47:00       41.335      -43.214        7.748       31.298       40.521       24.582      979.596     1641.956      604.272        0.343        0.161       59.800       18.960        0.101      339.329       12.587      863.007
11/07/2013  22:48:00       18.814      -84.022      -11.452       38.684       44.867       32.167     1496.413     2013.069     1034.708        0.604        0.227       86.102       20.208        0.055      339.273       12.495      862.999
11/07/2013  22:49:00      -38.507      -87.610       -3.887       45.248       43.445       19.365     2047.383     1887.488      375.011        0.674        0.215       95.699        6.914        0.005      339.373       12.663      863.015
11/07/2013  22:50:00      -27.987      -60.243        0.030       44.217       46.092       19.364     1955.171     2124.496      374.973        0.443        0.223       66.427       24.029        0.131      339.333       12.595      862.991
11/07/2013  22:51:00      -73.122     -170.917       -4.197       47.641       62.568       30.453     2269.674     3914.722      927.397        2.084        0.356      185.902       27.975        0.023      339.552       12.961      862.979
11/07/2013  22:52:00      -89.331      -83.303        4.285       68.245       57.413       30.690     4657.313     3296.250      941.858        1.192        0.445      122.146       36.796        0.091      339.326       12.583      862.994
11/07/2013  22:53:00      -80.967     -132.558        8.127       50.805       57.766       26.951     2581.173     3336.869      726.342        1.542        0.332      155.329       22.557        0.021      339.479       12.839      862.997
11/07/2013  22:54:00     -136.888      -72.185       -2.356       65.811       37.928       24.610     4331.053     1438.501      605.646        1.516        0.319      154.755        7.910        0.003      339.143       12.274      863.013
11/07/2013  22:55:00      -74.537     -108.280       -3.559       35.313       58.162       22.025     1246.986     3382.813      485.090        1.120        0.256      131.455       18.178        0.019      339.172       12.323      862.997
11/07/2013  22:56:00      -82.313     -117.922       -2.300       36.424       60.380       19.349     1326.707     3645.785      374.402        1.302        0.267      143.809       17.590        0.015      339.281       12.508      862.964
11/07/2013  22:57:00     -132.392      -22.284       -9.114       39.857       41.131       24.422     1588.605     1691.742      596.437        1.099        0.194      134.254       16.852        0.016      339.081       12.170      862.988
11/07/2013  22:58:00      -47.472      -29.644        8.379       33.575       39.189       20.747     1127.281     1535.768      430.432        0.315        0.155       55.967       18.614        0.111      339.052       12.121      862.993
11/07/2013  22:59:00      -63.270     -118.386        1.838       56.606       41.711       25.187     3204.252     1739.807      634.407        1.180        0.279      134.233       23.091        0.030      339.293       12.527      862.985
11/07/2013  23:00:00      -82.668     -109.052       -1.153       65.954       54.836       39.990     4349.962     3007.025     1599.161        1.384        0.448      136.844       32.790        0.057      339.494       12.866      862.995
11/07/2013  23:01:00      -45.073      -93.872       -0.463       48.869       45.051       23.733     2388.196     2029.614      563.238        0.791        0.249      104.133       19.563        0.035      339.476       12.836      863.007
11/07/2013  23:02:00      -63.974      -97.121       -4.607       46.978       39.128       18.416     2206.951     1531.033      339.147        0.881        0.204      116.298       15.538        0.018      339.435       12.767      863.013
11/07/2013  23:03:00      -61.211     -109.015        3.736       46.099       45.799       28.514     2125.082     2097.528      813.057        1.034        0.252      125.025       25.337        0.041      339.482       12.845      863.024
11/07/2013  23:04:00      -67.552     -113.431        4.047       45.583       66.775       22.302     2077.834     4458.947      497.386        1.224        0.352      132.022       23.465        0.032      339.494       12.863      863.033
11/07/2013  23:05:00     -111.721     -133.682       -2.660       58.935       37.757       25.781     3473.289     1425.618      664.636        1.796        0.278      174.220       18.945        0.012      339.386       12.684      863.056
11/07/2013  23:06:00      -79.434      -84.302       -1.791       37.252       57.651       20.824     1387.723     3323.688      433.632        0.928        0.257      115.830       16.195        0.020      339.354       12.630      863.057
11/07/2013  23:07:00      -73.735     -140.090        3.695       50.702       70.039       26.553     2570.662     4905.486      705.084        1.663        0.409      158.310       15.864        0.010      339.511       12.893      863.059
11/07/2013  23:08:00      -75.618     -145.101       -1.061       55.210       56.749       27.349     3048.097     3220.405      747.991        1.689        0.351      163.623       22.152        0.018      339.505       12.883      863.048
11/07/2013  23:09:00      -36.123     -130.125        7.131       34.326       47.441       27.197     1178.284     2250.623      739.659        1.123        0.208      135.046       23.246        0.030      339.521       12.912      863.035
11/07/2013  23:10:00      -54.431     -136.914       -3.802       48.821       57.244       28.710     2383.514     3276.897      824.266        1.410        0.324      147.337       15.345        0.011      339.500       12.875      863.035
11/07/2013  23:11:00      -70.514     -146.250       -9.175       43.760       38.962       30.229     1914.919     1518.010      913.810        1.540        0.217      162.362       15.800        0.009      339.328       12.585      863.030
11/07/2013  23:12:00      -76.552      -98.497      -15.744       32.239       36.849       24.171     1039.333     1357.881      584.261        0.940        0.149      124.748       20.450        0.027      339.270       12.490      863.028
11/07/2013  23:13:00     -109.037      -87.110       -8.255       38.810       39.805       25.773     1506.214     1584.464      664.253        1.165        0.188      139.561       13.370        0.009      339.185       12.345      863.022
11/07/2013  23:14:00     -140.119      -98.839       -0.200       45.622       49.458       26.567     2081.339     2446.107      705.792        1.732        0.262      171.472       21.449        0.016      339.122       12.238      863.030
11/07/2013  23:15:00      -92.371     -136.498       -6.620       46.117       54.041       32.088     2126.798     2920.425     1029.656        1.664        0.304      164.816       23.367        0.020      339.177       12.331      863.018
11/07/2013  23:16:00      -80.952     -143.995       -3.871       42.981       59.178       26.757     1847.326     3502.037      715.926        1.668        0.303      165.190       23.569        0.020      339.193       12.357      863.028
11/07/2013  23:17:00      -68.193     -151.448       -6.554       79.009       64.062       31.037     6242.358     4103.991      963.290        1.947        0.565      166.093       31.140        0.035      339.223       12.407      863.042
11/07/2013  23:18:00      -41.165      -93.956       -9.907       44.118       41.755       26.419     1946.355     1743.504      697.942        0.750        0.219      102.578        7.405        0.005      339.203       12.377      863.023
11/07/2013  23:19:00      -72.407      -79.492        5.404       47.838       54.225       28.990     2288.506     2940.303      840.405        0.883        0.303      107.525       26.585        0.061      339.174       12.324      863.018
11/07/2013  23:20:00      -75.110      -57.835        3.631       78.610       51.956       32.952     6179.571     2699.469     1085.841        0.948        0.498       94.797       17.122        0.033      339.103       12.208      863.035
11/07/2013  23:21:00      -90.293     -129.366       -0.597       44.702       37.908       29.920     1998.286     1437.018      895.233        1.461        0.217      157.761       20.864        0.017      339.040       12.102      863.062
11/07/2013  23:22:00      -78.469     -153.472        2.600       47.303       70.155       31.773     2237.596     4921.723     1009.503        1.894        0.408      172.369       24.045        0.019      339.100       12.201      863.077
11/07/2013  23:23:00      -65.979      -89.517       10.269       49.517       54.116       29.746     2451.888     2928.538      884.819        0.937        0.313      111.205       19.693        0.031      339.133       12.258      863.082
11/07/2013  23:24:00      -78.333     -153.205        3.991       69.817       71.102       44.169     4874.364     5055.477     1950.914        2.075        0.594      172.069       43.502        0.064      339.237       12.430      863.074
11/07/2013  23:25:00      -77.707     -123.952       -0.965       72.961       48.404       34.753     5323.370     2342.964     1207.744        1.514        0.444      146.296       41.713        0.081      339.237       12.431      863.069
11/07/2013  23:26:00     -110.016     -146.476       -5.549       52.123       58.025       32.518     2716.762     3366.845     1057.437        2.036        0.357      183.190       26.038        0.020      339.291       12.522      863.043
11/07/2013  23:27:00     -156.632     -115.696       -7.267       70.662       54.467       27.490     4993.184     2966.704      755.710        2.334        0.436      194.729       24.322        0.016      339.236       12.427      863.037
11/07/2013  23:28:00      -66.216      -54.365       -0.127       61.506       37.826       23.934     3783.004     1430.781      572.849        0.656        0.289       85.674       23.329        0.074      339.031       12.085      863.066
11/07/2013  23:29:00      -76.543     -149.494       -9.432       53.479       50.113       25.877     2860.026     2511.362      669.602        1.717        0.302      167.951       23.349        0.019      339.129       12.249      863.091
11/07/2013  23:30:00      -30.082     -149.037        0.222       31.696       50.597       27.951     1004.653     2560.050      781.247        1.373        0.217      152.043       28.729        0.036      339.194       12.360      863.073
11/07/2013  23:31:00      -65.371     -134.054        2.010       43.897       78.591       26.505     1926.919     6176.476      702.503        1.553        0.440      149.144       24.513        0.027      339.223       12.408      863.062
11/07/2013  23:32:00      -74.658      -31.461       -1.969       62.722       66.328       31.114     3934.069     4399.450      968.071        0.793        0.465       81.016       25.626        0.100      339.182       12.341      863.008
11/07/2013  23:33:00     -117.055      -71.162        0.416       37.596       34.442       20.222     1413.468     1186.272      408.926        1.089        0.150      136.989       16.940        0.015      338.983       12.005      863.009
11/07/2013  23:34:00      -56.446      -41.523        4.718       37.737       25.531       18.675     1424.074      651.815      348.749        0.368        0.121       70.073       20.319        0.084      339.005       12.043      863.027
11/07/2013  23:35:00      -53.101      -61.787        6.683       39.522       38.547       24.171     1561.968     1485.844      584.229        0.516        0.182       81.470       23.082        0.080      338.963       11.972      863.013
11/07/2013  23:36:00      -72.882     -129.460       -6.865       49.532       44.014       22.736     2453.451     1937.273      516.904        1.351        0.245      148.565       13.643        0.008      339.101       12.202      863.011
11/07/2013  23:37:00      -94.041      -78.834        0.895       75.176       43.126       30.436     5651.501     1859.879      926.325        1.175        0.422      122.713       21.458        0.031      339.003       12.037      863.008
11/07/2013  23:38:00      -59.359     -155.972        1.274       42.244       53.513       27.840     1784.524     2863.647      775.082        1.664        0.271      166.886       23.244        0.019      339.166       12.312      862.978
11/07/2013  23:39:00      -82.735      -61.190       -3.095       40.920       31.544       23.930     1674.406      995.044      572.651        0.692        0.162      102.904       22.034        0.046      339.069       12.149      862.987
11/07/2013  23:40:00      -71.196     -119.138       -2.265       31.921       37.348       21.136     1018.932     1394.874      446.743        1.106        0.143      138.790       14.135        0.010      339.175       12.326      862.989
11/07/2013  23:41:00      -31.457      -94.948       -6.965       42.819       58.074       28.070     1833.486     3372.646      787.936        0.802        0.300      100.024       16.511        0.027      339.204       12.377      862.975
11/07/2013  23:42:00      -99.094      -40.630       -2.969       54.787       37.066       19.122     3001.580     1373.878      365.642        0.811        0.237      107.100        9.420        0.008      339.092       12.187      862.984
11/07/2013  23:43:00      -38.678      -70.731       -3.160       43.002       33.465       18.716     1849.141     1119.884      350.277        0.491        0.166       80.615        6.388        0.006      339.055       12.126      862.996
11/07/2013  23:44:00      -68.560     -148.374       -1.822       42.409       43.595       28.752     1798.539     1900.560      826.649        1.562        0.226      163.448       26.534        0.026      339.186       12.347      862.996
11/07/2013  23:45:00      -39.017     -144.199       13.125       39.668       56.583       25.668     1573.562     3201.592      658.837        1.396        0.272      149.384       27.986        0.035      339.321       12.574      862.977
11/07/2013  23:46:00      -86.534      -73.888       -2.295       66.308       49.464       29.260     4396.799     2446.678      856.126        1.032        0.385      113.787       13.175        0.013      339.289       12.520      862.961
11/07/2013  23:47:00     -124.822      -52.953       -2.657       60.058       29.647       21.353     3606.958      878.931      455.944        1.167        0.247      135.589       19.173        0.020      338.884       11.839      862.964
11/07/2013  23:48:00      -63.103      -71.922        1.908       34.434       44.258       18.586     1185.687     1958.761      345.421        0.632        0.174       95.681       12.868        0.018      338.967       11.978      862.962
11/07/2013  23:49:00     -102.250      -53.631       -5.317       36.065       30.272       17.103     1300.680      916.371      292.524        0.793        0.125      115.461       12.311        0.011      338.973       11.988      862.966
11/07/2013  23:50:00      -86.869      -55.514        8.512       57.454       31.207       22.875     3300.956      973.873      523.246        0.775        0.240      103.092       24.695        0.057      338.889       11.847      862.996
11/07/2013  23:51:00      -52.889      -68.444        9.232       44.265       36.366       24.420     1959.387     1322.495      596.333        0.572        0.194       86.498       19.161        0.049      339.204       12.377      862.999
11/07/2013  23:52:00       -4.391      -19.226       24.217       34.320       29.927       21.145     1177.833      895.618      447.095        0.175        0.126       19.721       19.231        0.951      339.050       12.117      863.011
11/07/2013  23:53:00      -56.730      -74.121        4.935       36.626       33.529       23.580     1341.460     1124.181      556.031        0.588        0.151       93.340       19.454        0.043      339.167       12.316      863.061
11/07/2013  23:54:00      -39.378     -139.640        2.705       30.373       51.835       22.918      922.533     2686.896      525.248        1.260        0.207      145.086       16.689        0.013      339.316       12.565      863.075
11/07/2013  23:55:00      -22.812      -21.099       -3.747       23.808       50.666       16.541      566.814     2567.051      273.591        0.219        0.170       31.074       16.681        0.288      339.239       12.437      863.094
11/07/2013  23:56:00       16.971       14.287       24.242       36.093       15.753       11.129     1302.738      248.148      123.863        0.138        0.084       22.184        4.898        0.049      339.062       12.138      863.119
11/07/2013  23:57:00       38.944       38.515        1.381       27.964       25.480        9.760      782.002      649.212       95.260        0.226        0.076       54.772       10.443        0.036      338.898       11.861      863.152
11/07/2013  23:58:00      102.225      114.136       12.886       57.383       36.275       49.373     3292.770     1315.902     2437.696        1.534        0.352      153.222       34.092        0.050      338.201       10.690      863.193
11/07/2013  23:59:00      168.563       95.075       33.149       69.654       56.214       69.471     4851.740     3160.021     4826.236        2.569        0.642      193.527       53.641        0.077      337.881       10.151      863.181
